[[{"header":{"parameterUnit":"m.s-1","parameterCategory":1,"la1":30.6,"la2":29.2853,"lo1":-89.7004,"lo2":-87.6739,"dy":0.0162,"dx":0.0183,"nx":112,"ny":82,"refTime":"2024-07-17T12:00:00:Z","depth":0,"parameterNumber":2,"parameterNumberName":"U-component_of_WINDS"},"data":[0.0,0.0,0.0,0.0,0.0,0.0,0.0,0.0,0.0,0.0,0.0,0.0,0.0,0.0,0.0,0.0,0.0,0.0,0.0,0.0,0.0,0.0,0.0,0.0,0.0,0.0,0.0,0.0,0.0,0.0,0.0,0.0,0.0,0.0,0.0,0.0,0.0,0.0,0.0,0.0,0.0,0.0,0.0,0.0,0.0,0.0,0.0,0.0,0.0,0.0,0.0,0.0,0.0,0.0,0.0,0.0,0.0,0.0,0.0,0.0,0.0,0.0,0.0,0.0,0.0,0.0,0.0,0.0,0.0,0.0,0.0,0.0,0.0,0.0,0.0,0.0,0.0,0.0,0.0,0.0,0.0,0.0,0.0,0.0,0.0,0.0,0.0,0.0,0.0,0.0,-3.7192,-3.8534,-3.7654,-3.6912,-3.6819,-3.606,-3.448,-3.1948,0.0,0.0,0.0,0.0,0.0,0.0,0.0,0.0,0.0,0.0,0.0,0.0,0.0,0.0,0.0,0.0,0.0,0.0,0.0,0.0,0.0,0.0,0.0,0.0,0.0,0.0,0.0,0.0,0.0,0.0,0.0,0.0,0.0,0.0,0.0,0.0,0.0,0.0,0.0,0.0,0.0,0.0,0.0,0.0,0.0,0.0,0.0,0.0,0.0,0.0,0.0,0.0,0.0,0.0,0.0,0.0,0.0,0.0,0.0,0.0,0.0,0.0,0.0,0.0,0.0,0.0,0.0,0.0,0.0,0.0,0.0,0.0,0.0,0.0,0.0,0.0,0.0,0.0,0.0,0.0,0.0,0.0,0.0,0.0,0.0,0.0,0.0,0.0,0.0,0.0,0.0,0.0,0.0,0.0,0.0,0.0,0.0,0.0,0.0,0.0,0.0,0.0,0.0,0.0,-3.8442,-3.8676,-3.7331,-3.6677,-3.7314,-3.5262,-3.3354,-3.1899,0.0,0.0,0.0,0.0,0.0,0.0,0.0,0.0,0.0,0.0,0.0,0.0,0.0,0.0,0.0,0.0,0.0,0.0,0.0,0.0,0.0,0.0,0.0,0.0,0.0,0.0,0.0,0.0,0.0,0.0,0.0,0.0,0.0,0.0,0.0,0.0,0.0,0.0,0.0,0.0,0.0,0.0,0.0,0.0,0.0,0.0,0.0,0.0,0.0,0.0,0.0,0.0,0.0,0.0,0.0,0.0,0.0,0.0,0.0,0.0,0.0,0.0,0.0,0.0,0.0,0.0,0.0,0.0,0.0,0.0,0.0,0.0,0.0,0.0,0.0,0.0,0.0,0.0,0.0,0.0,0.0,0.0,0.0,0.0,0.0,0.0,0.0,0.0,0.0,0.0,0.0,0.0,0.0,0.0,0.0,0.0,0.0,0.0,0.0,0.0,0.0,0.0,0.0,-3.6342,-3.72,-3.7985,-3.7,-3.6266,-3.6156,-3.4577,-3.2737,-3.0662,-2.9259,0.0,0.0,0.0,0.0,0.0,0.0,0.0,0.0,0.0,0.0,0.0,0.0,0.0,0.0,0.0,0.0,0.0,0.0,0.0,0.0,0.0,0.0,0.0,0.0,0.0,0.0,0.0,0.0,0.0,0.0,0.0,0.0,0.0,0.0,0.0,0.0,0.0,0.0,0.0,0.0,0.0,0.0,0.0,0.0,0.0,0.0,0.0,0.0,0.0,0.0,0.0,0.0,0.0,0.0,0.0,0.0,0.0,0.0,0.0,0.0,0.0,0.0,0.0,0.0,0.0,0.0,0.0,0.0,0.0,0.0,0.0,0.0,0.0,0.0,0.0,0.0,0.0,0.0,0.0,0.0,0.0,0.0,0.0,0.0,0.0,0.0,0.0,0.0,0.0,0.0,0.0,0.0,0.0,0.0,0.0,0.0,0.0,0.0,0.0,0.0,0.0,0.0,-3.553,-3.6025,-3.7092,-3.6486,-3.5734,-3.5045,-3.3822,-3.1999,-2.9467,-2.7686,0.0,0.0,0.0,0.0,0.0,0.0,0.0,0.0,0.0,0.0,0.0,0.0,0.0,0.0,0.0,0.0,0.0,0.0,0.0,0.0,0.0,0.0,0.0,0.0,0.0,0.0,0.0,0.0,0.0,0.0,0.0,0.0,0.0,0.0,0.0,0.0,0.0,0.0,0.0,0.0,0.0,0.0,0.0,0.0,0.0,0.0,0.0,0.0,0.0,0.0,0.0,0.0,0.0,0.0,0.0,0.0,0.0,0.0,0.0,0.0,0.0,0.0,0.0,0.0,0.0,0.0,0.0,0.0,0.0,0.0,0.0,0.0,0.0,0.0,0.0,0.0,0.0,0.0,0.0,0.0,0.0,0.0,0.0,0.0,0.0,0.0,0.0,0.0,0.0,0.0,0.0,0.0,0.0,0.0,0.0,0.0,0.0,0.0,0.0,0.0,0.0,0.0,-3.4853,-3.6266,-3.6376,-3.5624,-3.5064,-3.5009,-3.2895,-3.0756,-2.8887,-2.6099,0.0,0.0,0.0,0.0,0.0,0.0,0.0,0.0,0.0,0.0,0.0,0.0,0.0,0.0,0.0,0.0,0.0,0.0,0.0,0.0,0.0,0.0,0.0,0.0,0.0,0.0,0.0,0.0,0.0,0.0,0.0,0.0,0.0,0.0,0.0,0.0,0.0,0.0,0.0,0.0,0.0,0.0,0.0,0.0,0.0,0.0,0.0,0.0,0.0,0.0,0.0,0.0,0.0,0.0,0.0,0.0,0.0,0.0,0.0,0.0,0.0,0.0,0.0,0.0,0.0,0.0,0.0,0.0,0.0,0.0,0.0,0.0,0.0,0.0,0.0,0.0,0.0,0.0,0.0,0.0,0.0,0.0,0.0,0.0,0.0,0.0,0.0,0.0,0.0,0.0,0.0,0.0,0.0,0.0,0.0,0.0,0.0,0.0,0.0,0.0,0.0,0.0,-3.3991,-3.5132,0.0,-3.5192,-3.4686,-3.3927,-3.2782,-3.0992,-2.8505,0.0,0.0,0.0,0.0,0.0,0.0,0.0,0.0,0.0,0.0,0.0,0.0,0.0,0.0,0.0,0.0,0.0,0.0,0.0,0.0,0.0,0.0,0.0,0.0,0.0,0.0,0.0,0.0,0.0,0.0,0.0,0.0,0.0,0.0,0.0,0.0,0.0,0.0,0.0,0.0,0.0,0.0,0.0,0.0,0.0,0.0,0.0,0.0,0.0,0.0,0.0,0.0,0.0,0.0,0.0,0.0,0.0,0.0,0.0,0.0,0.0,0.0,0.0,0.0,0.0,0.0,0.0,0.0,0.0,0.0,0.0,0.0,0.0,0.0,0.0,0.0,0.0,0.0,0.0,0.0,0.0,0.0,0.0,0.0,0.0,0.0,0.0,0.0,0.0,0.0,0.0,0.0,0.0,0.0,0.0,0.0,0.0,0.0,0.0,0.0,0.0,0.0,-3.1843,-3.3395,-3.4321,0.0,-3.4633,-3.4209,-3.328,-3.2331,-3.0661,-2.7961,0.0,0.0,0.0,0.0,0.0,0.0,0.0,0.0,0.0,0.0,0.0,0.0,0.0,0.0,0.0,0.0,0.0,0.0,0.0,0.0,0.0,0.0,0.0,0.0,0.0,0.0,0.0,0.0,0.0,0.0,0.0,0.0,0.0,0.0,0.0,0.0,0.0,0.0,0.0,0.0,0.0,0.0,0.0,0.0,0.0,0.0,0.0,0.0,0.0,0.0,0.0,0.0,0.0,0.0,0.0,0.0,0.0,0.0,0.0,0.0,0.0,0.0,0.0,0.0,0.0,0.0,0.0,0.0,0.0,0.0,0.0,0.0,0.0,0.0,0.0,0.0,0.0,0.0,0.0,0.0,0.0,0.0,0.0,0.0,0.0,0.0,0.0,0.0,0.0,0.0,0.0,0.0,0.0,0.0,0.0,0.0,0.0,0.0,0.0,0.0,0.0,0.0,-3.117,-3.3025,-3.4117,-3.3815,-3.3807,-3.3625,-3.3214,-3.1428,-2.9385,0.0,0.0,0.0,0.0,0.0,0.0,0.0,0.0,0.0,0.0,0.0,0.0,0.0,0.0,0.0,0.0,0.0,0.0,0.0,0.0,0.0,0.0,0.0,0.0,0.0,0.0,0.0,0.0,0.0,0.0,0.0,0.0,0.0,0.0,0.0,0.0,0.0,0.0,0.0,0.0,0.0,0.0,0.0,0.0,0.0,0.0,0.0,0.0,0.0,0.0,0.0,0.0,0.0,0.0,0.0,0.0,0.0,0.0,0.0,0.0,0.0,0.0,0.0,0.0,0.0,0.0,0.0,0.0,0.0,0.0,0.0,0.0,0.0,0.0,0.0,0.0,0.0,0.0,0.0,0.0,0.0,0.0,0.0,0.0,0.0,0.0,0.0,0.0,0.0,0.0,0.0,0.0,0.0,0.0,0.0,0.0,0.0,0.0,0.0,0.0,0.0,0.0,0.0,-3.0441,-3.2691,-3.4117,-3.3815,-3.355,-3.3196,-3.2745,-3.1417,-2.9437,-2.6787,0.0,0.0,0.0,0.0,0.0,0.0,0.0,0.0,0.0,0.0,0.0,0.0,0.0,0.0,0.0,0.0,0.0,0.0,0.0,0.0,0.0,0.0,0.0,0.0,0.0,0.0,0.0,0.0,0.0,0.0,0.0,0.0,0.0,0.0,0.0,0.0,0.0,0.0,0.0,0.0,0.0,0.0,0.0,0.0,0.0,0.0,0.0,0.0,0.0,0.0,0.0,0.0,0.0,0.0,0.0,0.0,0.0,0.0,0.0,0.0,0.0,0.0,0.0,0.0,0.0,0.0,0.0,0.0,0.0,0.0,0.0,0.0,0.0,0.0,0.0,0.0,0.0,0.0,0.0,0.0,0.0,0.0,0.0,0.0,0.0,0.0,0.0,0.0,0.0,0.0,0.0,0.0,0.0,0.0,0.0,0.0,0.0,0.0,0.0,0.0,0.0,0.0,-2.9627,-3.1765,-3.3263,-3.3319,-3.2964,-3.2547,-3.2122,-3.0972,-2.9038,-2.6121,0.0,0.0,0.0,0.0,0.0,0.0,0.0,0.0,0.0,0.0,0.0,0.0,0.0,0.0,0.0,0.0,0.0,0.0,0.0,0.0,0.0,0.0,0.0,0.0,0.0,0.0,0.0,0.0,0.0,0.0,0.0,0.0,0.0,0.0,0.0,0.0,0.0,0.0,0.0,0.0,0.0,0.0,0.0,0.0,0.0,0.0,0.0,0.0,0.0,0.0,0.0,0.0,0.0,0.0,0.0,0.0,0.0,0.0,0.0,0.0,0.0,0.0,0.0,0.0,0.0,0.0,0.0,0.0,0.0,0.0,0.0,0.0,0.0,0.0,0.0,0.0,0.0,0.0,0.0,0.0,0.0,0.0,0.0,0.0,0.0,0.0,0.0,0.0,0.0,0.0,0.0,0.0,0.0,0.0,0.0,0.0,0.0,0.0,0.0,0.0,0.0,0.0,-2.8888,-3.0594,-3.1918,-3.2386,-3.2045,-3.1631,-3.1274,-3.0119,-2.8252,-2.547,0.0,0.0,0.0,0.0,0.0,0.0,0.0,0.0,0.0,0.0,0.0,0.0,0.0,0.0,0.0,0.0,0.0,0.0,0.0,0.0,0.0,0.0,0.0,0.0,0.0,0.0,0.0,0.0,0.0,0.0,0.0,0.0,0.0,0.0,0.0,0.0,0.0,0.0,0.0,0.0,0.0,0.0,0.0,0.0,0.0,0.0,0.0,0.0,0.0,0.0,0.0,0.0,0.0,0.0,0.0,0.0,0.0,0.0,0.0,0.0,-3.1914,0.0,0.0,0.0,0.0,0.0,0.0,0.0,0.0,0.0,0.0,0.0,0.0,0.0,0.0,0.0,0.0,0.0,0.0,0.0,0.0,0.0,0.0,0.0,0.0,0.0,0.0,0.0,0.0,0.0,0.0,0.0,0.0,0.0,0.0,0.0,0.0,0.0,0.0,0.0,0.0,0.0,-2.8934,-3.0227,-3.1156,-3.1257,-3.0569,-3.0097,-2.9981,-2.8887,-2.7375,-2.54,-2.4108,0.0,0.0,0.0,0.0,0.0,0.0,0.0,0.0,0.0,0.0,0.0,0.0,0.0,0.0,0.0,0.0,0.0,0.0,0.0,0.0,0.0,0.0,0.0,0.0,0.0,0.0,0.0,0.0,0.0,0.0,0.0,0.0,0.0,0.0,0.0,0.0,0.0,0.0,0.0,0.0,0.0,0.0,0.0,0.0,0.0,0.0,0.0,0.0,0.0,0.0,0.0,0.0,0.0,0.0,0.0,0.0,0.0,0.0,0.0,0.0,-3.1925,0.0,0.0,0.0,0.0,0.0,0.0,0.0,0.0,0.0,0.0,0.0,0.0,0.0,0.0,0.0,0.0,0.0,0.0,0.0,0.0,0.0,0.0,0.0,0.0,0.0,0.0,0.0,0.0,0.0,0.0,0.0,0.0,0.0,0.0,0.0,0.0,0.0,0.0,0.0,0.0,-2.7871,-2.8943,-2.9773,-3.0012,-2.9435,-2.9018,-2.9051,-2.8288,-2.7064,-2.5346,-2.3979,0.0,0.0,0.0,0.0,0.0,0.0,0.0,0.0,0.0,0.0,0.0,0.0,0.0,0.0,0.0,0.0,0.0,0.0,0.0,0.0,0.0,0.0,0.0,0.0,0.0,0.0,0.0,0.0,0.0,0.0,0.0,0.0,0.0,0.0,0.0,0.0,0.0,0.0,0.0,0.0,0.0,0.0,0.0,0.0,0.0,0.0,0.0,0.0,0.0,0.0,0.0,0.0,0.0,-3.811,-3.8029,-3.7166,-3.771,-3.7204,-3.5824,-3.454,-3.3467,-3.2507,0.0,0.0,0.0,0.0,0.0,0.0,0.0,0.0,0.0,0.0,0.0,0.0,0.0,0.0,0.0,0.0,0.0,0.0,0.0,0.0,0.0,0.0,0.0,0.0,0.0,-3.1285,-3.1376,0.0,0.0,0.0,0.0,0.0,0.0,0.0,0.0,0.0,0.0,0.0,0.0,-2.6904,-2.7683,-2.8362,-2.8718,-2.8397,-2.8127,-2.8174,-2.7845,-2.6966,-2.546,-2.4092,-2.2907,0.0,0.0,0.0,0.0,0.0,0.0,0.0,0.0,0.0,0.0,0.0,0.0,0.0,0.0,0.0,0.0,0.0,0.0,0.0,0.0,0.0,0.0,0.0,0.0,0.0,0.0,0.0,0.0,0.0,0.0,0.0,0.0,-2.8023,-2.873,0.0,0.0,0.0,0.0,0.0,0.0,0.0,0.0,0.0,0.0,0.0,0.0,0.0,-3.6588,-3.6471,-3.8151,-3.8989,-3.8979,-3.9803,-3.9749,-3.8988,-3.9506,-3.8345,-3.5901,-3.6143,0.0,-3.3198,-3.3223,0.0,0.0,0.0,0.0,0.0,0.0,0.0,0.0,0.0,0.0,0.0,0.0,0.0,0.0,0.0,0.0,0.0,0.0,0.0,0.0,0.0,0.0,-3.2117,-3.0936,-3.1026,-3.1272,0.0,-2.9102,-2.7237,-2.7026,0.0,0.0,0.0,0.0,0.0,0.0,0.0,0.0,-2.7681,-2.7566,-2.7474,-2.7517,-2.7173,-2.6944,-2.6944,-2.6877,-2.6571,-2.5924,-2.4742,-2.3528,-2.2353,-2.1758,0.0,0.0,0.0,0.0,0.0,0.0,0.0,0.0,0.0,0.0,0.0,0.0,0.0,0.0,0.0,0.0,0.0,0.0,0.0,0.0,0.0,0.0,0.0,0.0,0.0,0.0,0.0,0.0,0.0,-2.8173,-2.9615,-2.9896,-3.1135,-3.17,0.0,0.0,0.0,0.0,0.0,0.0,0.0,0.0,0.0,-3.499,-3.6913,-3.7913,-3.7913,-3.93,-3.9738,-3.9296,-3.9662,-3.9123,-3.7839,-3.8233,-3.7482,-3.5918,-3.6179,-3.5625,-3.4465,-3.37,-3.3229,-3.2985,0.0,0.0,0.0,0.0,0.0,-3.1409,-3.2496,-3.2642,0.0,0.0,0.0,0.0,0.0,0.0,0.0,0.0,0.0,0.0,0.0,0.0,0.0,-3.1133,-3.0588,-2.9974,-2.9242,-2.8221,-2.727,0.0,-2.5048,-2.3639,-2.2649,0.0,0.0,0.0,0.0,-2.6933,-2.7192,-2.7272,-2.7192,-2.7004,-2.6825,-2.6691,-2.6691,-2.6691,-2.6217,-2.5065,-2.4487,-2.3528,-2.2056,-2.1798,-2.1425,0.0,0.0,0.0,0.0,0.0,0.0,0.0,0.0,0.0,0.0,0.0,0.0,0.0,0.0,0.0,0.0,0.0,0.0,0.0,0.0,0.0,0.0,0.0,0.0,0.0,0.0,0.0,0.0,-2.9703,-3.1312,-3.1499,-3.3492,-3.4433,0.0,0.0,0.0,0.0,0.0,0.0,-3.4076,-3.5514,-3.6329,-3.6329,-3.8071,-3.8992,-3.8992,-3.9924,-4.0101,-3.9506,-3.9377,-3.8507,-3.7031,-3.7072,-3.6543,-3.5595,-3.5781,-3.5653,-3.5212,-3.3975,-3.3979,-3.4617,-3.3768,-3.3262,-3.3026,-3.3245,-3.263,-3.1831,-3.2865,-3.3068,-3.2889,-3.268,0.0,-3.1703,-3.2152,0.0,0.0,0.0,0.0,-3.192,-3.288,0.0,-3.114,-3.0799,-3.03,-2.9296,-2.7193,-2.6529,-2.6062,0.0,-2.4732,-2.404,-2.3055,0.0,0.0,0.0,0.0,-2.6438,-2.6674,-2.6971,-2.7019,-2.6725,-2.6691,-2.6691,-2.6691,-2.6691,-2.6116,-2.4742,-2.4386,-2.3569,-2.2173,-2.2014,-2.1874,-2.1695,0.0,0.0,0.0,0.0,0.0,0.0,0.0,0.0,0.0,0.0,0.0,0.0,0.0,0.0,0.0,0.0,0.0,0.0,0.0,0.0,0.0,0.0,0.0,0.0,0.0,0.0,0.0,0.0,0.0,-3.4192,-3.5654,0.0,0.0,0.0,0.0,-3.5675,-3.5437,-3.5525,-3.6121,-3.719,-3.7783,-3.7783,-3.893,-3.9566,-3.9566,-3.9924,-4.0101,-4.0043,-3.9547,-3.8815,-3.7916,-3.7376,-3.6241,-3.4787,-3.5287,-3.524,-3.4749,-3.4781,-3.4764,-3.4694,-3.4636,-3.3942,-3.3082,-3.3864,-3.3445,-3.2669,-3.3485,-3.376,-3.3733,-3.3715,-3.301,-3.2214,-3.2504,-3.2265,0.0,0.0,-3.1885,-3.2276,-3.1531,-3.1278,-3.0896,-2.9756,-3.0336,-3.006,-2.6327,-2.4324,-2.3589,0.0,-2.4466,-2.4153,-2.365,0.0,-2.4203,-2.4199,-2.5255,-2.6175,-2.6657,-2.6725,-2.6725,-2.6691,-2.6691,-2.6691,-2.6691,-2.6691,-2.6454,-2.5947,-2.4843,-2.3925,-2.332,-2.2879,-2.2338,-2.171,-2.2278,0.0,0.0,0.0,0.0,0.0,0.0,0.0,0.0,0.0,0.0,0.0,0.0,0.0,0.0,0.0,0.0,0.0,0.0,0.0,0.0,0.0,0.0,0.0,0.0,0.0,0.0,0.0,0.0,-3.5165,-3.66,0.0,-3.6615,-3.5951,-3.5741,-3.6122,-3.6537,-3.684,-3.7066,-3.7937,-3.8401,-3.8401,-3.8968,-3.9264,-3.9264,-3.9622,-3.9226,-3.8167,-3.7984,-3.7186,-3.5855,-3.544,-3.5033,-3.4713,-3.491,-3.4958,-3.4963,-3.5198,-3.5248,-3.5207,-3.5016,-3.4604,-3.4095,-3.4176,-3.3833,-3.3421,-3.3697,-3.3807,-3.3807,-3.3807,-3.355,-3.3248,-3.3348,-3.3103,-3.2673,-3.2224,-3.2305,-3.1551,-2.7394,-2.6317,-2.6204,-2.5762,-2.6014,-2.5835,-2.3802,-2.2498,-2.1869,-2.2463,-2.2801,-2.275,-2.1875,-2.2549,-2.3259,-2.3588,-2.4705,-2.5799,-2.659,-2.6691,-2.6691,-2.6691,-2.6691,-2.6691,-2.6691,-2.6691,-2.6149,-2.4912,-2.4418,-2.3844,-2.2991,-2.2791,-2.2757,-2.2921,-2.2757,-2.2233,0.0,0.0,0.0,0.0,0.0,0.0,0.0,0.0,0.0,0.0,0.0,0.0,0.0,0.0,0.0,0.0,0.0,0.0,0.0,0.0,0.0,0.0,0.0,0.0,0.0,0.0,-3.5791,-3.6007,-3.7199,-3.7843,-3.7452,-3.6988,-3.6911,-3.7365,-3.7698,-3.79,-3.79,-3.8414,-3.8707,-3.8707,-3.8961,-3.9063,-3.8961,-3.912,-3.8573,-3.737,-3.6895,-3.6149,-3.509,-3.4599,-3.4508,-3.4713,-3.4812,-3.4944,-3.5122,-3.5383,-3.5493,-3.5493,-3.5304,-3.507,-3.4793,-3.4489,-3.4171,-3.391,-3.3842,-3.3807,-3.3807,-3.3807,-3.3807,-3.3762,-3.3652,-3.3302,-3.289,-3.2588,-3.2284,-3.0837,-2.5504,-2.3861,-2.3673,-2.3985,-2.3515,-2.2774,-2.1928,-2.1311,-2.0953,-2.1167,-2.1656,-2.1744,-2.0869,-2.1756,-2.276,-2.3213,-2.4356,-2.5561,-2.6573,-2.6691,-2.6691,-2.6691,-2.6691,-2.6691,-2.6691,-2.6691,-2.6064,-2.4622,-2.4344,-2.3824,-2.3065,-2.2787,-2.2966,-2.3595,-2.2996,-2.2562,-2.2338,0.0,0.0,0.0,0.0,0.0,0.0,0.0,0.0,0.0,0.0,0.0,0.0,0.0,0.0,0.0,0.0,0.0,0.0,0.0,0.0,0.0,0.0,0.0,-3.4378,-3.5262,-3.6032,-3.6792,-3.752,-3.7969,-3.7973,-3.8137,-3.8595,-3.9444,-3.898,-3.867,-3.867,-3.8689,-3.8707,-3.8719,-3.8961,-3.8943,-3.8683,-3.8471,-3.8174,-3.7795,-3.6483,-3.5864,-3.5807,-3.5032,-3.4674,-3.4714,-3.4981,-3.5105,-3.5122,-3.5383,-3.5474,-3.5468,-3.5474,-3.532,-3.5051,-3.4774,-3.443,-3.4073,-3.3828,-3.3733,-3.3715,-3.3715,-3.3707,-3.3643,-3.3266,-3.2822,-3.2451,-3.2458,-3.1774,-3.0149,-2.6212,-2.4368,-2.3784,-2.461,-2.3226,-2.1549,-2.1014,-2.0899,-2.0816,-2.0715,-2.1066,-2.1267,-2.0781,-2.173,-2.2732,-2.3213,-2.4356,0.0,-2.6573,-2.6691,-2.6691,-2.6691,-2.6691,-2.6691,-2.6691,-2.6691,-2.628,-2.5297,-2.4585,-2.4029,-2.3651,-2.3038,-2.2966,-2.3595,-2.2996,-2.2981,-2.3595,0.0,0.0,0.0,0.0,0.0,0.0,0.0,0.0,0.0,0.0,0.0,0.0,0.0,0.0,0.0,0.0,0.0,0.0,0.0,0.0,0.0,-3.2321,-3.4,-3.4461,-3.5749,-3.6675,-3.6749,-3.6939,-3.7218,-3.7613,-3.7147,-3.7045,-3.7461,-3.7865,-3.8034,-3.7838,-3.8377,-3.8773,-3.8971,-3.8884,-3.8578,-3.8126,-3.7886,-3.71,-3.5782,-3.5409,-3.4944,-3.4377,-3.4148,-3.4302,-3.4694,-3.4774,-3.5016,-3.5403,-3.5479,-3.5141,-3.4622,-3.5257,-3.5223,-3.4718,-3.4017,-3.3088,-3.2176,-3.2095,-3.1889,-3.1701,-3.1701,-3.1849,-3.2043,-3.192,-3.1553,-3.1184,-3.1133,-2.977,-2.7756,-2.5433,-2.3769,-2.2833,-2.3198,-2.213,-2.099,-2.0832,-2.0437,-2.011,-2.0062,-2.0162,-2.0213,-2.0062,-2.1093,-2.2259,-2.3139,-2.4356,0.0,-2.6573,-2.6691,-2.6691,-2.6691,-2.6691,-2.6691,-2.6691,-2.6691,-2.6436,-2.5815,-2.4786,-2.4166,-2.4168,-2.3247,-2.2966,-2.3595,-2.2996,-2.2981,0.0,0.0,0.0,0.0,0.0,0.0,0.0,0.0,0.0,0.0,0.0,0.0,0.0,0.0,0.0,0.0,0.0,0.0,0.0,0.0,0.0,0.0,-3.306,-3.4612,-3.4921,-3.5791,-3.6474,-3.667,-3.6411,-3.6449,-3.7092,-3.6646,-3.6502,-3.7005,-3.7371,-3.7499,-3.7336,-3.7774,-3.8104,-3.8272,-3.8111,-3.7827,-3.7403,-3.6922,-3.6104,-3.499,-3.4642,-3.4266,-3.3788,-3.3928,-3.4237,0.0,-3.4434,-3.4552,-3.493,-3.4564,-3.4103,0.0,0.0,0.0,0.0,0.0,-3.2257,-3.1384,-3.1232,-3.1048,-3.0856,-3.0697,-3.0779,-3.0902,-3.0712,-3.0466,-3.0093,-2.9382,-2.8223,-2.6737,-2.4759,-2.3318,-2.238,-2.2321,-2.1356,-2.0456,-2.0395,-1.9876,-1.9547,-1.9761,0.0,0.0,-2.0194,-2.1051,-2.2154,-2.3495,-2.4547,-2.5561,0.0,-2.6691,-2.6691,-2.6691,-2.6691,-2.6691,-2.6691,-2.6691,0.0,0.0,0.0,-2.4788,-2.4415,-2.3572,0.0,0.0,0.0,0.0,0.0,0.0,0.0,0.0,-2.7842,-2.8378,0.0,0.0,0.0,0.0,0.0,0.0,0.0,0.0,0.0,0.0,0.0,0.0,0.0,0.0,0.0,0.0,-3.3497,-3.4828,-3.5349,-3.5435,-3.567,-3.6348,-3.5699,-3.5526,-3.6353,-3.6192,-3.6382,-3.7165,-3.7086,-3.7012,-3.6968,0.0,0.0,0.0,0.0,-3.6915,-3.6609,-3.582,-3.5254,-3.4844,-3.4064,-3.3715,-3.3788,-3.3951,-3.4259,-3.4597,-3.4014,-3.3907,-3.4095,-3.3244,-3.2852,-3.2852,-3.3686,-3.3467,-3.2626,-3.218,-3.1635,0.0,0.0,0.0,0.0,-3.0149,-3.0004,-2.9951,-2.9534,-2.9367,-2.9025,-2.7578,-2.7049,-2.6391,-2.4168,-2.295,-2.22,-2.1697,-2.0704,-1.9843,-1.9763,-1.9309,-1.907,-1.9623,-2.0215,-2.0647,-2.0793,-2.1356,-2.2352,-2.3891,-2.4753,0.0,-2.6505,-2.6657,-2.6691,-2.6691,0.0,0.0,-2.6691,-2.6691,-2.6505,-2.612,-2.5961,-2.5486,-2.4552,-2.3921,-2.3681,-2.3752,-2.3709,-2.463,-2.6458,-2.7147,-2.8428,-3.0145,-2.9062,-2.9154,0.0,0.0,0.0,0.0,0.0,0.0,0.0,0.0,0.0,0.0,0.0,0.0,0.0,0.0,0.0,-3.2675,-3.4255,-3.5174,-3.4564,-3.4462,-3.4507,-3.4674,-3.393,-3.3737,-3.4603,-3.4653,-3.486,-3.5505,-3.612,-3.6349,-3.6144,-3.6764,0.0,-3.7414,-3.6994,-3.6531,-3.6064,-3.5416,-3.4751,-3.4027,0.0,0.0,-3.377,-3.3188,-3.3426,-3.4255,-3.3728,-3.3635,-3.383,-3.3171,-3.2526,-3.1994,-3.2579,-3.2216,-3.1328,-3.1014,-3.0287,-2.9452,-2.9405,-2.8977,-2.8472,-2.8397,-2.8342,-2.8288,-2.8185,-2.7887,0.0,-2.7189,-2.606,-2.4704,-2.3773,-2.2685,-2.1697,-2.1113,-2.008,-1.9193,-1.9158,-1.8744,-1.8523,-1.9071,-1.9271,-1.9627,-2.0567,-2.1723,-2.2741,-2.3518,-2.453,-2.5411,-2.6033,-2.6487,-2.6691,-2.6691,-2.6691,-2.6691,-2.6691,-2.6691,-2.6657,-2.659,-2.5783,-2.5259,-2.5051,-2.4116,-2.3991,-2.4855,-2.4471,-2.4932,-2.6259,-2.7469,-2.8523,-2.942,-3.0252,-3.074,0.0,0.0,0.0,0.0,0.0,0.0,0.0,0.0,0.0,0.0,0.0,-2.9041,-2.9386,0.0,-3.2688,-3.2958,-3.4066,-3.4743,-3.427,-3.3468,-3.3103,-3.3506,-3.316,-3.3064,-3.3506,-3.3545,-3.3851,-3.4576,-3.5021,-3.5376,-3.5678,-3.608,-3.629,-3.6288,-3.592,-3.5473,-3.5049,-3.4215,-3.3605,-3.3201,-3.2375,-3.221,-3.2577,-3.2173,-3.2373,-3.2956,-3.2406,-3.2241,-3.2343,-3.1603,-3.1121,-3.0871,-3.1042,-3.08,-3.0336,-3.0208,-2.9667,-2.8952,-2.8773,-2.836,-2.7869,-2.7666,-2.7437,-2.7249,-2.7249,-2.6918,-2.6484,-2.6227,-2.5298,-2.421,-2.3318,-2.2395,-2.1485,-2.062,-1.9471,-1.8618,-1.8618,-1.8401,-1.8345,-1.8891,-1.9458,-2.0131,-2.0901,-2.1884,-2.2724,-2.3355,-2.3927,-2.4579,-2.5294,-2.561,-2.5832,-2.6117,-2.615,-2.615,-2.615,-2.615,-2.6302,-2.6674,-2.6016,-2.5615,-2.5615,-2.4831,-2.4657,-2.5182,-2.495,-2.5417,-2.6626,-2.7334,-2.8125,-2.9104,-3.0162,-3.0852,0.0,0.0,0.0,0.0,0.0,0.0,0.0,0.0,-2.8522,-2.8769,-2.9355,-2.9882,-2.9977,-3.1753,-3.3165,-3.3016,-3.3682,-3.4083,-3.3757,-3.241,-3.1641,-3.2102,-3.216,-3.2237,-3.241,-3.241,-3.2833,-3.3872,-3.3949,-3.4257,-3.4968,-3.5161,-3.5149,-3.4923,-3.4605,-3.4327,-3.405,-3.2927,-3.2375,-3.2375,-3.1549,-3.1237,-3.1384,-3.1237,-3.1389,-3.1678,-3.1147,-3.0863,-3.0763,-3.0047,-2.9829,-2.9905,-2.9593,-2.9547,-2.9643,-2.9643,-2.9375,-2.8947,-2.8637,-2.8255,-2.7876,-2.7474,-2.7036,-2.6691,-2.6691,-2.6297,-2.5762,-2.5335,-2.4736,-2.4017,-2.295,-2.22,-2.142,-2.0409,-1.9237,-1.8341,-1.8341,-1.8239,-1.8342,-1.8866,-1.981,-2.0633,-2.1,-2.1606,-2.2341,-2.3172,-2.3396,-2.3719,-2.4488,-2.4677,-2.4896,-2.5357,-2.5389,-2.5439,-2.5592,-2.5609,-2.5913,-2.664,-2.6262,-2.6049,-2.612,-2.5524,-2.5297,-2.5486,-2.5411,-2.5907,-2.6998,-2.7147,-2.7768,-2.8772,-2.9533,-3.0277,-2.4858,-2.5244,-2.5648,-2.6447,-2.6724,-2.721,0.0,0.0,-2.9595,-3.0449,-3.0684,-3.0955,-3.1591,-3.2527,-3.3165,-3.3016,-3.3682,-3.368,-3.2199,-3.116,-3.0294,-2.9602,-2.9525,-2.9833,-3.0602,-3.0667,-3.1352,-3.2929,-3.3045,-3.3083,-3.3199,-3.391,-3.4334,-3.4307,-3.3802,-3.3525,-3.3486,-3.2201,-3.1531,-3.1513,-3.0723,-3.0705,-3.1366,-3.065,-3.0748,-3.1427,-3.1068,-3.0593,-3.0102,-3.0007,-2.9877,-2.9672,-2.8917,-2.895,-2.9434,-2.9434,-2.9246,-2.9007,-2.8935,-2.8596,-2.811,-2.7644,-2.712,-2.6691,-2.6691,-2.6052,-2.5297,-2.5221,-2.4471,-2.3551,-2.2875,-2.2187,-2.1522,-2.0868,-1.9738,-1.882,-1.882,-1.8426,-1.827,-1.8811,-1.933,-1.9752,-1.9884,-2.0596,-2.1595,-2.2861,-2.3409,-2.3701,-2.3802,-2.4245,-2.4563,-2.4611,-2.4611,-2.4881,-2.5541,-2.5609,-2.5913,-2.664,-2.6262,-2.6191,-2.6624,-2.5709,-2.5635,-2.6505,-2.6104,-2.6189,-2.6742,-2.7382,-2.7788,-2.7941,-2.8738,-2.9516,-2.4992,-2.5388,-2.5592,-2.5993,-2.6517,-2.7116,-2.7866,-2.8434,-2.8904,-2.9316,-2.9394,-2.9648,-3.0443,-3.1211,-3.1819,0.0,-3.2578,-3.2314,-3.1121,-3.0198,-2.914,-2.7794,-2.8082,-2.8736,-2.9563,-2.964,-3.0352,-3.2064,-3.2199,-3.241,-3.2872,-3.3256,-3.3358,-3.3206,-3.2978,-3.2751,-3.2475,-3.1452,-3.0854,-3.0687,-2.9898,-2.9696,-2.9989,-2.9659,-2.977,-3.0228,-3.0088,-2.9945,-2.9813,-2.9696,-2.9288,-2.8727,-2.8277,-2.7953,-2.7832,-2.8422,-2.878,-2.9007,-2.9014,-2.856,-2.7975,-2.7626,-2.7137,-2.6691,-2.6691,-2.621,-2.5652,-2.5652,-2.4894,-2.3933,-2.3318,-2.2425,-2.1483,-2.0517,-1.9582,-1.8824,-1.8507,-1.8509,-1.8712,-1.92,-1.9692,-2.0196,-2.0699,-2.1118,-2.1611,-2.2485,-2.2671,-2.28,-2.303,-2.3256,-2.3524,-2.3819,-2.3849,-2.4154,-2.4898,-2.456,-2.4628,-2.5355,-2.5647,-2.5849,-2.6065,-2.6064,-2.628,-2.6691,-2.6505,-2.6505,-2.6691,-2.7012,-2.7165,-2.7182,-2.796,-2.8484,-2.5068,-2.5364,-2.5508,-2.5846,-2.6451,-2.7049,-2.7283,-2.7832,-2.8301,-2.8301,-2.8301,-2.8496,-2.9121,-3.0007,-3.0748,-3.1125,-3.1292,-3.1053,-3.016,-2.9102,-2.8044,-2.7063,-2.7294,-2.7948,-2.8986,-2.9102,-2.9717,-3.1237,-3.1352,-3.1602,-3.2179,-3.2449,-3.248,-3.2301,-3.2203,-3.2005,-3.167,-3.0742,-3.0182,-2.9959,-2.9297,-2.8994,-2.8994,-2.8994,-2.9156,-2.9394,-2.9152,-2.9119,-2.9231,-2.8857,-2.8311,-2.7638,-2.7267,-2.6924,-2.6652,-2.7172,-2.7925,-2.8695,-2.8912,-2.855,-2.7918,-2.7622,-2.725,-2.6841,-2.6488,-2.6066,-2.5615,-2.5417,-2.4719,-2.3958,-2.3733,-2.2622,-2.1418,-2.0752,-1.9847,-1.8993,-1.8634,-1.8855,-1.9229,-1.9579,-1.9989,-2.0501,-2.1134,-2.146,-2.1718,-2.2061,-2.209,-2.2198,-2.2481,-2.2512,-2.2651,-2.3059,-2.3105,-2.3393,-2.412,-2.3697,-2.3697,-2.4455,-2.5,-2.5304,-2.5304,-2.5812,-2.6082,-2.6082,-2.6285,-2.6387,-2.6387,-2.659,-2.6691,-2.6708,-2.7249,-2.7621,-2.5104,-2.5154,-2.5467,-2.65,-2.6825,-2.7127,-2.7969,-2.8238,-2.8301,-2.8301,-2.8301,-2.8301,-2.832,-2.9635,-3.0412,-2.9516,-3.0032,-3.0202,-2.9259,-2.7717,-2.6967,-2.7775,-2.714,-2.7294,0.0,-2.9102,-2.9467,-3.0359,-3.0436,-3.0436,-3.0456,-3.1275,-3.1737,-3.1725,-3.147,-3.1329,-3.1314,-3.0058,-2.9429,-2.9429,-2.9152,-2.8994,-2.8994,-2.8994,-2.9156,-2.9357,-2.85,-2.8146,-2.8072,-2.7289,-2.6858,-2.6557,-2.5788,-2.5933,-2.6521,-2.5752,-2.6486,-2.7948,-2.8737,-2.863,-2.812,-2.763,-2.749,-2.7241,-2.6009,-2.5263,-2.4691,-2.3983,-2.343,-2.3199,-2.3904,-2.2703,-2.1481,-2.2152,-2.0953,-1.9669,-1.9639,-1.9639,-1.969,-1.9675,-2.0019,-2.0314,-2.0333,-2.1023,-2.1612,-2.1628,-2.1991,-2.2316,-2.2316,-2.2316,-2.2316,-2.2344,-2.2344,-2.2632,-2.3359,-2.341,-2.3697,-2.4455,-2.4523,-2.454,-2.454,-2.4557,-2.4574,-2.4574,-2.527,-2.5642,-2.5642,-2.6353,-2.6691,-2.6691,-2.6708,-2.7131,-2.4205,-2.4685,-2.5249,-2.5744,-2.5926,-2.6057,-2.6398,-2.6488,-2.6517,-2.6562,-2.6562,-2.6758,-2.7324,-2.833,-2.909,-2.9263,-2.9497,-2.9321,-2.8431,-2.7813,-2.7351,-2.7063,-2.8275,0.0,-2.9102,0.0,0.0,-3.0321,-3.0398,-3.0398,-3.0398,-3.0509,-3.0557,-3.0557,-3.0361,-3.0163,-3.0039,-2.9604,-2.931,-2.9134,-2.8493,-2.8209,-2.8191,-2.7658,-2.7463,-2.7532,-2.7381,-2.7231,-2.7091,-2.6953,-2.6469,-2.5768,-2.5513,-2.5236,-2.4979,-2.4704,-2.5273,-2.6371,-2.7523,-2.7393,-2.6637,-2.6028,-2.6328,-2.6854,-2.6161,-2.6185,-2.6262,-2.526,-2.4579,-2.4135,-2.3909,-2.2788,-2.1752,-2.1688,-2.089,-2.0019,-1.9747,-1.9909,-2.0193,-2.0499,-2.0878,-2.1259,-2.1568,-2.1869,-2.2061,-2.2061,-2.2209,-2.231,-2.231,-2.231,-2.231,-2.231,-2.231,-2.2462,-2.2907,-2.2924,-2.3027,-2.3285,-2.3818,-2.411,-2.411,-2.4574,-2.4849,-2.4849,-2.506,-2.5333,-2.5609,-2.5862,-2.6218,-2.6691,-2.6691,-2.6826,-2.335,-2.3708,-2.4064,-2.4331,-2.4444,-2.4603,-2.5047,-2.5154,-2.5267,-2.5625,-2.5683,-2.5837,-2.6403,-2.7187,-2.7979,-2.8743,-2.8843,-2.8702,-2.8415,-2.8095,-2.7794,-2.7525,-2.8948,-2.9967,0.0,0.0,0.0,-3.0359,-3.0398,-3.0275,-2.9948,-2.9704,-2.9441,-2.9155,-2.9225,-2.9059,-2.8652,-2.8857,-2.8674,-2.8132,-2.7622,-2.7365,-2.7346,-2.6851,-2.6612,-2.6594,-2.6429,-2.6298,-2.6156,-2.6004,-2.5559,-2.498,-2.498,-2.4649,-2.419,-2.419,-2.452,-2.5144,-2.6279,-2.6481,-2.6108,-2.5526,-2.5833,-2.6349,-2.5849,-2.6078,-2.6243,-2.5142,-2.4558,-2.4198,-2.3717,-2.2719,-2.1859,-2.1816,-2.1138,-2.0483,-2.0208,-2.0364,-2.0649,-2.0926,-2.1213,-2.1538,-2.1974,-2.218,-2.231,-2.231,-2.231,-2.231,-2.231,-2.231,-2.2349,-2.2426,-2.2436,-2.2554,-2.2848,-2.2873,-2.2873,-2.2873,-2.3362,-2.3632,-2.3632,-2.4103,-2.4311,-2.4175,-2.4452,-2.4694,-2.4814,-2.5084,-2.5439,-2.5896,-2.5896,-2.5896,-2.2501,-2.2323,-2.2079,-2.2502,-2.2648,-2.2978,-2.4044,-2.4354,-2.4648,-2.5527,-2.5637,-2.5579,-2.5576,-2.6339,-2.719,-2.7969,-2.8129,-2.841,-2.9117,-2.8502,-2.8268,0.0,0.0,0.0,0.0,0.0,0.0,-3.0398,0.0,-3.0044,-2.9198,-2.8932,-2.8425,-2.7681,-2.8146,-2.8034,-2.7277,-2.7773,-2.7544,-2.6612,-2.6557,-2.6539,-2.6539,-2.6502,-2.6463,-2.6408,-2.5658,-2.5328,-2.5273,-2.4502,-2.419,-2.419,-2.419,-2.419,-2.419,-2.419,-2.419,-2.43,-2.5072,-2.5841,-2.6402,-2.6041,-2.5942,-2.5841,-2.517,-2.4999,-2.4793,-2.3714,-2.3393,-2.3393,-2.3342,-2.2504,-2.1823,-2.2483,-2.1825,-2.1039,-2.0991,-2.1039,-2.1023,-2.1023,-2.1055,-2.1197,-2.1552,-2.2003,-2.231,-2.231,-2.231,-2.231,-2.231,-2.231,-2.2426,-2.2669,-2.2721,-2.2873,-2.3189,-2.323,-2.323,-2.323,-2.323,-2.323,-2.323,-2.323,-2.3069,-2.2772,-2.351,-2.3736,-2.3451,-2.4147,-2.4503,-2.4537,-2.4537,-2.4537,-2.0926,-2.1424,-2.1912,-2.246,-2.2604,-2.291,-2.4034,-2.4316,-2.4577,-2.5455,-2.5489,-2.5362,-2.531,-2.6547,0.0,-2.7839,-2.8555,0.0,-2.9316,-2.9162,0.0,-2.9304,0.0,-3.1033,-3.084,-3.1152,0.0,0.0,-3.0398,-3.0302,-3.0083,-2.9122,-2.8468,-2.8278,-2.7512,-2.6985,-2.6782,-2.6905,-2.6841,-2.6594,-2.5988,-2.5695,-2.5676,-2.5089,-2.4677,-2.4436,-2.4496,-2.4366,-2.4127,-2.4185,-2.419,-2.419,-2.419,-2.419,-2.419,-2.419,-2.419,-2.4226,-2.4428,-2.463,-2.4794,-2.4677,-2.5059,-2.5408,-2.4701,-2.4884,-2.5102,-2.3784,-2.3393,-2.3274,-2.2733,-2.2343,-2.2082,-2.1919,-2.1653,-2.1368,-2.1055,-2.1244,-2.143,-2.143,-2.1735,-2.202,-2.2106,-2.2209,-2.231,-2.231,-2.2463,-2.2527,-2.2338,-2.249,-2.2608,-2.2695,-2.2923,-2.3212,-2.3544,-2.3566,-2.3566,-2.3566,-2.3566,-2.3566,-2.3566,-2.3566,-2.3522,-2.3455,-2.3651,-2.3856,-2.4069,-2.4261,-2.4663,-2.523,-2.4977,-2.4861,-1.9584,-2.0138,-2.0623,-2.1092,-2.1311,-2.1797,-2.3334,-2.3708,-2.405,-2.5193,-2.5313,-2.5166,-2.5051,-2.6216,-2.7323,0.0,0.0,0.0,-2.9909,-2.9946,-2.9925,0.0,-3.0717,0.0,-3.1088,-3.1129,-3.1113,0.0,-3.0621,-3.0083,-2.9352,-2.854,-2.7725,-2.6896,-2.6451,-2.6164,-2.6062,-2.5713,-2.5548,-2.5548,-2.5089,-2.4869,-2.485,-2.441,-2.4016,-2.3714,0.0,-2.3795,-2.3522,-2.3837,-2.3976,-2.3996,-2.4151,-2.419,-2.419,-2.419,-2.419,-2.419,-2.419,-2.419,-2.419,-2.419,-2.4502,-2.4825,-2.4598,-2.4726,-2.4795,-2.3863,-2.3493,-2.3224,-2.2496,-2.231,-2.2237,-2.1957,-2.1899,-2.184,-2.1615,-2.1735,-2.1899,-2.1899,-2.2106,-2.231,-2.231,-2.2415,-2.249,-2.249,-2.2712,-2.2865,-2.2695,-2.2832,-2.2972,-2.3117,-2.3323,-2.3566,-2.3896,-2.3917,-2.3917,-2.3917,-2.3917,-2.3917,-2.3917,-2.3917,-2.3837,-2.3692,-2.3692,-2.3737,-2.3819,-2.3819,-2.4067,-2.4484,-2.4305,-2.4226,-1.8266,-1.8519,-1.869,-1.9095,-1.9419,-2.0234,-2.241,-2.2909,-2.3358,-2.4879,-2.5111,-2.4992,-2.4803,-2.5643,-2.664,-2.7597,0.0,-2.9648,-3.0575,-3.0673,-3.0633,-3.0633,-3.0623,-3.084,-3.1424,-3.0787,-3.0578,-3.1153,-3.0498,-2.9478,-2.8099,-2.7612,-2.6569,-2.4787,-2.5235,-2.5412,-2.5237,-2.4538,-2.419,-2.419,-2.419,-2.419,-2.419,-2.419,-2.3996,-2.3649,0.0,0.0,-2.3165,-2.35,-2.3631,-2.3671,-2.3996,-2.4113,-2.4151,-2.417,-2.419,-2.419,-2.419,-2.419,-2.419,-2.419,-2.419,-2.426,-2.4545,-2.4427,-2.4091,-2.3832,-2.3511,-2.3105,-2.2479,-2.231,-2.231,-2.231,-2.231,-2.231,-2.231,-2.231,-2.231,-2.231,-2.231,-2.231,-2.231,-2.25,-2.266,-2.2695,-2.2996,-2.323,-2.3259,-2.3277,-2.3392,-2.3671,-2.3735,-2.3896,-2.417,-2.419,-2.419,-2.419,-2.419,-2.419,-2.419,-2.419,-2.4074,-2.3774,-2.3774,-2.361,-2.3346,-2.3346,-2.3346,-2.3346,-2.33,-2.3277,-1.6462,-1.6553,-1.672,-1.7873,-1.8279,-1.919,-2.2201,-2.2693,0.0,-2.4755,-2.4968,-2.4797,-2.4595,-2.5378,-2.6374,-2.7316,-2.8555,-2.9694,-3.0572,-3.0781,-3.0856,0.0,-3.0743,-3.0451,-2.9874,-2.9629,0.0,0.0,0.0,-2.8472,-2.8638,-2.7134,-2.5678,-2.4358,-2.4413,-2.443,-2.441,-2.4263,-2.419,-2.419,-2.419,-2.419,-2.419,-2.419,-2.3876,-2.33,0.0,0.0,-2.2822,-2.3141,-2.33,-2.3323,-2.3671,-2.3795,-2.3816,-2.4094,-2.419,-2.419,-2.419,-2.419,-2.419,-2.419,-2.419,-2.4169,-2.3958,-2.3651,-2.3312,-2.3006,-2.2706,-2.2462,-2.2344,-2.231,-2.231,-2.231,-2.231,-2.231,-2.231,-2.231,-2.231,-2.231,-2.231,-2.231,-2.231,-2.2349,-2.2436,-2.2686,-2.2996,-2.33,-2.3566,-2.361,-2.3649,-2.3692,-2.3955,-2.4151,-2.4208,-2.419,-2.419,-2.419,-2.419,-2.419,-2.419,-2.419,-2.417,-2.4113,-2.4113,-2.4094,-2.4016,-2.4016,-2.4016,-2.4016,-2.3735,-2.361,-1.4612,-1.5117,-1.5661,-1.6366,-1.7362,-1.8804,-2.1333,-2.2153,-2.2838,-2.436,-2.4514,-2.4321,-2.4118,-2.493,-2.5874,-2.6613,-2.7721,-2.9039,-3.0534,-3.0417,-3.0525,-3.1465,-3.1111,-3.0454,-2.9535,-2.9382,-2.8955,0.0,0.0,-2.7392,-2.7647,-2.6222,-2.5064,-2.4375,-2.4247,-2.419,-2.419,-2.419,-2.419,-2.419,-2.419,-2.419,-2.419,-2.4016,-2.3671,-2.3189,-2.3189,0.0,-2.2527,-2.2815,-2.2947,-2.2996,-2.35,-2.3692,-2.3735,-2.4074,-2.419,-2.419,-2.419,-2.419,-2.419,-2.419,-2.419,-2.417,-2.4016,-2.3588,-2.3165,-2.3021,-2.2643,-2.231,-2.231,-2.231,-2.231,-2.231,-2.231,-2.231,-2.231,-2.231,-2.231,-2.231,-2.231,-2.231,-2.231,-2.2544,-2.2807,-2.2947,-2.3392,-2.3774,-2.3937,-2.3976,-2.3976,-2.3976,-2.4094,-2.419,-2.419,-2.419,-2.419,-2.419,-2.419,-2.419,-2.419,-2.419,-2.419,-2.419,-2.419,-2.419,-2.419,-2.419,-2.419,-2.4208,-2.4054,-2.3976,-1.2678,-1.3634,-1.4523,-1.468,-1.6249,-1.8329,-2.0405,-2.1515,-2.2528,-2.4016,-2.4147,-2.3929,-2.3635,-2.4335,-2.5153,0.0,-2.6883,-2.8336,-3.0478,-3.018,-3.0353,-3.1992,-3.1406,0.0,-2.9333,-2.9191,0.0,0.0,0.0,0.0,-2.6209,-2.527,-2.4639,-2.4426,-2.4284,-2.419,-2.419,-2.419,-2.419,-2.419,-2.419,-2.419,-2.419,-2.3917,-2.3588,-2.3189,-2.2923,0.0,0.0,-2.2527,-2.2625,-2.2686,-2.3346,-2.3588,-2.3649,-2.4054,-2.419,-2.419,-2.419,-2.419,-2.419,-2.419,-2.419,-2.419,-2.4113,-2.3671,-2.3189,-2.3135,-2.2738,-2.231,-2.231,-2.231,-2.231,-2.231,-2.231,-2.231,-2.231,-2.231,-2.231,-2.231,-2.231,-2.231,-2.231,-2.2747,-2.3117,-2.3189,-2.3714,-2.4113,-2.419,-2.419,-2.419,-2.419,-2.419,-2.419,-2.419,-2.419,-2.419,-2.419,-2.419,-2.419,-2.419,-2.419,-2.419,-2.419,-2.419,-2.419,-2.419,-2.419,-2.419,-2.419,-2.419,-2.419,-1.07,-1.1689,-1.2599,-1.272,-1.4591,-1.7106,-1.9826,-2.0801,-2.174,-2.3948,-2.4176,-2.3852,-2.3351,-2.3468,-2.4089,-2.5349,0.0,-2.8065,-3.0372,-3.0584,-3.0919,-3.207,0.0,0.0,-2.8479,-2.8373,0.0,0.0,0.0,0.0,-2.4969,-2.4676,-2.4445,-2.4228,-2.4209,-2.419,-2.419,-2.419,-2.419,-2.419,-2.419,-2.419,-2.419,-2.417,-2.3795,-2.3189,0.0,0.0,0.0,-2.2338,-2.2349,-2.2388,-2.3007,-2.3253,-2.3305,-2.3958,-2.419,-2.419,-2.419,-2.419,-2.419,-2.419,-2.419,-2.4151,-2.3837,-2.35,-2.3159,-2.29,-2.2588,-2.231,-2.231,-2.231,-2.231,-2.231,-2.231,-2.231,-2.231,-2.231,-2.231,-2.231,-2.231,-2.231,-2.231,-2.2554,-2.2848,-2.3141,-2.3522,-2.3876,-2.417,-2.419,-2.419,-2.419,-2.419,-2.419,-2.419,-2.419,-2.419,-2.419,-2.419,-2.419,-2.419,-2.419,-2.419,-2.419,-2.419,-2.419,-2.419,-2.419,-2.419,-2.419,-2.419,-2.419,-0.8739,-1.0082,-1.1365,-1.1451,-1.4341,-1.7593,-1.9292,-2.0854,-2.2356,-2.3746,-2.3762,-2.332,-2.2669,-2.2803,-2.327,-2.4034,-2.4901,-2.6439,-2.9282,-2.9726,-3.0328,-3.1847,-3.1702,0.0,0.0,0.0,0.0,0.0,0.0,0.0,-2.4943,-2.4771,-2.4575,-2.4393,-2.4247,-2.419,-2.419,-2.419,-2.4094,-2.3896,-2.3896,-2.3795,-2.3588,-2.3427,-2.32,-2.2898,0.0,0.0,0.0,-2.231,-2.231,-2.2349,-2.2965,-2.3189,-2.3277,-2.3937,-2.419,-2.419,-2.419,-2.419,-2.419,-2.419,-2.4074,-2.3858,-2.3735,-2.3477,-2.3159,-2.2815,-2.2517,-2.231,-2.231,-2.231,-2.231,-2.231,-2.231,-2.231,-2.231,-2.231,-2.231,-2.231,-2.2426,-2.2537,-2.2537,-2.2965,-2.3346,-2.3477,-2.3795,-2.4054,-2.417,-2.4303,-2.4375,-2.4375,-2.4266,-2.419,-2.419,-2.419,-2.419,-2.419,-2.419,-2.419,-2.419,-2.419,-2.419,-2.419,-2.419,-2.419,-2.419,-2.419,-2.419,-2.419,-2.419,-2.419,-0.7586,-0.9268,-1.0991,-1.1292,-1.4697,-1.8329,-1.9674,-2.138,-2.2917,-2.3674,-2.3527,-2.2999,-2.2124,-2.2169,-2.2539,0.0,-2.4057,-2.5799,-2.8909,-2.9699,-3.0623,-3.2448,0.0,-3.1037,0.0,0.0,0.0,0.0,0.0,0.0,0.0,-2.4949,-2.4756,-2.4512,-2.4357,-2.4247,-2.419,-2.419,-2.4016,-2.3692,-2.3692,-2.3522,-2.3189,-2.3007,-2.2832,-2.2695,0.0,0.0,0.0,-2.231,-2.2349,-2.248,-2.2989,-2.3259,-2.3414,-2.3996,-2.419,-2.419,-2.419,-2.419,-2.419,-2.419,-2.4036,-2.3816,-2.3714,-2.3392,-2.2996,-2.2678,-2.2453,-2.231,-2.231,-2.231,-2.231,-2.231,-2.231,-2.231,-2.231,-2.231,-2.231,-2.231,-2.2527,-2.2695,-2.2695,-2.3277,-2.3735,-2.3783,-2.4078,-2.4321,-2.4375,-2.4495,-2.4575,-2.4575,-2.441,-2.4284,-2.4284,-2.4228,-2.419,-2.419,-2.419,-2.419,-2.419,-2.419,-2.419,-2.419,-2.419,-2.419,-2.419,-2.419,-2.419,-2.419,-2.419,-2.419,-0.7567,-0.9456,-1.1585,-1.2469,-1.5559,-1.8988,-2.1266,-2.2366,-2.3086,-2.3761,-2.3675,-2.3122,-2.1828,-2.1612,-2.191,-2.2757,-2.4478,-2.6729,-2.9752,-3.106,-3.2373,0.0,0.0,-3.1142,-2.946,0.0,0.0,0.0,0.0,0.0,0.0,-2.5137,-2.4845,-2.4512,-2.4495,-2.441,-2.419,-2.419,-2.4016,-2.3692,-2.3692,-2.3522,-2.3189,-2.3189,-2.3021,0.0,0.0,0.0,0.0,-2.231,-2.2463,-2.2721,-2.3069,-2.3392,-2.3753,-2.4074,-2.419,-2.419,-2.419,-2.419,-2.419,-2.419,-2.4208,-2.4113,-2.3795,-2.3236,-2.266,-2.2388,-2.231,-2.231,-2.231,-2.231,-2.231,-2.231,-2.231,-2.231,-2.231,-2.231,-2.231,-2.231,-2.2527,-2.2695,-2.2695,-2.3277,-2.378,-2.3968,-2.4282,-2.4578,-2.4775,-2.4804,-2.4804,-2.4804,-2.4607,-2.4495,-2.4495,-2.4321,-2.419,-2.419,-2.419,-2.419,-2.419,-2.419,-2.419,-2.419,-2.419,-2.419,-2.419,-2.419,-2.419,-2.419,-2.419,-2.419,-0.7941,-0.9833,-1.2141,-1.3395,-1.6918,-2.0366,-2.1583,-2.2899,-2.3926,-2.412,-2.4008,-2.3451,-2.2173,-2.2169,-2.2668,-2.3676,-2.4974,0.0,0.0,0.0,0.0,-3.1962,-3.0707,-2.9467,0.0,0.0,0.0,0.0,0.0,0.0,0.0,-2.5324,-2.5097,-2.4716,-2.4559,-2.441,-2.419,-2.419,-2.4016,-2.3692,-2.3459,-2.3189,-2.2848,-2.2686,0.0,0.0,0.0,0.0,0.0,-2.231,-2.2463,-2.2746,-2.3069,-2.3392,-2.3756,-2.4229,-2.441,-2.441,-2.441,-2.441,-2.4375,-2.4247,-2.4054,-2.3837,-2.3735,-2.3392,-2.294,-2.2443,-2.231,-2.231,-2.231,-2.231,-2.231,-2.231,-2.231,-2.231,-2.231,-2.231,-2.231,-2.231,-2.2527,-2.2772,-2.2996,-2.3414,-2.3842,-2.4283,-2.4442,-2.4559,-2.4775,-2.4877,-2.4943,-2.4943,-2.4799,-2.4654,-2.4512,-2.4321,-2.4094,-2.3876,-2.3876,-2.3876,-2.3876,-2.3876,-2.3976,-2.4208,-2.419,-2.419,-2.419,-2.419,-2.419,-2.419,-2.419,-2.419,-0.9408,-1.096,-1.3168,-1.5106,-1.8306,-2.1317,-2.2549,-2.3757,-2.4532,-2.4343,-2.4256,-2.395,-2.304,-2.2798,-2.3154,-2.4344,-2.5165,0.0,0.0,0.0,0.0,-3.1374,0.0,0.0,0.0,0.0,0.0,0.0,0.0,0.0,0.0,-2.5408,-2.5216,-2.4818,-2.4685,-2.4478,-2.419,-2.419,-2.3976,-2.3522,-2.33,-2.2965,-2.2537,-2.2388,0.0,0.0,0.0,0.0,0.0,-2.2436,-2.2695,-2.3093,-2.3323,-2.3635,-2.404,-2.4373,-2.4561,-2.4607,-2.4607,-2.4559,-2.4478,-2.4357,-2.4134,-2.3876,-2.3735,-2.341,-2.2958,-2.2554,-2.2388,-2.231,-2.231,-2.231,-2.231,-2.231,-2.231,-2.231,-2.231,-2.231,-2.231,-2.231,-2.2616,-2.2947,-2.3165,-2.3656,-2.4136,-2.4559,-2.4651,-2.4752,-2.4962,-2.5072,-2.5111,-2.5111,-2.4936,-2.4746,-2.4623,-2.4229,-2.3917,-2.3714,-2.3566,-2.3522,-2.3522,-2.3522,-2.3671,-2.3996,-2.3896,-2.3955,-2.419,-2.419,-2.419,-2.419,-2.419,-2.419,0.0,-1.2722,-1.4625,-1.7304,-1.9664,-2.1862,-2.3917,-2.4726,0.0,-2.4417,-2.4507,-2.4584,-2.4311,-2.3626,-2.3576,-2.4975,-2.5394,0.0,0.0,-3.0704,0.0,0.0,-3.0701,0.0,0.0,0.0,0.0,0.0,0.0,0.0,0.0,-2.5447,-2.5226,-2.4842,-2.4818,-2.4607,-2.419,-2.419,-2.3896,-2.3259,-2.3212,-2.2908,-2.2405,-2.2349,0.0,0.0,0.0,0.0,0.0,-2.2746,-2.3117,-2.3692,-2.3714,-2.4041,-2.4512,-2.4545,-2.4654,-2.4799,-2.4799,-2.47,-2.4526,-2.4512,-2.4357,-2.4151,-2.3816,-2.3335,-2.2867,-2.2764,-2.2554,-2.2349,-2.2321,-2.2321,-2.2321,-2.231,-2.231,-2.231,-2.231,-2.231,-2.231,-2.231,-2.2747,-2.3159,-2.3189,-2.3868,-2.4508,-2.476,-2.493,-2.508,-2.5284,-2.5303,-2.5322,-2.5322,-2.5,-2.4804,-2.4804,-2.4137,-2.3692,-2.3671,-2.3346,-2.3165,-2.3165,-2.3165,-2.3323,-2.3671,-2.3369,-2.3522,-2.417,-2.417,-2.417,-2.419,-2.419,-2.4209,-1.3704,0.0,-1.6164,-1.8219,-2.0235,-2.2101,0.0,-2.4302,-2.4482,-2.447,-2.4976,-2.5486,-2.562,-2.5481,-2.5936,-2.7809,0.0,-2.8948,-3.1088,0.0,0.0,-2.9714,-2.8748,0.0,0.0,0.0,0.0,0.0,0.0,0.0,0.0,-2.5485,-2.5343,-2.5039,-2.4885,-2.4607,-2.419,-2.419,-2.4113,-2.3976,-2.3455,-2.3253,-2.3341,-2.284,0.0,0.0,0.0,0.0,-2.3069,-2.3069,-2.3323,-2.3714,-2.3868,-2.4155,-2.4526,-2.479,-2.4911,-2.4949,-2.4949,-2.4924,-2.4845,-2.4572,-2.4357,-2.419,-2.4094,-2.3795,-2.3432,-2.3165,-2.3038,-2.2915,-2.2678,-2.2599,-2.2563,-2.2349,-2.231,-2.231,-2.231,-2.231,-2.231,-2.231,-2.2415,-2.266,-2.3135,-2.3502,-2.3989,-2.4693,-2.4972,-2.5149,-2.534,-2.5387,-2.5379,-2.5379,-2.5022,-2.4804,-2.4804,-2.4137,-2.3588,-2.3346,-2.2996,-2.2822,-2.2822,-2.2822,-2.2972,-2.3323,-2.3236,-2.3392,-2.3816,-2.3816,-2.3937,-2.419,-2.419,-2.4284,-1.405,-1.5081,-1.6363,-1.8415,-2.0127,-2.1653,-2.3041,-2.3779,-2.4226,-2.4441,-2.4793,-2.5301,-2.6056,-2.6209,-2.6802,-2.8493,-2.8941,0.0,0.0,0.0,-2.9554,-2.8997,0.0,0.0,0.0,0.0,0.0,0.0,0.0,0.0,0.0,-2.5509,-2.5383,-2.5111,-2.4898,-2.4654,-2.4339,-2.4247,-2.4113,-2.3976,-2.3588,-2.3437,-2.3459,-2.3093,0.0,0.0,0.0,0.0,-2.3414,-2.3414,-2.3678,-2.4079,-2.4192,-2.4435,-2.4747,-2.4917,-2.5065,-2.5141,-2.5141,-2.5088,-2.493,-2.4604,-2.4428,-2.4321,-2.4228,-2.4074,-2.3876,-2.3522,-2.3212,-2.2923,-2.2746,-2.2625,-2.249,-2.2321,-2.231,-2.231,-2.231,-2.231,-2.231,-2.231,-2.2535,-2.2857,-2.3275,-2.3757,-2.429,-2.4848,-2.51,-2.5282,-2.5421,-2.5415,-2.5406,-2.5398,-2.5046,-2.4804,-2.4804,-2.3986,-2.3392,-2.3212,-2.2574,-2.2214,-2.2214,-2.2029,-2.2096,-2.2451,-2.277,-2.3034,-2.3236,-2.3544,-2.3795,-2.3976,-2.4229,-2.4393,-1.3569,-1.4606,-1.6015,-1.8124,-1.9602,-2.0876,-2.2224,-2.3186,-2.3909,-2.4377,-2.4523,-2.4931,-2.6176,-2.6636,0.0,0.0,0.0,0.0,-2.9469,-2.8795,-2.8349,-2.8606,0.0,0.0,0.0,0.0,0.0,0.0,0.0,0.0,0.0,-2.5495,-2.5337,-2.4992,-2.4891,-2.4685,-2.4388,-2.4265,-2.4074,-2.3774,-2.3756,-2.3592,-2.3346,-2.3379,-2.3356,0.0,0.0,0.0,-2.3774,-2.3819,-2.4098,-2.4512,-2.4559,-2.4747,-2.4991,-2.5038,-2.5165,-2.5313,-2.5322,-2.5184,-2.4943,-2.4663,-2.4543,-2.4461,-2.4303,-2.4228,-2.4151,-2.3876,-2.3369,-2.2923,-2.2873,-2.2643,-2.2415,-2.236,-2.2321,-2.231,-2.231,-2.231,-2.231,-2.231,-2.2712,-2.3171,-2.3448,-2.4134,-2.4755,-2.5061,-2.529,-2.5453,-2.5517,-2.5477,-2.5428,-2.5427,-2.5042,-2.4795,-2.4804,-2.3812,-2.3189,-2.3189,-2.2197,-2.1582,-2.1521,-2.1181,-2.1181,-2.1582,-2.2173,-2.2522,-2.2695,-2.3323,-2.3649,-2.3714,-2.4229,-2.4495,-1.3474,-1.4613,-1.5892,-1.7531,-1.8862,-2.019,-2.1802,-2.2514,-2.3091,-2.4124,-2.508,-2.5979,-2.6806,-2.7864,-2.8735,0.0,0.0,-2.9793,0.0,0.0,-2.7326,0.0,0.0,0.0,0.0,0.0,0.0,0.0,0.0,0.0,0.0,0.0,-2.5172,-2.4457,-2.4783,-2.4626,-2.3904,-2.4091,-2.417,-2.4113,-2.4003,-2.3984,-2.4036,-2.41,-2.41,0.0,0.0,-2.4229,-2.4133,-2.4321,-2.4444,-2.4526,-2.4818,-2.4943,-2.5015,-2.5253,-2.5368,-2.5376,-2.5383,-2.5207,-2.4998,-2.4949,-2.4737,-2.4495,-2.4461,-2.4339,-2.419,-2.4151,-2.4054,-2.3896,-2.361,-2.33,-2.2989,-2.2712,-2.2463,-2.231,-2.231,-2.231,-2.231,-2.231,-2.2377,-2.2652,-2.3382,-2.3787,-2.4275,-2.4994,-2.5362,-2.5567,-2.5573,-2.559,-2.5551,-2.5479,-2.5072,-2.4797,-2.4799,-2.3812,-2.3189,-2.3189,-2.2197,-2.143,-2.1118,-2.1023,-2.1181,-2.1582,-2.1715,-2.2057,-2.2695,-2.3093,-2.3414,-2.3714,-2.4075,-2.4445,-1.2679,-1.3747,-1.4954,-1.6567,-1.833,-1.9914,-2.121,-2.2252,-2.327,-2.4299,-2.5006,0.0,0.0,0.0,-2.8457,-2.9132,0.0,-2.832,0.0,0.0,0.0,0.0,0.0,0.0,0.0,0.0,0.0,0.0,0.0,0.0,0.0,0.0,-2.4881,-2.4953,-2.4587,-2.4419,-2.4445,-2.4509,-2.4528,-2.4528,-2.4454,-2.4454,-2.4528,-2.4567,-2.4551,-2.4528,0.0,-2.4512,-2.4528,-2.4512,-2.4604,-2.4776,-2.4949,-2.5094,-2.5244,-2.5395,-2.544,-2.5459,-2.544,-2.536,-2.5207,-2.5098,-2.4936,-2.4737,-2.4559,-2.4445,-2.4339,-2.4228,-2.4074,-2.3837,-2.3522,-2.3165,-2.2848,-2.2537,-2.2388,-2.231,-2.231,-2.231,-2.231,-2.231,-2.2544,-2.2979,-2.3562,-2.405,-2.4607,-2.5221,-2.5488,-2.5607,-2.5658,-2.5611,-2.5567,-2.5517,-2.5081,-2.4803,-2.4799,-2.3812,-2.2863,-2.2062,-2.1532,-2.0991,-2.0311,-2.0311,-2.0499,-2.0894,-2.1134,-2.1565,-2.2102,-2.2652,-2.3021,-2.3165,-2.3785,-2.4192,-1.2427,-1.346,-1.4678,-1.5868,-1.7524,-1.9251,-2.0745,-2.196,-2.3112,-2.4455,-2.4915,0.0,0.0,-2.6277,0.0,-2.8523,-2.7664,0.0,0.0,0.0,0.0,0.0,0.0,0.0,0.0,0.0,0.0,0.0,0.0,0.0,0.0,0.0,-2.4776,-2.5223,-2.4619,-2.4359,-2.4542,-2.4614,-2.4708,-2.4804,-2.4828,-2.4733,-2.4507,-2.4793,-2.4761,-2.4507,-2.4591,-2.4682,-2.479,-2.4666,-2.4762,-2.4991,-2.5046,-2.5216,-2.5434,-2.5508,-2.5511,-2.5511,-2.5511,-2.5473,-2.5408,-2.523,-2.51,-2.496,-2.4648,-2.4545,-2.4461,-2.4266,-2.4016,-2.3774,-2.35,-2.3189,-2.2848,-2.2571,-2.2453,-2.2388,-2.2293,-2.231,-2.231,-2.231,-2.2738,-2.3252,-2.3707,-2.4309,-2.4907,-2.5424,-2.5554,-2.5621,-2.5683,-2.5642,-2.5566,-2.5503,-2.5089,-2.4721,-2.4449,-2.3505,-2.2407,-2.107,-2.0894,-2.0499,-1.9726,-1.969,-1.9874,-2.028,-2.0649,-2.1086,-2.1582,-2.2252,-2.26,-2.2721,-2.3563,-2.3968,-1.3608,-1.4971,-1.6102,-1.5754,-1.612,-1.7434,-2.0669,-2.1264,-2.1878,-2.4276,-2.5046,0.0,0.0,-2.5473,-2.6052,-2.7338,-2.6326,0.0,0.0,0.0,0.0,0.0,0.0,0.0,0.0,0.0,0.0,0.0,0.0,0.0,0.0,0.0,0.0,-2.4493,-2.5068,-2.4657,-2.3155,-2.3864,-2.4441,-2.4804,-2.493,-2.4499,-2.3625,-2.4752,-2.4652,-2.3644,-2.4556,-2.4904,-2.4818,-2.4911,-2.4986,-2.5022,-2.5203,-2.5368,-2.5493,-2.5564,-2.5598,-2.5598,-2.5598,-2.5551,-2.5473,-2.5395,-2.5249,-2.5041,-2.4831,-2.4639,-2.4461,-2.4266,-2.417,-2.417,-2.4133,-2.3876,-2.3544,-2.3212,-2.2898,-2.2599,-2.2332,-2.231,-2.231,-2.231,-2.2588,-2.3052,-2.3687,-2.4197,-2.4734,-2.5404,-2.5563,-2.5615,-2.5683,-2.5638,-2.5566,-2.5511,-2.5136,-2.4466,-2.3392,-2.2617,-2.184,-2.1055,-2.0583,-2.0158,-1.9711,-1.969,-1.9874,-2.028,-2.0348,-2.0765,-2.1582,-2.1972,-2.2344,-2.2721,-2.3397,-2.3806,-1.3415,-1.462,-1.5904,-1.6031,-1.6492,-1.7452,-1.9494,-2.0709,-2.1944,-2.3628,-2.4665,0.0,0.0,0.0,-2.5339,-2.5068,0.0,0.0,0.0,0.0,0.0,0.0,0.0,0.0,0.0,0.0,0.0,0.0,0.0,0.0,0.0,0.0,0.0,-2.4295,-2.4583,-2.4199,-2.3008,-2.3806,-2.4024,-2.3672,-2.3694,-2.3485,-2.3151,-2.413,-2.4303,-2.393,-2.4679,-2.5041,-2.5115,-2.5022,-2.5057,-2.5194,-2.5356,-2.5488,-2.5567,-2.5585,-2.5625,-2.5662,-2.5605,-2.5581,-2.5554,-2.5473,-2.5376,-2.5234,-2.4904,-2.4746,-2.4607,-2.4284,-2.419,-2.4151,-2.3937,-2.3795,-2.3628,-2.3277,-2.3093,-2.2972,-2.2883,-2.2695,-2.2616,-2.2824,-2.2958,-2.3275,-2.3989,-2.4477,-2.4927,-2.5429,-2.5564,-2.5611,-2.5683,-2.5636,-2.5565,-2.5511,-2.4926,-2.4072,-2.2922,-2.2139,-2.1393,-2.0616,-2.0416,-2.0124,-1.9726,-1.969,-1.9874,-2.028,-2.0583,-2.1007,-2.1582,-2.2027,-2.2298,-2.2463,-2.289,-2.3106,-1.3988,-1.4891,-1.5951,-1.658,-1.7004,-1.7586,-1.8779,-2.0285,-2.1799,-2.2957,-2.3767,-2.4428,-2.471,0.0,0.0,0.0,0.0,0.0,0.0,0.0,0.0,0.0,0.0,0.0,0.0,0.0,0.0,0.0,0.0,0.0,0.0,0.0,0.0,0.0,-2.4687,-2.4171,-2.3037,-2.3572,-2.3309,-2.2234,-2.2163,-2.2266,-2.2527,-2.3338,-2.3559,-2.3331,-2.43,-2.479,-2.4937,-2.5056,-2.5194,-2.5348,-2.5459,-2.5535,-2.5579,-2.5598,-2.5627,-2.5634,-2.5605,-2.5602,-2.5598,-2.5524,-2.5477,-2.5352,-2.4924,-2.4804,-2.4716,-2.4321,-2.419,-2.4151,-2.3917,-2.3876,-2.3774,-2.3437,-2.3369,-2.3346,-2.3212,-2.3021,-2.288,-2.3021,-2.3212,-2.352,-2.4062,-2.4562,-2.5029,-2.5429,-2.5564,-2.5629,-2.5661,-2.5633,-2.5527,-2.5335,-2.4613,-2.3707,-2.2683,-2.1831,-2.1038,-2.0333,-2.0314,-2.0124,-1.9726,-1.969,-1.9874,-2.028,-2.0616,-2.1039,-2.1582,-2.1928,-2.2152,-2.231,-2.259,-2.2695,-1.5663,-1.6107,-1.6616,-1.7237,-1.7388,-1.7677,-1.872,-1.998,-2.1189,-2.2259,-2.2446,-2.2599,-2.3282,-2.2483,0.0,0.0,0.0,0.0,0.0,0.0,0.0,0.0,0.0,0.0,0.0,0.0,0.0,0.0,0.0,0.0,0.0,0.0,0.0,0.0,-2.5542,0.0,-2.3098,-2.3082,-2.2246,-2.0605,-2.0539,-2.0896,-2.1623,-2.2495,-2.2388,-2.16,-2.336,-2.411,-2.4168,-2.4966,-2.5339,-2.5413,-2.5463,-2.5495,-2.5508,-2.5572,-2.5558,-2.5517,-2.559,-2.5601,-2.5595,-2.5525,-2.5493,-2.542,-2.4943,-2.4804,-2.4716,-2.4321,-2.419,-2.419,-2.419,-2.419,-2.4113,-2.3795,-2.3692,-2.361,-2.3277,-2.3212,-2.3117,-2.2772,-2.3236,-2.3705,-2.3803,-2.4412,-2.5048,-2.5429,-2.5564,-2.5601,-2.5601,-2.5601,-2.5427,-2.4954,-2.4242,-2.3467,-2.2658,-2.1632,-2.0797,-2.0314,-2.0314,-2.0124,-1.9711,-1.9726,-1.9909,-2.0299,-2.0314,-2.0732,-2.1612,-2.1612,-2.1853,-2.2293,-2.2573,-2.2695,-1.5191,-1.5743,-1.6365,-1.601,-1.6539,-1.7219,-1.7581,-1.8996,-2.0528,0.0,-2.2171,-2.2362,-2.2221,0.0,0.0,0.0,0.0,0.0,0.0,0.0,0.0,0.0,0.0,0.0,0.0,0.0,0.0,0.0,0.0,0.0,0.0,0.0,0.0,0.0,-2.3373,0.0,-2.123,-2.1812,-2.1577,-2.0537,-2.0503,-2.0936,-2.1744,-2.1909,-2.2178,-2.2545,-2.3625,-2.411,-2.4168,-2.4966,-2.5371,-2.5463,-2.5484,-2.5527,-2.5572,-2.5535,-2.5526,-2.5493,-2.5511,-2.5561,-2.5592,-2.557,-2.5543,-2.5438,-2.5111,-2.4911,-2.4746,-2.4478,-2.4321,-2.419,-2.419,-2.4303,-2.4357,-2.4095,-2.4054,-2.4016,-2.3917,-2.3714,-2.3588,-2.3714,-2.3732,-2.3885,-2.4414,-2.4669,-2.4985,-2.5424,-2.5486,-2.5476,-2.5524,-2.5483,-2.533,-2.4936,-2.4242,-2.3328,-2.2209,-2.1691,-2.0975,-1.9929,-2.0465,-2.0599,-2.0158,-2.0431,-2.0797,-2.1197,-2.1228,-2.1592,-2.2361,-2.2361,-2.2565,-2.2933,-2.2996,-2.3045,-1.5205,-1.541,-1.5695,-1.5418,-1.5918,-1.6464,-1.6705,0.0,0.0,0.0,-2.1201,-2.1077,-2.1285,-2.1303,0.0,0.0,0.0,0.0,0.0,0.0,0.0,0.0,0.0,0.0,0.0,0.0,0.0,0.0,0.0,0.0,0.0,0.0,0.0,0.0,0.0,0.0,-2.0896,-2.1414,-2.1296,-2.0508,-2.0508,-2.0972,-2.1828,-2.1363,-2.1415,-2.1901,-2.2709,-2.3456,-2.411,-2.4255,-2.4389,-2.4516,-2.4516,-2.4738,-2.5047,-2.4996,-2.516,-2.5428,-2.5473,-2.5535,-2.5556,-2.5581,-2.5554,-2.5449,-2.5183,-2.5011,-2.4842,-2.4575,-2.4461,-2.4428,-2.4339,-2.4461,-2.4561,-2.4284,-2.4247,-2.4303,-2.4209,-2.4036,-2.3917,-2.3996,-2.3955,-2.402,-2.4418,-2.4657,-2.4924,-2.5318,-2.5444,-2.55,-2.5573,-2.5468,-2.5278,-2.4946,-2.4242,-2.3368,-2.2279,-2.1807,-2.1197,-2.0277,-2.0862,-2.1165,-2.1038,-2.1007,-2.1259,-2.1786,-2.1786,-2.2169,-2.2898,-2.2898,-2.2996,-2.3189,-2.3189,-2.3189,-1.5445,-1.505,-1.4729,-1.5112,-1.5282,-1.5452,-1.5905,-1.6975,-1.8392,-2.0174,0.0,-1.9232,-2.0332,0.0,0.0,0.0,0.0,0.0,0.0,0.0,0.0,0.0,0.0,0.0,0.0,0.0,0.0,0.0,0.0,0.0,0.0,0.0,0.0,0.0,0.0,0.0,-2.1462,-2.1536,-2.1204,0.0,-2.0482,-2.0946,-2.1738,-2.089,-2.0471,-2.0468,-2.1193,-2.2444,-2.3927,-2.3137,-2.2888,-2.2998,-2.3002,-2.3456,-2.4102,-2.4175,-2.4619,-2.5226,-2.542,-2.5493,-2.552,-2.5584,-2.5558,-2.5449,-2.5208,-2.5069,-2.4949,-2.4636,-2.467,-2.476,-2.4559,-2.467,-2.4712,-2.4339,-2.4375,-2.4444,-2.4284,-2.4209,-2.4113,-2.3795,-2.3996,-2.4172,-2.4062,-2.4445,-2.4859,-2.5143,-2.5416,-2.5613,-2.5664,-2.5519,-2.5278,-2.4964,-2.4272,-2.3529,-2.274,-2.209,-2.1565,-2.1102,-2.1519,-2.1898,-2.2173,-2.1532,-2.1472,-2.2207,-2.2218,-2.2574,-2.3264,-2.3287,-2.331,-2.3356,-2.3328,-2.3328,-1.455,-1.4086,-1.3884,-1.3299,-1.3478,-1.3891,-1.3981,-1.4737,-1.5945,-1.7659,-1.8495,-1.8974,-1.9232,0.0,0.0,0.0,0.0,0.0,0.0,0.0,0.0,0.0,0.0,0.0,0.0,0.0,0.0,0.0,0.0,0.0,0.0,0.0,0.0,0.0,0.0,-2.0489,-2.0354,-2.05,-2.0515,0.0,-2.0406,-2.0545,-2.079,-2.0582,-2.0834,-2.141,-2.1533,-2.2177,-2.3137,-2.2963,-2.2939,-2.3002,-2.3059,-2.3144,-2.3329,-2.3966,-2.4277,-2.4473,-2.5226,-2.5493,-2.5511,-2.5643,-2.5601,-2.5484,-2.5438,-2.5213,-2.4979,-2.4905,-2.485,-2.479,-2.4746,-2.4836,-2.4898,-2.4712,-2.4575,-2.4495,-2.4444,-2.4321,-2.417,-2.4094,-2.4151,-2.4247,-2.4373,-2.4489,-2.4671,-2.4985,-2.532,-2.5527,-2.5547,-2.546,-2.5333,-2.5147,-2.4561,-2.3897,-2.3207,-2.2976,-2.2531,-2.1747,-2.2588,-2.2971,-2.2726,-2.2488,-2.253,-2.2954,-2.3129,-2.3426,-2.3832,-2.3989,-2.4189,-2.4452,-2.43,-2.4229,-1.5037,-1.4215,-1.3536,-1.2447,-1.2172,-1.2246,-1.2557,-1.3222,-1.4136,-1.5327,-1.6709,-1.7773,0.0,0.0,0.0,0.0,0.0,0.0,0.0,0.0,0.0,0.0,0.0,0.0,0.0,0.0,0.0,0.0,0.0,0.0,0.0,-1.9416,-1.9563,0.0,-1.9809,-1.9943,-2.0012,-2.0197,-2.0299,-2.0294,-2.0361,-2.0444,-2.0542,-2.0502,-2.0965,-2.1717,-2.1205,-2.1469,-2.2262,-2.1836,-2.169,-2.1757,-2.182,-2.2069,-2.2429,-2.2853,-2.3463,-2.4176,-2.4704,-2.5157,-2.5526,-2.5629,-2.5602,-2.5551,-2.5551,-2.5376,-2.5168,-2.5077,-2.5038,-2.5012,-2.4917,-2.5018,-2.513,-2.5068,-2.4877,-2.4723,-2.467,-2.4478,-2.4339,-2.4339,-2.4284,-2.4228,-2.4339,-2.4456,-2.469,-2.5131,-2.5284,-2.5389,-2.5483,-2.5449,-2.5335,-2.5178,-2.4734,-2.4267,-2.3823,-2.3603,-2.3289,-2.2847,-2.3343,-2.3608,-2.3571,-2.3482,-2.3491,-2.3584,-2.3779,-2.3989,-2.4247,-2.4449,-2.4625,-2.4804,-2.4685,-2.4639,-1.5947,-1.4529,-1.3178,-1.1904,-1.1216,0.0,-1.1366,-1.2043,-1.2773,-1.3331,-1.4948,0.0,0.0,0.0,0.0,0.0,0.0,0.0,0.0,0.0,0.0,0.0,0.0,0.0,0.0,0.0,0.0,0.0,0.0,0.0,-1.843,-1.8547,-1.8877,-1.9485,-1.9688,-1.9858,-1.9954,-2.0188,-2.0292,-2.0308,-2.0376,-2.0475,-2.0605,-2.054,-2.0902,-2.154,-2.0696,-2.0737,-2.1332,-2.0621,-2.0347,-2.0414,-2.0469,-2.0893,-2.1491,-2.1634,-2.2611,-2.3916,-2.4126,-2.4762,-2.5503,-2.5567,-2.5585,-2.5588,-2.5603,-2.5503,-2.5374,-2.5213,-2.5226,-2.5274,-2.5099,-2.5192,-2.5303,-2.5303,-2.5163,-2.5018,-2.4847,-2.4639,-2.4495,-2.4444,-2.4321,-2.419,-2.419,-2.4402,-2.4731,-2.5188,-2.5208,-2.5239,-2.5407,-2.5402,-2.5329,-2.5167,-2.4865,-2.4605,-2.4436,-2.4146,-2.3969,-2.3969,-2.4021,-2.4174,-2.4437,-2.4482,-2.4407,-2.4219,-2.4337,-2.4476,-2.4591,-2.4785,-2.4888,-2.4888,-2.4842,-2.4828,-1.6323,-1.3889,-1.1864,-1.1116,-1.0864,-1.0661,0.0,0.0,-1.1963,0.0,0.0,0.0,0.0,0.0,0.0,0.0,0.0,0.0,0.0,0.0,0.0,0.0,0.0,0.0,0.0,0.0,0.0,0.0,0.0,0.0,-1.782,-1.8316,-1.8752,-1.9069,-1.9553,-1.9802,-1.9824,-2.0144,-2.0292,-2.0289,-2.0376,-2.0475,-2.0605,-2.0586,-2.0644,-2.0741,-2.05,-2.0456,-2.0554,-2.0437,-2.0383,-2.0402,-2.0469,-2.0536,-2.0655,-2.1355,-2.2195,-2.3088,-2.3913,-2.4723,-2.5428,-2.5558,-2.556,-2.5526,-2.559,-2.5551,-2.5463,-2.5374,-2.5364,-2.5368,-2.5284,-2.5274,-2.5303,-2.5303,-2.5274,-2.5171,-2.4874,-2.4639,-2.4444,-2.4266,-2.4209,-2.419,-2.419,-2.4374,-2.454,-2.4601,-2.4896,-2.5119,-2.5157,-2.5302,-2.5386,-2.5364,-2.5107,-2.4943,-2.4911,-2.4759,-2.467,-2.467,-2.4887,-2.5039,-2.5076,-2.5258,-2.5258,-2.5031,-2.4954,-2.4917,-2.4917,-2.5149,-2.5233,-2.5233,-2.5053,-2.4974,-1.7537,-1.4801,-1.2551,-1.1571,-1.0746,-1.0167,-0.9865,-1.0261,-1.0762,-1.1166,0.0,0.0,0.0,0.0,0.0,0.0,0.0,0.0,0.0,0.0,0.0,0.0,0.0,0.0,0.0,0.0,0.0,0.0,0.0,-1.7617,-1.7687,-1.8258,-1.8734,-1.8984,-1.9452,-1.9713,-1.979,-2.0012,-2.0184,-2.0295,-2.0366,-2.0444,-2.0541,-2.0585,-2.0605,-2.0586,-2.0467,-2.041,-2.041,-2.041,-2.041,-2.0406,-2.0468,-2.047,-2.0441,-2.0762,-2.1377,-2.2128,-2.2551,-2.3589,-2.4742,-2.4802,-2.5152,-2.556,-2.5585,-2.5577,-2.5551,-2.5526,-2.5465,-2.5379,-2.5352,-2.5321,-2.5303,-2.5303,-2.5303,-2.5212,-2.4874,-2.4731,-2.4594,-2.4247,-2.419,-2.4247,-2.4339,-2.4339,-2.441,-2.4639,-2.4714,-2.4822,-2.5023,-2.5128,-2.5226,-2.532,-2.5235,-2.5175,-2.5216,-2.5159,-2.5136,-2.5143,-2.5254,-2.5301,-2.5249,-2.5344,-2.5347,-2.5252,-2.5266,-2.5211,-2.511,-2.5272,-2.5376,-2.5401,-2.5279,-2.5239,-1.8827,-1.6281,-1.4082,-1.2541,-1.1215,-1.0202,0.0,0.0,-0.9969,0.0,0.0,0.0,0.0,0.0,0.0,0.0,0.0,0.0,0.0,0.0,0.0,0.0,0.0,0.0,0.0,0.0,0.0,0.0,0.0,-1.7432,-1.7452,-1.8035,-1.8529,-1.8896,-1.9289,-1.9572,-1.975,-1.9922,-2.0109,-2.0294,-2.0361,-2.0435,-2.0508,-2.0565,-2.0605,-2.0586,-2.0467,-2.0383,-2.039,-2.0383,-2.041,-2.0406,-2.0466,-2.0441,-2.0383,-2.0319,-2.0815,-2.1496,-2.1451,-2.2598,-2.4107,-2.4118,-2.4735,-2.5481,-2.5573,-2.5603,-2.5598,-2.5605,-2.5535,-2.5453,-2.5434,-2.5368,-2.534,-2.5331,-2.5313,-2.5212,-2.4874,-2.4716,-2.4561,-2.4266,-2.419,-2.4247,-2.441,-2.4303,-2.4303,-2.4591,-2.4559,-2.4604,-2.4911,-2.4986,-2.5088,-2.5274,-2.5303,-2.5321,-2.5386,-2.5409,-2.5411,-2.5414,-2.5389,-2.5351,-2.5345,-2.5302,-2.5301,-2.5345,-2.5444,-2.5402,-2.5229,-2.5333,-2.5405,-2.5457,-2.5408,-2.5405,-1.9894,-1.8091,-1.6192,-1.4036,-1.2522,-1.1265,0.0,0.0,0.0,0.0,0.0,0.0,0.0,0.0,0.0,0.0,0.0,0.0,0.0,0.0,0.0,0.0,0.0,0.0,0.0,0.0,0.0,0.0,0.0,-1.6521,-1.6841,-1.7436,-1.8013,-1.8604,-1.901,-1.9339,-1.9609,-1.9869,-2.0109,-2.0294,-2.0361,-2.0435,-2.0508,-2.0565,-2.0605,-2.0586,-2.0467,-2.0357,-2.0299,-2.0366,-2.041,-2.0409,-2.0394,-2.0391,-2.0394,-2.0327,-2.0812,-2.1487,-2.1359,-2.2408,-2.3823,-2.3889,-2.4464,-2.52,-2.5508,-2.5603,-2.5597,-2.5595,-2.5598,-2.5567,-2.5503,-2.5453,-2.5379,-2.5391,-2.5348,-2.5212,-2.4874,-2.4495,-2.4228,-2.419,-2.419,-2.419,-2.4209,-2.4209,-2.4209,-2.4228,-2.4393,-2.4594,-2.479,-2.493,-2.5088,-2.5274,-2.5303,-2.5321,-2.5386,-2.541,-2.5434,-2.5488,-2.5317,-2.5298,-2.5479,-2.5317,-2.5292,-2.5498,-2.5507,-2.5437,-2.5292,-2.5293,-2.5312,-2.5312,-2.5312,-2.5312,-2.1977,-2.0318,-1.8371,-1.6192,-1.4497,-1.2765,-1.0839,-1.01,-0.9666,0.0,0.0,0.0,0.0,0.0,0.0,0.0,0.0,0.0,0.0,0.0,0.0,0.0,0.0,0.0,0.0,0.0,0.0,0.0,0.0,0.0,-1.6396,-1.7221,-1.7885,-1.833,-1.8825,-1.9268,-1.9713,-1.9912,-2.0105,-2.0287,-1.9796,-1.9865,-2.0416,-1.9926,-2.0019,-2.0539,-2.0482,-2.0429,-2.0381,-2.0383,-2.041,-2.0409,-2.0393,-2.041,-2.037,-2.0177,-2.037,-2.0691,-2.0429,-2.1149,-2.2206,-2.2211,-2.3179,-2.4375,-2.4632,-2.5114,-2.5605,-2.5602,-2.5602,-2.5598,-2.5564,-2.5473,-2.5391,-2.5357,-2.5152,-2.4955,-2.4832,-2.4478,-2.419,-2.419,-2.419,-2.419,-2.419,-2.419,-2.419,-2.419,-2.4375,-2.4559,-2.4775,-2.4917,-2.5088,-2.5274,-2.5348,-2.5398,-2.5465,-2.5459,-2.5427,-2.5312,-2.5193,-2.5101,-2.5056,-2.5069,-2.511,-2.5178,-2.5178,-2.5263,-2.5431,-2.5259,-2.5179,-2.5221,-2.5199,-2.5179,-2.3516,-2.1995,-2.018,0.0,-1.6229,-1.4141,-1.2291,0.0,-0.9902,0.0,0.0,0.0,0.0,0.0,0.0,0.0,0.0,0.0,0.0,0.0,0.0,0.0,0.0,0.0,0.0,0.0,0.0,0.0,0.0,0.0,-1.5679,-1.6548,-1.7271,-1.7809,-1.8075,-1.8532,-1.9183,-1.9367,-1.944,-1.938,-1.913,-1.9206,-1.9535,-1.9017,-1.9081,-1.9678,-1.9944,-2.0197,-2.0391,-2.0429,-2.0432,-2.0428,-2.0408,-2.0379,-2.0303,-2.009,-2.005,-2.0088,-1.9839,-2.0344,-2.1138,-2.113,-2.2326,-2.3803,-2.4033,-2.478,-2.5543,-2.5558,-2.5574,-2.5566,-2.5584,-2.5515,-2.5408,-2.5254,-2.5018,-2.479,-2.4716,-2.4445,-2.419,-2.419,-2.419,-2.419,-2.419,-2.4266,-2.4303,-2.4303,-2.4478,-2.467,-2.4836,-2.4967,-2.5116,-2.5302,-2.5398,-2.5443,-2.5499,-2.5486,-2.5375,-2.5182,-2.5052,-2.4929,-2.4818,-2.4823,-2.4858,-2.4924,-2.4924,-2.5042,-2.5263,-2.51,-2.502,-2.5063,-2.5009,-2.5071,0.0,0.0,0.0,0.0,0.0,0.0,-1.4482,0.0,0.0,0.0,0.0,0.0,0.0,0.0,0.0,0.0,0.0,0.0,0.0,0.0,0.0,0.0,0.0,0.0,0.0,0.0,0.0,0.0,0.0,-1.4921,-1.4695,-1.5302,-1.6114,-1.703,-1.6739,-1.7027,-1.7964,-1.8228,-1.8095,-1.7598,-1.8363,-1.8434,-1.7897,-1.7862,-1.7904,-1.8047,-1.8818,-1.9612,-2.0379,-2.0458,-2.0508,-2.0495,-2.0438,-2.0313,-2.0186,-2.0037,-1.9922,-1.9786,-1.9649,-2.0104,-2.0769,-2.076,-2.1985,-2.3511,-2.3774,-2.4563,-2.5401,-2.5468,-2.5489,-2.5503,-2.5576,-2.5541,-2.5438,-2.5166,-2.4941,-2.4746,-2.4561,-2.4358,-2.419,-2.419,-2.419,-2.419,-2.4209,-2.4375,-2.4512,-2.4512,-2.4685,-2.4869,-2.4998,-2.5069,-2.5185,-2.5386,-2.5451,-2.5499,-2.5508,-2.5439,-2.5303,-2.5101,-2.4898,-2.479,-2.479,-2.4591,-2.4575,-2.4756,-2.479,-2.479,-2.479,-2.479,-2.479,-2.479,-2.4804,-2.4917,-2.5168,0.0,0.0,0.0,0.0,0.0,0.0,0.0,0.0,0.0,0.0,0.0,0.0,0.0,0.0,0.0,0.0,0.0,0.0,0.0,0.0,0.0,0.0,0.0,0.0,0.0,0.0,0.0,-1.3011,-1.3385,-1.4153,-1.4924,-1.5545,-1.6012,-1.6115,-1.6501,-1.7196,-1.728,-1.7352,-1.7444,-1.7132,-1.7226,-1.7672,-1.7174,-1.73,-1.7943,-1.8203,-1.8825,-1.9642,-2.0258,-2.0479,-2.0429,-2.0411,-2.0288,-2.0104,-1.9925,-1.9824,-1.9755,-1.9476,-1.9615,-1.9931,-1.9931,-2.105,-2.2459,-2.2672,-2.3782,-2.5003,-2.5155,-2.5263,-2.5313,-2.5429,-2.5473,-2.5457,-2.5292,-2.5018,-2.479,-2.4731,-2.4444,-2.419,-2.419,-2.419,-2.4247,-2.4393,-2.4461,-2.4561,-2.47,-2.4898,-2.5028,-2.507,-2.5252,-2.5401,-2.5463,-2.5539,-2.5547,-2.5508,-2.5481,-2.5292,-2.49,-2.4834,-2.467,-2.4375,-2.4444,-2.4424,-2.4227,-2.4456,-2.4456,-2.4227,-2.4456,-2.4575,-2.4594,-2.4731,-2.4891,-2.5488,-2.496,-2.4283,0.0,0.0,0.0,0.0,-1.6128,0.0,0.0,0.0,0.0,0.0,0.0,0.0,0.0,0.0,0.0,0.0,0.0,0.0,0.0,0.0,0.0,0.0,0.0,0.0,-1.2174,-1.2472,-1.2975,-1.3749,-1.4006,-1.4379,-1.4961,-1.4913,-1.5241,-1.6012,-1.6183,-1.622,-1.6153,-1.6186,-1.6338,-1.6541,-1.6211,-1.6358,-1.688,-1.728,-1.7753,-1.8301,-1.9472,-2.0156,-2.0443,-2.0419,-2.0235,-1.9999,-1.9842,-1.9707,-1.9553,-1.938,-1.9365,-1.9485,-1.9485,-2.0391,-2.1573,-2.2046,-2.3137,-2.4353,-2.4851,-2.5052,-2.5207,-2.5395,-2.5458,-2.542,-2.5282,-2.5072,-2.4883,-2.4818,-2.4607,-2.441,-2.4228,-2.4284,-2.4357,-2.4478,-2.462,-2.4762,-2.4898,-2.5109,-2.523,-2.526,-2.5429,-2.5547,-2.5547,-2.5574,-2.5566,-2.5514,-2.5406,-2.5127,-2.4609,-2.4504,-2.4264,-2.3798,-2.3903,-2.3926,-2.3868,-2.408,-2.4155,-2.408,-2.4284,-2.4375,-2.4375,-2.467,-2.4652,-2.5488,-2.4871,-2.4303,-2.4606,-2.2699,0.0,-2.0823,-1.8148,-1.5389,0.0,0.0,0.0,0.0,0.0,0.0,0.0,0.0,0.0,0.0,0.0,0.0,0.0,0.0,0.0,0.0,-1.094,-1.1185,-1.1664,-1.2506,-1.3074,-1.3257,-1.2844,-1.3022,-1.3936,-1.3525,-1.3718,-1.4658,-1.5018,-1.4922,-1.4354,-1.5418,-1.5607,-1.5057,-1.5211,-1.5326,-1.5426,-1.6213,-1.6614,-1.6816,-1.8405,-1.9567,-2.0343,-2.0356,-2.0167,-1.9868,-1.9805,-1.9585,-1.9305,-1.9305,-1.9305,-1.9305,-1.9305,-1.9974,-2.09,-2.1608,-2.2585,-2.363,-2.4544,-2.4941,-2.5166,-2.5418,-2.5442,-2.5375,-2.5234,-2.5101,-2.4967,-2.4855,-2.4818,-2.47,-2.4339,-2.441,-2.4543,-2.4572,-2.4812,-2.5034,-2.5129,-2.5306,-2.5434,-2.5483,-2.5556,-2.5595,-2.5595,-2.5582,-2.5561,-2.5484,-2.5252,-2.4862,-2.4337,-2.41,-2.3751,-2.3212,-2.3253,-2.3392,-2.3649,-2.3692,-2.3858,-2.419,-2.419,-2.419,-2.4209,-2.4591,-2.4346,-2.5488,-2.5297,-2.5081,-2.5146,0.0,0.0,-2.186,-1.9692,-1.7207,0.0,0.0,0.0,0.0,0.0,0.0,0.0,0.0,0.0,0.0,0.0,0.0,0.0,0.0,0.0,0.0,-1.0608,-1.0994,-1.1153,-1.1861,-1.2121,-1.1741,-1.2275,-1.2757,-1.3131,-1.3083,-1.3311,-1.3826,-1.3903,-1.3965,-1.4006,-1.4507,-1.4722,-1.471,-1.4998,-1.5202,-1.5334,-1.5553,-1.6042,-1.6787,-1.7755,-1.8634,-1.9434,-1.9947,-2.0018,-1.9794,-1.9676,-1.9495,-1.9305,-1.9305,-1.9305,-1.9305,-1.9305,-1.9871,-2.0583,-2.0749,-2.1869,-2.3355,-2.449,-2.4941,-2.5146,-2.5296,-2.541,-2.5442,-2.5308,-2.5182,-2.5069,-2.4979,-2.4883,-2.4775,-2.47,-2.4716,-2.479,-2.4962,-2.503,-2.5167,-2.5389,-2.5464,-2.5481,-2.5504,-2.5517,-2.5519,-2.5519,-2.552,-2.5484,-2.5428,-2.523,-2.4862,-2.4337,-2.41,-2.3751,-2.3212,-2.3459,-2.3522,-2.33,-2.3566,-2.3858,-2.419,-2.419,-2.419,-2.4227,-2.4462,-2.4468,-2.5498,-2.5406,-2.5303,-2.5303,0.0,0.0,0.0,-2.1601,-1.9628,-1.8103,0.0,0.0,0.0,0.0,0.0,0.0,0.0,0.0,0.0,0.0,0.0,0.0,0.0,0.0,0.0,-1.013,-1.0551,-1.0975,-1.1577,-1.1886,-1.1715,-1.255,-1.311,-1.319,-1.314,-1.3336,-1.3783,-1.3565,-1.3555,-1.3751,-1.4085,-1.4348,-1.4521,-1.4736,-1.4978,-1.5197,-1.5244,-1.5567,-1.6116,-1.6917,-1.7699,-1.8464,-1.965,-1.9611,-1.8944,-1.9295,-1.9206,-1.8964,-1.9099,-1.915,-1.9166,-1.9259,-1.9565,-1.9987,-2.0374,-2.1658,-2.3234,-2.446,-2.4872,-2.5015,-2.5277,-2.5395,-2.5448,-2.5416,-2.5327,-2.5241,-2.5207,-2.5122,-2.5061,-2.5102,-2.5094,-2.5097,-2.5091,-2.5208,-2.5356,-2.5473,-2.5503,-2.5506,-2.5508,-2.5508,-2.5459,-2.5362,-2.5324,-2.5252,-2.512,-2.4927,-2.4542,-2.3934,-2.3715,-2.3406,-2.2972,-2.3117,-2.3189,-2.3189,-2.3692,-2.3876,-2.3692,-2.4054,-2.419,-2.419,-2.441,-2.4271,0.0,0.0,0.0,0.0,0.0,-2.4156,0.0,0.0,0.0,-2.1231,0.0,0.0,0.0,0.0,0.0,0.0,0.0,0.0,0.0,0.0,0.0,0.0,0.0,0.0,0.0,-0.9783,-1.028,-1.0873,-1.154,-1.2008,-1.2131,-1.2951,-1.3428,-1.3575,-1.3368,-1.3474,-1.3909,-1.3604,-1.3447,-1.3491,-1.3842,-1.4118,-1.4348,-1.4492,-1.4754,-1.5075,-1.5096,-1.5218,-1.5436,-1.623,-1.6842,-1.7465,-1.9104,-1.9114,-1.8298,-1.8867,-1.8876,-1.8623,-1.8861,-1.8931,-1.8949,-1.9115,-1.9196,-1.9408,-2.0246,-2.1548,-2.3013,-2.417,-2.4643,-2.4877,-2.5226,-2.5368,-2.5417,-2.5465,-2.5456,-2.5414,-2.5415,-2.5387,-2.5346,-2.5413,-2.5415,-2.5383,-2.5209,-2.536,-2.5495,-2.5507,-2.5482,-2.5486,-2.5484,-2.5446,-2.5344,-2.5186,-2.5091,-2.4946,-2.4734,-2.4507,-2.4118,-2.3451,-2.3211,-2.2972,-2.2721,-2.2822,-2.3045,-2.3392,-2.3858,-2.3837,-2.33,-2.3756,-2.4036,-2.4113,-2.4339,-2.3982,0.0,0.0,0.0,0.0,-2.5197,0.0,0.0,0.0,-2.2866,-2.1119,0.0,0.0,0.0,0.0,0.0,0.0,0.0,0.0,0.0,0.0,0.0,0.0,0.0,0.0,0.0,0.0,-1.057,-1.0657,-1.1675,-1.234,-1.235,-1.2734,-1.3249,-1.3842,-1.3589,-1.3518,-1.3647,-1.3827,-1.3623,-1.3069,-1.3458,-1.3814,-1.4143,-1.4336,-1.4634,-1.5009,-1.5075,-1.5173,-1.5353,-1.6055,-1.631,-1.6421,-1.7847,-1.8679,-1.9023,-1.8771,-1.8642,-1.8604,-1.8623,-1.8659,-1.8642,-1.8679,-1.8843,-1.9214,-2.0197,-2.118,-2.2148,-2.3175,-2.4107,-2.4842,-2.501,-2.5225,-2.5401,-2.5414,-2.5448,-2.5497,-2.5483,-2.5473,-2.5488,-2.5498,-2.5495,-2.5485,-2.5464,-2.5486,-2.5506,-2.5508,-2.5443,-2.5409,-2.5401,-2.5197,-2.5042,-2.5019,-2.4911,-2.4695,-2.4385,-2.4171,-2.3775,-2.3099,-2.2853,-2.2746,-2.2695,-2.3259,-2.3735,-2.4074,-2.3876,-2.3714,-2.3649,-2.3414,-2.3477,-2.3756,-2.4094,-2.3805,0.0,0.0,0.0,0.0,0.0,0.0,-2.493,0.0,-2.4369,0.0,0.0,0.0,0.0,0.0,0.0,0.0,0.0,0.0,0.0,0.0,0.0,0.0,0.0,0.0,0.0,0.0,0.0,0.0,0.0,-1.2351,-1.2385,-1.3035,-1.3683,-1.424,-1.3998,-1.3882,-1.3959,-1.3662,-1.3291,-1.2778,-1.3088,-1.3377,-1.3656,-1.3957,-1.4313,-1.4663,-1.4882,-1.5031,-1.5101,-1.5459,-1.5701,-1.5948,-1.6783,-1.7527,-1.8178,-1.8332,-1.827,-1.8146,-1.831,-1.8371,-1.8391,-1.8547,-1.8678,-1.8932,-1.9812,-2.0463,-2.1187,-2.2642,-2.347,-2.408,-2.4803,-2.5109,-2.5263,-2.5374,-2.5425,-2.5445,-2.5449,-2.5403,-2.5398,-2.5427,-2.5448,-2.5432,-2.5442,-2.5476,-2.5496,-2.5446,-2.5415,-2.5348,-2.5187,-2.4922,-2.4681,-2.4441,-2.4206,-2.3933,-2.3676,-2.3566,-2.3343,-2.2853,-2.2912,-2.2996,-2.2996,-2.3631,-2.3958,-2.3917,-2.3774,-2.3522,-2.3117,-2.3165,-2.3165,-2.3117,-2.3459,-2.3533,-2.5398,0.0,0.0,0.0,0.0,0.0,0.0,0.0,0.0,0.0,0.0,0.0,0.0,0.0,0.0,0.0,0.0,0.0,0.0,0.0,0.0,0.0,0.0,0.0,0.0,0.0,0.0,0.0,0.0,0.0,-1.2796,-1.3476,-1.4095,-1.4536,-1.4326,-1.4137,-1.394,-1.3644,-1.3128,-1.2494,-1.2759,-1.3034,-1.3312,-1.36,-1.3989,-1.4405,-1.4654,-1.482,-1.4893,-1.4908,-1.5216,-1.572,-1.6058,-1.6658,-1.7379,-1.791,-1.7971,-1.7833,-1.8035,-1.8082,-1.8125,-1.841,-1.8489,-1.8614,-1.9259,-1.9895,-2.0678,-2.2082,-2.2974,-2.3726,-2.4674,-2.5,-2.513,-2.5356,-2.5404,-2.5414,-2.5428,-2.5391,-2.5379,-2.5417,-2.5402,-2.5405,-2.5408,-2.5441,-2.5459,-2.5383,-2.5324,-2.5188,-2.4917,-2.462,-2.429,-2.3913,-2.3593,-2.333,-2.3076,-2.3069,-2.2923,-2.2599,-2.289,-2.3069,-2.3069,-2.3628,-2.3816,-2.3566,-2.3459,-2.3189,-2.2695,-2.2865,-2.2832,-2.2599,-2.2996,-2.3115,0.0,0.0,0.0,-2.5303,0.0,0.0,0.0,0.0,-2.5166,0.0,0.0,0.0,0.0,0.0,0.0,0.0,0.0,0.0,0.0,0.0,0.0,0.0,0.0,0.0,0.0,0.0,0.0,0.0,0.0,0.0,-1.3838,-1.3985,-1.4277,-1.4664,-1.4564,-1.4074,-1.3236,-1.3845,-1.3497,-1.2226,-1.2475,-1.2857,-1.3295,-1.3312,-1.3716,-1.44,-1.4412,-1.4592,-1.4876,-1.4561,-1.489,-1.5623,-1.5833,-1.6389,-1.7171,-1.7633,-1.7811,-1.7811,-1.7811,-1.7811,-1.7856,-1.8142,-1.8208,-1.827,-1.8563,-1.9704,-2.0975,-2.1347,-2.2684,-2.41,-2.4644,-2.4904,-2.5072,-2.5332,-2.5394,-2.5428,-2.5479,-2.5498,-2.5498,-2.5493,-2.544,-2.5401,-2.5394,-2.5394,-2.5383,-2.5313,-2.5152,-2.4924,-2.4648,-2.4275,-2.3894,-2.3557,-2.3325,-2.3069,-2.2746,-2.2721,-2.2599,-2.2321,-2.2563,-2.2721,-2.2721,-2.3045,-2.323,-2.323,-2.2898,-2.2721,-2.2695,-2.2453,-2.2321,-2.2338,-2.2933,-2.2415,0.0,0.0,-2.3658,-2.4332,0.0,0.0,0.0,0.0,0.0,0.0,0.0,0.0,0.0,0.0,0.0,0.0,0.0,0.0,0.0,0.0,0.0,0.0,0.0,0.0,0.0,0.0,0.0,0.0,0.0,0.0,0.0,-1.434,-1.4622,-1.4682,-1.4904,-1.4627,-1.3797,-1.3871,-1.3476,-1.2591,-1.2427,-1.2416,-1.2575,-1.2878,-1.3177,-1.3434,-1.3782,-1.3943,-1.3992,-1.4143,-1.4234,-1.4341,-1.4932,-1.5552,-1.6243,-1.7376,-1.7811,-1.7811,-1.7811,-1.7811,-1.7811,-1.7922,-1.7927,-1.7949,-1.804,-1.8901,-2.0022,-2.0891,-2.2048,-2.3249,-2.4309,-2.4654,-2.4747,-2.5061,-2.5137,-2.5178,-2.5327,-2.5262,-2.5168,-2.5168,-2.5075,-2.4991,-2.4991,-2.4991,-2.5022,-2.5088,-2.5034,-2.4892,-2.4564,-2.4026,-2.3572,-2.3343,-2.289,-2.2571,-2.2436,-2.2453,-2.2415,-2.231,-2.2563,-2.2695,-2.2695,-2.3021,-2.3189,-2.3189,-2.2873,-2.2695,-2.2695,-2.2426,-2.231,-2.231,-2.2508,-2.2418,-2.3424,-2.298,0.0,-2.3291,-2.298,0.0,-2.3458,0.0,0.0,0.0,0.0,0.0,0.0,0.0,0.0,0.0,0.0,0.0,0.0,0.0,0.0,0.0,0.0,0.0,0.0,0.0,-1.1862,-1.2169,0.0,0.0,0.0,0.0,-1.5281,-1.4997,-1.5373,-1.5029,-1.3912,-1.3712,-1.3212,-1.2405,-1.2045,-1.1946,-1.2035,-1.2466,-1.2734,-1.2917,-1.3257,-1.3415,-1.3418,-1.3601,-1.3591,-1.356,-1.4281,-1.4822,-1.5392,-1.6864,-1.7574,-1.7811,-1.7811,-1.7811,-1.7811,-1.7811,-1.7811,-1.7811,-1.7811,-1.8603,-1.9768,-2.0725,-2.1843,-2.3025,-2.419,-2.4495,-2.4575,-2.4864,-2.4943,-2.4968,-2.5084,-2.5024,-2.4943,-2.4943,-2.4869,-2.4804,-2.4804,-2.4804,-2.4828,-2.4917,-2.4872,-2.467,-2.421,-2.3694,-2.3257,-2.2933,-2.2535,-2.231,-2.231,-2.2152,-2.2032,-2.2032,-2.222,-2.2324,-2.2324,-2.2686,-2.2883,-2.2883,-2.2669,-2.2493,-2.2324,-2.2141,-2.1974,-2.1857,-2.1857,-2.1924]},{"header":{"parameterUnit":"m.s-1","parameterCategory":1,"la1":30.6,"la2":29.2853,"lo1":-89.7004,"lo2":-87.6739,"dy":0.0162,"dx":0.0183,"nx":112,"ny":82,"refTime":"2024-07-17T12:00:00:Z","depth":0,"parameterNumber":3,"parameterNumberName":"V-component_of_WINDS"},"data":[0.0,0.0,0.0,0.0,0.0,0.0,0.0,0.0,0.0,0.0,0.0,0.0,0.0,0.0,0.0,0.0,0.0,0.0,0.0,0.0,0.0,0.0,0.0,0.0,0.0,0.0,0.0,0.0,0.0,0.0,0.0,0.0,0.0,0.0,0.0,0.0,0.0,0.0,0.0,0.0,0.0,0.0,0.0,0.0,0.0,0.0,0.0,0.0,0.0,0.0,0.0,0.0,0.0,0.0,0.0,0.0,0.0,0.0,0.0,0.0,0.0,0.0,0.0,0.0,0.0,0.0,0.0,0.0,0.0,0.0,0.0,0.0,0.0,0.0,0.0,0.0,0.0,0.0,0.0,0.0,0.0,0.0,0.0,0.0,0.0,0.0,0.0,0.0,0.0,0.0,-1.2988,-1.3646,-1.3612,-1.3985,-1.4969,-1.6055,-1.6631,-1.6542,0.0,0.0,0.0,0.0,0.0,0.0,0.0,0.0,0.0,0.0,0.0,0.0,0.0,0.0,0.0,0.0,0.0,0.0,0.0,0.0,0.0,0.0,0.0,0.0,0.0,0.0,0.0,0.0,0.0,0.0,0.0,0.0,0.0,0.0,0.0,0.0,0.0,0.0,0.0,0.0,0.0,0.0,0.0,0.0,0.0,0.0,0.0,0.0,0.0,0.0,0.0,0.0,0.0,0.0,0.0,0.0,0.0,0.0,0.0,0.0,0.0,0.0,0.0,0.0,0.0,0.0,0.0,0.0,0.0,0.0,0.0,0.0,0.0,0.0,0.0,0.0,0.0,0.0,0.0,0.0,0.0,0.0,0.0,0.0,0.0,0.0,0.0,0.0,0.0,0.0,0.0,0.0,0.0,0.0,0.0,0.0,0.0,0.0,0.0,0.0,0.0,0.0,0.0,0.0,-1.2769,-1.3886,-1.3587,-1.344,-1.3858,-1.515,-1.5998,-1.6166,0.0,0.0,0.0,0.0,0.0,0.0,0.0,0.0,0.0,0.0,0.0,0.0,0.0,0.0,0.0,0.0,0.0,0.0,0.0,0.0,0.0,0.0,0.0,0.0,0.0,0.0,0.0,0.0,0.0,0.0,0.0,0.0,0.0,0.0,0.0,0.0,0.0,0.0,0.0,0.0,0.0,0.0,0.0,0.0,0.0,0.0,0.0,0.0,0.0,0.0,0.0,0.0,0.0,0.0,0.0,0.0,0.0,0.0,0.0,0.0,0.0,0.0,0.0,0.0,0.0,0.0,0.0,0.0,0.0,0.0,0.0,0.0,0.0,0.0,0.0,0.0,0.0,0.0,0.0,0.0,0.0,0.0,0.0,0.0,0.0,0.0,0.0,0.0,0.0,0.0,0.0,0.0,0.0,0.0,0.0,0.0,0.0,0.0,0.0,0.0,0.0,0.0,0.0,-1.3048,-1.3082,-1.3732,-1.3467,-1.32,-1.316,-1.4766,-1.5703,-1.5539,-1.793,0.0,0.0,0.0,0.0,0.0,0.0,0.0,0.0,0.0,0.0,0.0,0.0,0.0,0.0,0.0,0.0,0.0,0.0,0.0,0.0,0.0,0.0,0.0,0.0,0.0,0.0,0.0,0.0,0.0,0.0,0.0,0.0,0.0,0.0,0.0,0.0,0.0,0.0,0.0,0.0,0.0,0.0,0.0,0.0,0.0,0.0,0.0,0.0,0.0,0.0,0.0,0.0,0.0,0.0,0.0,0.0,0.0,0.0,0.0,0.0,0.0,0.0,0.0,0.0,0.0,0.0,0.0,0.0,0.0,0.0,0.0,0.0,0.0,0.0,0.0,0.0,0.0,0.0,0.0,0.0,0.0,0.0,0.0,0.0,0.0,0.0,0.0,0.0,0.0,0.0,0.0,0.0,0.0,0.0,0.0,0.0,0.0,0.0,0.0,0.0,0.0,0.0,-1.3108,-1.329,-1.35,-1.328,-1.3006,-1.2842,-1.4444,-1.5435,-1.5258,-1.7133,0.0,0.0,0.0,0.0,0.0,0.0,0.0,0.0,0.0,0.0,0.0,0.0,0.0,0.0,0.0,0.0,0.0,0.0,0.0,0.0,0.0,0.0,0.0,0.0,0.0,0.0,0.0,0.0,0.0,0.0,0.0,0.0,0.0,0.0,0.0,0.0,0.0,0.0,0.0,0.0,0.0,0.0,0.0,0.0,0.0,0.0,0.0,0.0,0.0,0.0,0.0,0.0,0.0,0.0,0.0,0.0,0.0,0.0,0.0,0.0,0.0,0.0,0.0,0.0,0.0,0.0,0.0,0.0,0.0,0.0,0.0,0.0,0.0,0.0,0.0,0.0,0.0,0.0,0.0,0.0,0.0,0.0,0.0,0.0,0.0,0.0,0.0,0.0,0.0,0.0,0.0,0.0,0.0,0.0,0.0,0.0,0.0,0.0,0.0,0.0,0.0,0.0,-1.2685,-1.32,-1.324,-1.2966,-1.2849,-1.2829,-1.3879,-1.5,-1.593,-1.6467,0.0,0.0,0.0,0.0,0.0,0.0,0.0,0.0,0.0,0.0,0.0,0.0,0.0,0.0,0.0,0.0,0.0,0.0,0.0,0.0,0.0,0.0,0.0,0.0,0.0,0.0,0.0,0.0,0.0,0.0,0.0,0.0,0.0,0.0,0.0,0.0,0.0,0.0,0.0,0.0,0.0,0.0,0.0,0.0,0.0,0.0,0.0,0.0,0.0,0.0,0.0,0.0,0.0,0.0,0.0,0.0,0.0,0.0,0.0,0.0,0.0,0.0,0.0,0.0,0.0,0.0,0.0,0.0,0.0,0.0,0.0,0.0,0.0,0.0,0.0,0.0,0.0,0.0,0.0,0.0,0.0,0.0,0.0,0.0,0.0,0.0,0.0,0.0,0.0,0.0,0.0,0.0,0.0,0.0,0.0,0.0,0.0,0.0,0.0,0.0,0.0,0.0,-1.1787,-1.2011,0.0,-1.2896,-1.2969,-1.3364,-1.4339,-1.5536,-1.6874,0.0,0.0,0.0,0.0,0.0,0.0,0.0,0.0,0.0,0.0,0.0,0.0,0.0,0.0,0.0,0.0,0.0,0.0,0.0,0.0,0.0,0.0,0.0,0.0,0.0,0.0,0.0,0.0,0.0,0.0,0.0,0.0,0.0,0.0,0.0,0.0,0.0,0.0,0.0,0.0,0.0,0.0,0.0,0.0,0.0,0.0,0.0,0.0,0.0,0.0,0.0,0.0,0.0,0.0,0.0,0.0,0.0,0.0,0.0,0.0,0.0,0.0,0.0,0.0,0.0,0.0,0.0,0.0,0.0,0.0,0.0,0.0,0.0,0.0,0.0,0.0,0.0,0.0,0.0,0.0,0.0,0.0,0.0,0.0,0.0,0.0,0.0,0.0,0.0,0.0,0.0,0.0,0.0,0.0,0.0,0.0,0.0,0.0,0.0,0.0,0.0,0.0,-1.159,-1.1174,-1.1234,0.0,-1.2605,-1.2961,-1.3615,-1.4395,-1.5455,-1.7134,0.0,0.0,0.0,0.0,0.0,0.0,0.0,0.0,0.0,0.0,0.0,0.0,0.0,0.0,0.0,0.0,0.0,0.0,0.0,0.0,0.0,0.0,0.0,0.0,0.0,0.0,0.0,0.0,0.0,0.0,0.0,0.0,0.0,0.0,0.0,0.0,0.0,0.0,0.0,0.0,0.0,0.0,0.0,0.0,0.0,0.0,0.0,0.0,0.0,0.0,0.0,0.0,0.0,0.0,0.0,0.0,0.0,0.0,0.0,0.0,0.0,0.0,0.0,0.0,0.0,0.0,0.0,0.0,0.0,0.0,0.0,0.0,0.0,0.0,0.0,0.0,0.0,0.0,0.0,0.0,0.0,0.0,0.0,0.0,0.0,0.0,0.0,0.0,0.0,0.0,0.0,0.0,0.0,0.0,0.0,0.0,0.0,0.0,0.0,0.0,0.0,0.0,-1.1268,-1.105,-1.1168,-1.2224,-1.2305,-1.2739,-1.3673,-1.3829,-1.4731,0.0,0.0,0.0,0.0,0.0,0.0,0.0,0.0,0.0,0.0,0.0,0.0,0.0,0.0,0.0,0.0,0.0,0.0,0.0,0.0,0.0,0.0,0.0,0.0,0.0,0.0,0.0,0.0,0.0,0.0,0.0,0.0,0.0,0.0,0.0,0.0,0.0,0.0,0.0,0.0,0.0,0.0,0.0,0.0,0.0,0.0,0.0,0.0,0.0,0.0,0.0,0.0,0.0,0.0,0.0,0.0,0.0,0.0,0.0,0.0,0.0,0.0,0.0,0.0,0.0,0.0,0.0,0.0,0.0,0.0,0.0,0.0,0.0,0.0,0.0,0.0,0.0,0.0,0.0,0.0,0.0,0.0,0.0,0.0,0.0,0.0,0.0,0.0,0.0,0.0,0.0,0.0,0.0,0.0,0.0,0.0,0.0,0.0,0.0,0.0,0.0,0.0,0.0,-1.0929,-1.0938,-1.1168,-1.2224,-1.2879,-1.3665,-1.4665,-1.5069,-1.5983,-1.7562,0.0,0.0,0.0,0.0,0.0,0.0,0.0,0.0,0.0,0.0,0.0,0.0,0.0,0.0,0.0,0.0,0.0,0.0,0.0,0.0,0.0,0.0,0.0,0.0,0.0,0.0,0.0,0.0,0.0,0.0,0.0,0.0,0.0,0.0,0.0,0.0,0.0,0.0,0.0,0.0,0.0,0.0,0.0,0.0,0.0,0.0,0.0,0.0,0.0,0.0,0.0,0.0,0.0,0.0,0.0,0.0,0.0,0.0,0.0,0.0,0.0,0.0,0.0,0.0,0.0,0.0,0.0,0.0,0.0,0.0,0.0,0.0,0.0,0.0,0.0,0.0,0.0,0.0,0.0,0.0,0.0,0.0,0.0,0.0,0.0,0.0,0.0,0.0,0.0,0.0,0.0,0.0,0.0,0.0,0.0,0.0,0.0,0.0,0.0,0.0,0.0,0.0,-1.071,-1.0628,-1.0888,-1.2045,-1.2985,-1.3899,-1.4808,-1.5358,-1.6262,-1.7785,0.0,0.0,0.0,0.0,0.0,0.0,0.0,0.0,0.0,0.0,0.0,0.0,0.0,0.0,0.0,0.0,0.0,0.0,0.0,0.0,0.0,0.0,0.0,0.0,0.0,0.0,0.0,0.0,0.0,0.0,0.0,0.0,0.0,0.0,0.0,0.0,0.0,0.0,0.0,0.0,0.0,0.0,0.0,0.0,0.0,0.0,0.0,0.0,0.0,0.0,0.0,0.0,0.0,0.0,0.0,0.0,0.0,0.0,0.0,0.0,0.0,0.0,0.0,0.0,0.0,0.0,0.0,0.0,0.0,0.0,0.0,0.0,0.0,0.0,0.0,0.0,0.0,0.0,0.0,0.0,0.0,0.0,0.0,0.0,0.0,0.0,0.0,0.0,0.0,0.0,0.0,0.0,0.0,0.0,0.0,0.0,0.0,0.0,0.0,0.0,0.0,0.0,-1.0514,-1.0311,-1.0602,-1.1868,-1.2866,-1.3754,-1.4501,-1.5099,-1.5984,-1.7423,0.0,0.0,0.0,0.0,0.0,0.0,0.0,0.0,0.0,0.0,0.0,0.0,0.0,0.0,0.0,0.0,0.0,0.0,0.0,0.0,0.0,0.0,0.0,0.0,0.0,0.0,0.0,0.0,0.0,0.0,0.0,0.0,0.0,0.0,0.0,0.0,0.0,0.0,0.0,0.0,0.0,0.0,0.0,0.0,0.0,0.0,0.0,0.0,0.0,0.0,0.0,0.0,0.0,0.0,0.0,0.0,0.0,0.0,0.0,0.0,-0.7957,0.0,0.0,0.0,0.0,0.0,0.0,0.0,0.0,0.0,0.0,0.0,0.0,0.0,0.0,0.0,0.0,0.0,0.0,0.0,0.0,0.0,0.0,0.0,0.0,0.0,0.0,0.0,0.0,0.0,0.0,0.0,0.0,0.0,0.0,0.0,0.0,0.0,0.0,0.0,0.0,0.0,-1.0674,-1.1452,-1.2194,-1.247,-1.3931,-1.4924,-1.5112,-1.5603,-1.6367,-1.7457,-1.6647,0.0,0.0,0.0,0.0,0.0,0.0,0.0,0.0,0.0,0.0,0.0,0.0,0.0,0.0,0.0,0.0,0.0,0.0,0.0,0.0,0.0,0.0,0.0,0.0,0.0,0.0,0.0,0.0,0.0,0.0,0.0,0.0,0.0,0.0,0.0,0.0,0.0,0.0,0.0,0.0,0.0,0.0,0.0,0.0,0.0,0.0,0.0,0.0,0.0,0.0,0.0,0.0,0.0,0.0,0.0,0.0,0.0,0.0,0.0,0.0,-0.9608,0.0,0.0,0.0,0.0,0.0,0.0,0.0,0.0,0.0,0.0,0.0,0.0,0.0,0.0,0.0,0.0,0.0,0.0,0.0,0.0,0.0,0.0,0.0,0.0,0.0,0.0,0.0,0.0,0.0,0.0,0.0,0.0,0.0,0.0,0.0,0.0,0.0,0.0,0.0,0.0,-1.1616,-1.1989,-1.2485,-1.2972,-1.4277,-1.5106,-1.5043,-1.5681,-1.6504,-1.7501,-1.6558,0.0,0.0,0.0,0.0,0.0,0.0,0.0,0.0,0.0,0.0,0.0,0.0,0.0,0.0,0.0,0.0,0.0,0.0,0.0,0.0,0.0,0.0,0.0,0.0,0.0,0.0,0.0,0.0,0.0,0.0,0.0,0.0,0.0,0.0,0.0,0.0,0.0,0.0,0.0,0.0,0.0,0.0,0.0,0.0,0.0,0.0,0.0,0.0,0.0,0.0,0.0,0.0,0.0,-0.5441,-0.5853,-0.6637,-0.793,-0.8932,-0.9683,-0.9417,-1.0312,-1.1992,0.0,0.0,0.0,0.0,0.0,0.0,0.0,0.0,0.0,0.0,0.0,0.0,0.0,0.0,0.0,0.0,0.0,0.0,0.0,0.0,0.0,0.0,0.0,0.0,0.0,-1.7163,-1.8115,0.0,0.0,0.0,0.0,0.0,0.0,0.0,0.0,0.0,0.0,0.0,0.0,-1.2689,-1.2398,-1.2553,-1.3468,-1.4391,-1.4955,-1.4823,-1.5514,-1.6364,-1.7335,-1.6635,-1.6719,0.0,0.0,0.0,0.0,0.0,0.0,0.0,0.0,0.0,0.0,0.0,0.0,0.0,0.0,0.0,0.0,0.0,0.0,0.0,0.0,0.0,0.0,0.0,0.0,0.0,0.0,0.0,0.0,0.0,0.0,0.0,0.0,-0.3007,-0.3974,0.0,0.0,0.0,0.0,0.0,0.0,0.0,0.0,0.0,0.0,0.0,0.0,0.0,-0.4898,-0.4883,-0.5957,-0.6525,-0.6698,-0.675,-0.683,-0.6875,-0.8217,-0.9117,-0.962,-1.0706,0.0,-1.3245,-1.3339,0.0,0.0,0.0,0.0,0.0,0.0,0.0,0.0,0.0,0.0,0.0,0.0,0.0,0.0,0.0,0.0,0.0,0.0,0.0,0.0,0.0,0.0,-1.5233,-1.7148,-1.8367,-1.9541,0.0,-2.0378,-1.9698,-1.9456,0.0,0.0,0.0,0.0,0.0,0.0,0.0,0.0,-1.3055,-1.352,-1.3923,-1.4096,-1.4831,-1.5322,-1.5322,-1.5439,-1.5808,-1.6595,-1.6688,-1.686,-1.723,-1.7698,0.0,0.0,0.0,0.0,0.0,0.0,0.0,0.0,0.0,0.0,0.0,0.0,0.0,0.0,0.0,0.0,0.0,0.0,0.0,0.0,0.0,0.0,0.0,0.0,0.0,0.0,0.0,0.0,0.0,-0.197,-0.3178,-0.3803,-0.4931,-0.5804,0.0,0.0,0.0,0.0,0.0,0.0,0.0,0.0,0.0,-0.7757,-0.7343,-0.7112,-0.7112,-0.7018,-0.7007,-0.6929,-0.6993,-0.6898,-0.6757,-0.8651,-0.9519,-0.9708,-1.1061,-1.1834,-1.2205,-1.1851,-1.1361,-1.0797,0.0,0.0,0.0,0.0,0.0,-1.0585,-1.0013,-1.0136,0.0,0.0,0.0,0.0,0.0,0.0,0.0,0.0,0.0,0.0,0.0,0.0,0.0,-1.8339,-1.9959,-2.1479,-2.2337,-2.2751,-2.268,0.0,-2.2356,-2.2531,-2.1587,0.0,0.0,0.0,0.0,-1.47,-1.4382,-1.4273,-1.4382,-1.4815,-1.5177,-1.541,-1.541,-1.541,-1.5753,-1.659,-1.6751,-1.7094,-1.7702,-1.8049,-1.7978,0.0,0.0,0.0,0.0,0.0,0.0,0.0,0.0,0.0,0.0,0.0,0.0,0.0,0.0,0.0,0.0,0.0,0.0,0.0,0.0,0.0,0.0,0.0,0.0,0.0,0.0,0.0,0.0,-0.2207,-0.3291,-0.3728,-0.5155,-0.6382,0.0,0.0,0.0,0.0,0.0,0.0,-1.0256,-1.0351,-1.0417,-1.0417,-0.958,-0.9181,-0.9181,-0.8123,-0.7523,-0.7411,-0.7032,-0.679,-0.6613,-0.89,-0.9792,-0.9704,-1.1025,-1.1241,-1.0682,-1.0387,-0.9824,-0.9357,-0.9922,-1.0248,-1.0413,-1.0562,-1.0997,-1.1507,-1.1156,-1.1467,-1.1971,-1.1975,0.0,-1.1461,-1.1307,0.0,0.0,0.0,0.0,-1.4212,-1.6125,0.0,-1.7978,-1.9339,-2.1118,-2.2683,-2.3225,-2.4416,-2.5168,0.0,-2.4517,-2.457,-2.3156,0.0,0.0,0.0,0.0,-1.5573,-1.54,-1.4874,-1.4746,-1.5352,-1.541,-1.541,-1.541,-1.541,-1.577,-1.6688,-1.676,-1.7203,-1.8116,-1.8309,-1.8355,-1.8204,0.0,0.0,0.0,0.0,0.0,0.0,0.0,0.0,0.0,0.0,0.0,0.0,0.0,0.0,0.0,0.0,0.0,0.0,0.0,0.0,0.0,0.0,0.0,0.0,0.0,0.0,0.0,0.0,0.0,-0.3142,-0.509,0.0,0.0,0.0,0.0,-0.9559,-1.075,-1.1887,-1.2969,-1.2264,-1.1822,-1.1822,-1.098,-1.0509,-1.0509,-0.9401,-0.8798,-0.8786,-0.7508,-0.6844,-0.6771,-0.8887,-0.9711,-0.9402,-1.0704,-1.0522,-0.9392,-0.9646,-0.9559,-0.9296,-0.9362,-0.9813,-1.0431,-1.0677,-1.1272,-1.1891,-1.2105,-1.2204,-1.2278,-1.2271,-1.2096,-1.1884,-1.183,-1.2466,0.0,0.0,-1.4196,-1.5309,-1.6327,-1.6807,-1.7658,-1.9976,-2.134,-2.2549,-2.3914,-2.541,-2.6199,0.0,-2.5895,-2.5788,-2.3858,0.0,-2.1602,-1.8992,-1.7357,-1.6197,-1.5468,-1.5352,-1.5352,-1.541,-1.541,-1.541,-1.541,-1.541,-1.5738,-1.6451,-1.6678,-1.7144,-1.7894,-1.861,-1.8744,-1.8216,-1.8694,0.0,0.0,0.0,0.0,0.0,0.0,0.0,0.0,0.0,0.0,0.0,0.0,0.0,0.0,0.0,0.0,0.0,0.0,0.0,0.0,0.0,0.0,0.0,0.0,0.0,0.0,0.0,0.0,-0.4162,-0.5633,0.0,-0.8453,-0.888,-0.9912,-1.1824,-1.2492,-1.3046,-1.34,-1.3341,-1.3316,-1.3316,-1.2287,-1.1724,-1.1724,-1.0524,-0.9871,-0.9516,-0.9032,-0.8671,-0.8443,-0.9828,-1.0046,-0.9301,-0.9764,-0.9367,-0.8313,-0.7723,-0.7492,-0.7403,-0.8084,-0.8869,-0.9776,-1.053,-1.1403,-1.2164,-1.2265,-1.2305,-1.2305,-1.2305,-1.2211,-1.2184,-1.2138,-1.279,-1.3701,-1.4347,-1.5064,-1.5989,-1.7452,-1.8087,-1.8691,-2.0037,-2.1349,-2.2557,-2.3595,-2.4552,-2.5269,-2.5502,-2.6115,-2.6056,-2.4509,-2.335,-2.188,-1.9531,-1.8032,-1.6754,-1.5584,-1.541,-1.541,-1.541,-1.541,-1.541,-1.541,-1.541,-1.579,-1.6645,-1.6782,-1.7324,-1.8534,-1.8871,-1.9095,-1.9233,-1.9095,-1.8656,0.0,0.0,0.0,0.0,0.0,0.0,0.0,0.0,0.0,0.0,0.0,0.0,0.0,0.0,0.0,0.0,0.0,0.0,0.0,0.0,0.0,0.0,0.0,0.0,0.0,0.0,-0.3841,-0.482,-0.5975,-0.727,-0.8647,-0.948,-1.0584,-1.2231,-1.3257,-1.3794,-1.3794,-1.3981,-1.4088,-1.4088,-1.2942,-1.2504,-1.2942,-1.131,-1.0516,-1.0539,-1.0059,-0.9602,-0.9402,-1.0003,-0.9895,-0.9301,-0.8922,-0.8389,-0.7706,-0.6718,-0.6338,-0.6338,-0.7022,-0.7936,-0.8917,-0.989,-1.0938,-1.1842,-1.215,-1.2305,-1.2305,-1.2305,-1.2305,-1.2372,-1.2666,-1.3455,-1.4386,-1.5196,-1.6096,-1.7005,-1.8024,-1.8726,-1.9428,-2.0305,-2.1548,-2.2774,-2.3722,-2.4408,-2.4971,-2.5226,-2.5809,-2.5914,-2.4761,-2.3536,-2.1979,-1.9826,-1.8437,-1.7079,-1.5575,-1.541,-1.541,-1.541,-1.541,-1.541,-1.541,-1.541,-1.5894,-1.7002,-1.6888,-1.7549,-1.9183,-1.912,-1.9271,-1.9798,-1.9296,-1.8932,-1.8744,0.0,0.0,0.0,0.0,0.0,0.0,0.0,0.0,0.0,0.0,0.0,0.0,0.0,0.0,0.0,0.0,0.0,0.0,0.0,0.0,0.0,0.0,0.0,-0.1576,-0.2775,-0.3787,-0.4844,-0.5943,-0.6695,-0.6781,-0.8892,-1.0432,-1.0661,-1.276,-1.4075,-1.4075,-1.4082,-1.4088,-1.3997,-1.2942,-1.2936,-1.3984,-1.1578,-1.0856,-1.1917,-1.0375,-0.961,-0.9594,-0.9469,-0.9372,-0.9221,-0.8237,-0.7783,-0.7706,-0.6718,-0.6335,-0.6254,-0.6335,-0.6945,-0.7931,-0.8912,-0.9954,-1.0989,-1.1896,-1.2278,-1.2271,-1.2271,-1.2352,-1.2579,-1.344,-1.4442,-1.5305,-1.5743,-1.7162,-1.8385,-1.7931,-1.8614,-1.9693,-2.0927,-2.1944,-2.3008,-2.4174,-2.5017,-2.5364,-2.4687,-2.5106,-2.5345,-2.4657,-2.3507,-2.1952,-1.9826,-1.8437,0.0,-1.5575,-1.541,-1.541,-1.541,-1.541,-1.541,-1.541,-1.541,-1.6026,-1.7468,-1.7055,-1.7699,-1.967,-1.9246,-1.9271,-1.9798,-1.9296,-1.9284,-1.9798,0.0,0.0,0.0,0.0,0.0,0.0,0.0,0.0,0.0,0.0,0.0,0.0,0.0,0.0,0.0,0.0,0.0,0.0,0.0,0.0,0.0,-0.0423,-0.0519,-0.2485,-0.3049,-0.4017,-0.582,-0.6347,-0.6898,-0.7823,-0.8491,-0.9494,-1.1275,-1.2212,-1.3003,-1.3678,-1.3968,-1.373,-1.2851,-1.3294,-1.3283,-1.248,-1.2585,-1.2594,-1.2583,-1.2106,-1.1777,-1.1502,-1.1509,-1.0651,-0.9296,-0.8993,-0.8084,-0.6721,-0.6416,-0.6196,-0.6105,-0.6217,-0.7326,-0.8898,-0.8956,-0.988,-1.1237,-1.1523,-1.2082,-1.2567,-1.2567,-1.3192,-1.3933,-1.4212,-1.4965,-1.5718,-1.5863,-1.6672,-1.7683,-1.8057,-1.8906,-1.9848,-2.0705,-2.1842,-2.2807,-2.3136,-2.3718,-2.4073,-2.3909,-2.4029,-2.4088,-2.3909,-2.2818,-2.1402,-1.9762,-1.8437,0.0,-1.5575,-1.541,-1.541,-1.541,-1.541,-1.541,-1.541,-1.541,-1.5806,-1.6765,-1.6797,-1.7478,-1.8967,-1.8993,-1.9271,-1.9798,-1.9296,-1.9284,0.0,0.0,0.0,0.0,0.0,0.0,0.0,0.0,0.0,0.0,0.0,0.0,0.0,0.0,0.0,0.0,0.0,0.0,0.0,0.0,0.0,0.0,-0.1733,-0.1965,-0.3516,-0.3841,-0.4559,-0.6301,-0.642,-0.6756,-0.7546,-0.7957,-0.8763,-1.0176,-1.0893,-1.1554,-1.2131,-1.2365,-1.2105,-1.1427,-1.2016,-1.22,-1.1793,-1.2265,-1.2608,-1.2822,-1.2694,-1.2472,-1.2298,-1.1848,-1.0795,0.0,-0.8745,-0.766,-0.6159,-0.6095,-0.6013,0.0,0.0,0.0,0.0,0.0,-0.9862,-1.1423,-1.1833,-1.2308,-1.2781,-1.3109,-1.3703,-1.4328,-1.4731,-1.519,-1.5749,-1.6287,-1.7042,-1.7781,-1.8321,-1.9307,-2.0329,-2.0997,-2.1732,-2.2422,-2.2951,-2.317,-2.3295,-2.355,0.0,0.0,-2.3231,-2.2377,-2.1116,-1.9368,-1.8247,-1.7079,0.0,-1.541,-1.541,-1.541,-1.541,-1.541,-1.541,-1.541,0.0,0.0,0.0,-1.7276,-1.865,-1.9089,0.0,0.0,0.0,0.0,0.0,0.0,0.0,0.0,-1.8868,-1.8341,0.0,0.0,0.0,0.0,0.0,0.0,0.0,0.0,0.0,0.0,0.0,0.0,0.0,0.0,0.0,0.0,-0.3225,-0.3661,-0.4732,-0.4822,-0.5251,-0.6327,-0.6295,-0.6264,-0.641,-0.7363,-0.8066,-0.8324,-0.9333,-1.0004,-1.0165,0.0,0.0,0.0,0.0,-1.0498,-1.1455,-1.1294,-1.171,-1.2768,-1.2398,-1.2271,-1.2298,-1.136,-1.0392,-0.9432,-0.8166,-0.713,-0.6165,-0.5937,-0.5793,-0.5793,-0.6016,-0.6127,-0.6268,-0.8098,-0.9823,0.0,0.0,0.0,0.0,-1.3581,-1.3991,-1.4286,-1.5129,-1.5451,-1.5759,-1.69,-1.7734,-1.8393,-1.8713,-1.9862,-2.1067,-2.1697,-2.1818,-2.2134,-2.3241,-2.3011,-2.2727,-2.318,-2.2849,-2.2433,-2.2298,-2.1923,-2.0935,-1.9004,-1.8066,0.0,-1.569,-1.5468,-1.541,-1.541,0.0,0.0,-1.541,-1.541,-1.569,-1.6322,-1.6539,-1.7191,-1.8501,-1.9371,-1.9695,-1.9579,-1.9631,-1.9768,-2.0028,-1.9186,-1.8905,-1.9204,-1.8248,-1.7691,0.0,0.0,0.0,0.0,0.0,0.0,0.0,0.0,0.0,0.0,0.0,0.0,0.0,0.0,0.0,-0.4084,-0.4358,-0.4709,-0.5629,-0.5767,-0.5852,-0.6036,-0.5983,-0.5949,-0.6101,-0.6266,-0.6855,-0.7871,-0.8339,-0.8979,-0.9769,-1.0023,0.0,-0.881,-1.0433,-1.0908,-0.9917,-1.1593,-1.2391,-1.2385,0.0,0.0,-1.2291,-1.1834,-1.1265,-1.0473,-0.9275,-0.8153,-0.7114,-0.6223,-0.5735,-0.5713,-0.6702,-0.7364,-0.7884,-0.904,-1.006,-1.0792,-1.0921,-1.1855,-1.2975,-1.3091,-1.4285,-1.5681,-1.5865,-1.6345,0.0,-1.7155,-1.791,-1.8785,-1.9337,-2.0515,-2.1697,-2.2346,-2.2498,-2.2572,-2.2832,-2.2338,-2.1783,-2.1462,-2.1309,-2.0955,-1.9948,-2.0435,-2.0657,-1.9647,-1.8401,-1.7302,-1.6425,-1.5758,-1.541,-1.541,-1.541,-1.541,-1.541,-1.541,-1.5468,-1.5584,-1.6743,-1.7523,-1.7786,-1.9097,-1.9254,-1.8058,-1.8608,-1.8873,-1.8817,-1.8267,-1.8259,-1.8742,-1.8177,-1.7927,0.0,0.0,0.0,0.0,0.0,0.0,0.0,0.0,0.0,0.0,0.0,-0.0317,-0.1283,0.0,-0.286,-0.4339,-0.5015,-0.5503,-0.5966,-0.5901,-0.5837,-0.5908,-0.5847,-0.583,-0.5908,-0.5915,-0.6198,-0.6878,-0.7046,-0.7358,-0.7991,-0.8164,-0.8211,-0.8128,-0.9625,-1.0423,-1.0133,-1.1614,-1.2231,-1.2084,-1.1784,-1.1724,-1.1857,-1.171,-1.1147,-1.0312,-0.9216,-0.8413,-0.7765,-0.7151,-0.6615,-0.6281,-0.7238,-0.7822,-0.8129,-0.8662,-0.9568,-1.0681,-1.1045,-1.1965,-1.307,-1.3494,-1.4588,-1.5732,-1.5732,-1.6254,-1.6953,-1.7277,-1.8045,-1.8915,-2.0004,-2.0975,-2.1769,-2.2112,-2.2203,-2.2188,-2.2188,-2.145,-2.0826,-2.0889,-2.0415,-1.9697,-1.8819,-1.8856,-1.8983,-1.8829,-1.8194,-1.7371,-1.6348,-1.5848,-1.5522,-1.5155,-1.5098,-1.5098,-1.5098,-1.5098,-1.5186,-1.54,-1.6415,-1.7034,-1.7034,-1.8124,-1.8328,-1.7633,-1.7961,-1.8046,-1.7875,-1.7582,-1.7574,-1.7661,-1.7678,-1.7812,0.0,0.0,0.0,0.0,0.0,0.0,0.0,0.0,-0.0871,-0.0126,0.0,-0.0261,-0.1178,-0.229,-0.3413,-0.4347,-0.5335,-0.601,-0.5952,-0.5715,-0.5579,-0.5661,-0.5671,-0.5684,-0.5715,-0.5715,-0.5789,-0.5973,-0.5986,-0.604,-0.6166,-0.62,-0.6594,-0.7423,-0.8628,-0.96,-1.041,-1.1338,-1.1784,-1.1784,-1.1483,-1.1369,-1.1423,-1.1369,-1.0885,-1.014,-0.8931,-0.8198,-0.7884,-0.7771,-0.7437,-0.7042,-0.7653,-0.8055,-0.8221,-0.8221,-0.9262,-1.0751,-1.1498,-1.2359,-1.3147,-1.3923,-1.4756,-1.541,-1.541,-1.6036,-1.681,-1.7413,-1.8221,-1.919,-2.0484,-2.1067,-2.142,-2.1506,-2.1365,-2.1193,-2.1193,-2.0346,-1.9669,-2.0142,-1.9298,-1.8416,-1.7936,-1.7264,-1.6988,-1.7541,-1.7471,-1.6996,-1.5903,-1.5645,-1.5331,-1.4714,-1.4658,-1.4687,-1.4775,-1.4785,-1.4961,-1.5381,-1.6093,-1.6436,-1.6322,-1.7135,-1.7468,-1.7191,-1.7302,-1.7229,-1.687,-1.6964,-1.685,-1.6611,-1.7051,-1.748,-0.5454,-0.366,-0.2413,-0.2256,-0.2221,-0.2022,0.0,0.0,-0.0904,-0.0133,0.0,-0.0338,-0.1379,-0.2417,-0.3413,-0.4347,-0.5335,-0.5939,-0.5677,-0.5494,-0.5342,-0.522,-0.5206,-0.526,-0.5396,-0.5476,-0.5528,-0.5806,-0.5827,-0.5833,-0.5854,-0.5979,-0.6054,-0.6204,-0.7959,-0.8905,-0.9051,-1.0618,-1.1476,-1.147,-1.1182,-1.1176,-1.1416,-1.1156,-1.1115,-1.1129,-0.9203,-0.7841,-0.6881,-0.6859,-0.7242,-0.7812,-0.7613,-0.8233,-0.9139,-0.9139,-0.9786,-1.0701,-1.1544,-1.236,-1.3108,-1.3934,-1.4725,-1.541,-1.541,-1.6358,-1.7468,-1.7578,-1.8608,-1.985,-2.0597,-2.051,-2.0335,-2.0868,-2.0173,-1.9404,-1.9404,-1.8833,-1.819,-1.7773,-1.7177,-1.6721,-1.6685,-1.5733,-1.5332,-1.6382,-1.5939,-1.5465,-1.531,-1.4712,-1.4253,-1.4209,-1.4209,-1.4365,-1.4746,-1.4785,-1.4961,-1.5381,-1.6093,-1.6208,-1.5526,-1.6856,-1.6968,-1.569,-1.6312,-1.6285,-1.5595,-1.6049,-1.6205,-1.6213,-1.6592,-1.7041,-0.2077,-0.1053,-0.0838,-0.0397,-0.0579,-0.0828,-0.0547,-0.0434,-0.0378,-0.0064,0.0,-0.0129,-0.0598,-0.1909,-0.3134,0.0,-0.4796,-0.5698,-0.5488,-0.5325,-0.5138,-0.4901,-0.4952,-0.5067,-0.5213,-0.5226,-0.5352,-0.5654,-0.5677,-0.5715,-0.5796,-0.5864,-0.6182,-0.6756,-0.7538,-0.847,-0.9542,-1.0143,-1.0699,-1.1169,-1.0882,-1.0808,-1.0915,-1.0795,-1.0542,-1.0114,-0.9271,-0.8375,-0.7502,-0.8027,-0.8329,-0.8509,-0.8848,-0.9218,-0.9516,-0.9166,-0.97,-1.0701,-1.1502,-1.2344,-1.3119,-1.3925,-1.4734,-1.541,-1.541,-1.614,-1.6978,-1.6978,-1.8004,-1.9294,-2.0004,-2.0103,-2.0034,-2.0251,-1.9668,-1.8989,-1.8588,-1.8031,-1.745,-1.6912,-1.6305,-1.5708,-1.5039,-1.4514,-1.4236,-1.4324,-1.4935,-1.5235,-1.4885,-1.4603,-1.4205,-1.3821,-1.3769,-1.3945,-1.4375,-1.418,-1.4219,-1.4639,-1.5183,-1.5379,-1.5049,-1.5894,-1.6026,-1.541,-1.569,-1.569,-1.541,-1.5596,-1.5684,-1.5693,-1.6143,-1.6445,0.0711,0.1163,0.1002,0.1298,0.0866,0.0295,0.0298,0.0121,0.0,0.0,0.0,0.0,0.0,-0.1376,-0.2622,-0.2792,-0.412,-0.5196,-0.5318,-0.5131,-0.4945,-0.4772,-0.4813,-0.4928,-0.5111,-0.5131,-0.524,-0.5508,-0.5528,-0.5572,-0.5674,-0.5722,-0.6093,-0.6792,-0.7065,-0.7832,-0.9231,-0.9472,-0.988,-1.0536,-1.0591,-1.0624,-1.0624,-1.0624,-1.011,-0.9268,-0.9191,-0.8833,-0.8244,-0.8823,-0.9063,-0.9114,-0.9656,-0.98,-0.9635,-0.9092,-0.9547,-1.0586,-1.1389,-1.2119,-1.287,-1.3847,-1.4565,-1.5108,-1.5216,-1.5739,-1.6318,-1.6192,-1.7068,-1.8218,-1.8794,-1.8982,-1.9032,-1.9099,-1.8752,-1.8261,-1.776,-1.7353,-1.6938,-1.6502,-1.5971,-1.5309,-1.4457,-1.4003,-1.3637,-1.319,-1.4073,-1.4623,-1.4185,-1.4135,-1.3949,-1.338,-1.334,-1.3506,-1.3926,-1.3682,-1.3682,-1.4048,-1.4434,-1.4609,-1.4609,-1.4902,-1.5059,-1.5059,-1.5176,-1.5234,-1.5234,-1.5352,-1.541,-1.542,-1.5732,-1.5947,0.2141,0.2644,0.3014,0.2318,0.1641,0.1066,0.1038,0.0493,0.0,0.0,0.0,0.0,0.0,-0.0905,-0.186,-0.2582,-0.3488,-0.4312,-0.5028,-0.4887,-0.4755,-0.4897,-0.4785,-0.4813,0.0,-0.5131,-0.5196,-0.5422,-0.5435,-0.5435,-0.5439,-0.5515,-0.5596,-0.5665,-0.6474,-0.6945,-0.7014,-0.8548,-0.935,-0.935,-1.018,-1.0624,-1.0624,-1.0624,-1.011,-0.9256,-0.8986,-0.8807,-0.8784,-0.8539,-0.8921,-0.9666,-0.9323,-0.9439,-0.9653,-0.9309,-0.9575,-1.0241,-1.1031,-1.1567,-1.2081,-1.37,-1.4234,-1.4332,-1.4715,-1.533,-1.5806,-1.5353,-1.5804,-1.6548,-1.6972,-1.6799,-1.6633,-1.7075,-1.6892,-1.6577,-1.6552,-1.6552,-1.6522,-1.6509,-1.5996,-1.5588,-1.5531,-1.4584,-1.3768,-1.3779,-1.3344,-1.2949,-1.2949,-1.2949,-1.2949,-1.29,-1.29,-1.3066,-1.3486,-1.3516,-1.3682,-1.4048,-1.4087,-1.4097,-1.4097,-1.4107,-1.4116,-1.4116,-1.459,-1.4805,-1.4805,-1.5215,-1.541,-1.541,-1.542,-1.5664,0.4105,0.4076,0.3886,0.3161,0.2382,0.1708,0.121,0.0925,0.0579,0.0116,0.0,0.0,0.0,-0.0742,-0.1716,-0.256,-0.3361,-0.4121,-0.4885,-0.4904,-0.4823,-0.4772,-0.4986,0.0,-0.5131,0.0,0.0,-0.5415,-0.5428,-0.5428,-0.5428,-0.6,-0.6356,-0.6356,-0.7149,-0.7941,-0.8472,-0.9051,-0.9594,-1.0174,-1.023,-1.0267,-1.0261,-1.0067,-0.986,-0.9547,-0.8831,-0.8848,-0.9328,-0.8693,-0.8792,-0.9379,-0.9223,-0.9185,-0.9092,-0.8991,-0.9198,-0.9663,-1.0703,-1.1137,-1.1376,-1.2484,-1.2984,-1.3243,-1.391,-1.444,-1.4783,-1.4879,-1.5508,-1.605,-1.5825,-1.5808,-1.5949,-1.6492,-1.6248,-1.5996,-1.6423,-1.6194,-1.5776,-1.5377,-1.4824,-1.4272,-1.3873,-1.3467,-1.319,-1.319,-1.3017,-1.2881,-1.2881,-1.2881,-1.2881,-1.2881,-1.2881,-1.2773,-1.2373,-1.2382,-1.2438,-1.2577,-1.2865,-1.3023,-1.3023,-1.3273,-1.3422,-1.3422,-1.3606,-1.4042,-1.4785,-1.4932,-1.5137,-1.541,-1.541,-1.5488,0.6202,0.5747,0.506,0.4181,0.3164,0.2261,0.1587,0.1043,0.0551,0.0112,0.0224,0.0395,0.0403,-0.0059,-0.0733,-0.1632,-0.265,-0.3588,-0.4374,-0.4765,-0.4901,-0.4853,-0.5104,-0.5284,0.0,0.0,0.0,-0.5422,-0.5428,-0.5338,-0.5281,-0.6043,-0.6527,-0.6464,-0.7354,-0.8059,-0.8487,-0.8891,-0.9525,-1.0309,-1.0053,-0.996,-0.9953,-0.9773,-0.9686,-0.9679,-0.8971,-0.8991,-0.9455,-0.8827,-0.8738,-0.903,-0.903,-0.8971,-0.8804,-0.8804,-0.8925,-0.9152,-1.0022,-1.0365,-1.0615,-1.1432,-1.1841,-1.2217,-1.3242,-1.3648,-1.388,-1.4224,-1.4683,-1.4974,-1.4676,-1.4754,-1.5023,-1.5561,-1.5499,-1.5365,-1.5788,-1.5555,-1.5141,-1.4789,-1.4376,-1.392,-1.3334,-1.3065,-1.2881,-1.2881,-1.2881,-1.2881,-1.2881,-1.2881,-1.2774,-1.2559,-1.2501,-1.2246,-1.1516,-1.1466,-1.1466,-1.1466,-1.1711,-1.1912,-1.1912,-1.2149,-1.2387,-1.2652,-1.2797,-1.3338,-1.4326,-1.4482,-1.4687,-1.4951,-1.4951,-1.4951,0.8134,0.7578,0.654,0.5247,0.3942,0.277,0.2156,0.101,0.0054,0.0056,0.0615,0.1173,0.1228,0.1208,0.095,0.0,-0.1413,-0.2673,-0.3575,-0.4323,-0.4794,0.0,0.0,0.0,0.0,0.0,0.0,-0.5428,0.0,-0.5298,-0.5148,-0.5821,-0.6237,-0.6073,-0.7083,-0.7512,-0.7245,-0.8293,-0.9149,-0.9686,-0.9666,-0.9659,-0.9659,-0.9646,-0.9697,-0.9677,-0.9339,-0.9218,-0.9198,-0.8918,-0.8804,-0.8804,-0.8804,-0.8804,-0.8804,-0.8804,-0.8804,-0.8844,-0.9064,-0.9406,-0.9806,-1.0521,-1.0812,-1.1102,-1.2549,-1.3014,-1.3113,-1.3417,-1.3506,-1.3506,-1.3477,-1.3589,-1.3836,-1.4254,-1.4514,-1.4663,-1.4698,-1.4663,-1.4652,-1.4652,-1.4606,-1.4433,-1.3862,-1.3286,-1.2881,-1.2881,-1.2881,-1.2881,-1.2881,-1.2881,-1.2559,-1.1864,-1.1765,-1.1466,-1.0813,-1.0771,-1.0771,-1.0771,-1.0771,-1.0771,-1.0771,-1.0771,-1.1065,-1.1665,-1.2109,-1.2687,-1.3404,-1.3801,-1.4005,-1.4024,-1.4024,-1.4024,0.772,0.7429,0.7014,0.534,0.4291,0.3424,0.2261,0.1381,0.0805,0.0833,0.1392,0.2107,0.266,0.2849,0.0,0.0851,0.0,0.0,-0.2629,-0.3001,0.0,-0.3145,0.0,-0.443,-0.4403,-0.5073,0.0,0.0,-0.5428,-0.5411,-0.5304,-0.6523,-0.7164,-0.7116,-0.8411,-0.9095,-0.9026,-0.933,-0.9571,-0.9679,-0.9459,-0.9352,-0.9345,-0.9132,-0.9288,-0.9749,-0.9159,-0.9171,-0.9626,-0.9042,-0.8804,-0.8804,-0.8804,-0.8804,-0.8804,-0.8804,-0.8804,-0.8818,-0.8891,-0.8965,-0.9086,-0.9288,-0.9494,-0.9945,-1.1453,-1.2069,-1.2379,-1.3252,-1.3506,-1.3437,-1.3125,-1.3096,-1.3268,-1.383,-1.3994,-1.4143,-1.4606,-1.4329,-1.405,-1.405,-1.3647,-1.3296,-1.3152,-1.3017,-1.2881,-1.2881,-1.2452,-1.2295,-1.2832,-1.2403,-1.2021,-1.1814,-1.1366,-1.0762,-1.0115,-1.0064,-1.0064,-1.0064,-1.0064,-1.0064,-1.0064,-1.0064,-1.0167,-1.032,-1.0407,-1.0998,-1.2,-1.2096,-1.2297,-1.2648,-1.3141,-1.3358,0.8976,0.829,0.7354,0.58,0.4384,0.3063,0.1734,0.1035,0.0787,0.1045,0.2215,0.3369,0.4136,0.4152,0.3597,0.0,0.0,0.0,-0.1764,-0.2357,-0.2618,0.0,-0.3161,0.0,-0.4024,-0.4583,-0.5067,0.0,-0.5399,-0.5304,-0.5176,-0.6262,-0.6913,-0.7081,-0.834,-0.9201,-0.9486,-0.9359,-0.9299,-0.9299,-0.9132,-0.9051,-0.9045,-0.8884,-0.9159,-0.9762,0.0,-0.9614,-1.0167,-0.951,-0.9263,-0.9211,-0.891,-0.8804,-0.8804,-0.8804,-0.8804,-0.8804,-0.8804,-0.8804,-0.8804,-0.8804,-0.8918,-0.9282,-1.0632,-1.1399,-1.1893,-1.2822,-1.3292,-1.3408,-1.2988,-1.2881,-1.2968,-1.3324,-1.342,-1.3515,-1.3836,-1.3647,-1.342,-1.342,-1.3152,-1.2881,-1.2881,-1.2618,-1.2403,-1.2403,-1.1823,-1.1525,-1.194,-1.1633,-1.1266,-1.0965,-1.0568,-1.0064,-0.9413,-0.9361,-0.9361,-0.9361,-0.9361,-0.9361,-0.9361,-0.9361,-0.951,-0.9814,-0.9814,-1.026,-1.117,-1.117,-1.1287,-1.1547,-1.192,-1.2079,1.0706,0.9385,0.7599,0.6204,0.4083,0.1993,0.0734,0.02,0.0204,0.1086,0.3028,0.4801,0.5612,0.5334,0.4697,0.3756,0.0,0.0,-0.0801,-0.1742,-0.2344,-0.2344,-0.2477,-0.2902,-0.3858,-0.3917,-0.4298,-0.5423,-0.5309,-0.5132,-0.5081,-0.5743,-0.6379,-0.6874,-0.7775,-0.8564,-0.9123,-0.8931,-0.8804,-0.8804,-0.8804,-0.8804,-0.8804,-0.8804,-0.9211,-0.9917,0.0,0.0,-1.0864,-1.0218,-0.9909,-0.9865,-0.9211,-0.8956,-0.891,-0.8857,-0.8804,-0.8804,-0.8804,-0.8804,-0.8804,-0.8804,-0.8804,-0.901,-1.0104,-1.0875,-1.1555,-1.2209,-1.2898,-1.334,-1.2978,-1.2881,-1.2881,-1.2881,-1.2881,-1.2881,-1.2881,-1.2881,-1.2881,-1.2881,-1.2881,-1.2881,-1.2881,-1.2344,-1.1922,-1.1814,-1.1216,-1.0771,-1.0661,-1.0669,-1.0415,-0.9865,-0.971,-0.9413,-0.8857,-0.8804,-0.8804,-0.8804,-0.8804,-0.8804,-0.8804,-0.8804,-0.9061,-0.9666,-0.9666,-0.9961,-1.0517,-1.0517,-1.0517,-1.0517,-1.0618,-1.0669,1.0437,0.9175,0.7488,0.5125,0.2691,0.0586,-0.0533,-0.0991,0.0,0.1568,0.3787,0.5725,0.7052,0.6859,0.6271,0.5434,0.3506,0.1751,0.0934,0.0067,-0.0471,0.0,-0.1074,-0.1862,-0.2745,-0.2853,0.0,0.0,0.0,-0.4637,-0.5892,-0.6452,-0.7242,-0.8387,-0.8585,-0.8771,-0.8884,-0.8831,-0.8804,-0.8804,-0.8804,-0.8804,-0.8804,-0.8804,-0.9465,-1.0618,0.0,0.0,-1.1566,-1.0914,-1.0618,-1.0568,-0.9865,-0.9614,-0.9562,-0.9008,-0.8804,-0.8804,-0.8804,-0.8804,-0.8804,-0.8804,-0.8804,-0.8917,-0.968,-1.0407,-1.1057,-1.1722,-1.2457,-1.2969,-1.29,-1.2881,-1.2881,-1.2881,-1.2881,-1.2881,-1.2881,-1.2881,-1.2881,-1.2881,-1.2881,-1.2881,-1.2881,-1.2774,-1.2501,-1.1873,-1.1216,-1.0618,-1.0064,-0.9961,-0.9917,-0.9814,-0.9316,-0.891,-0.8811,-0.8804,-0.8804,-0.8804,-0.8804,-0.8804,-0.8804,-0.8804,-0.8857,-0.8956,-0.8956,-0.9008,-0.9159,-0.9159,-0.9159,-0.9159,-0.971,-0.9961,1.178,1.0245,0.7808,0.4194,0.1443,-0.0944,-0.2856,-0.2426,-0.0798,0.2131,0.5099,0.7494,0.86,0.8342,0.748,0.5839,0.4515,0.3052,0.14,0.0863,0.04,0.0069,-0.0339,-0.093,-0.1806,-0.2312,-0.3107,0.0,0.0,-0.4584,-0.5374,-0.6235,-0.7187,-0.8215,-0.8586,-0.8804,-0.8804,-0.8804,-0.8804,-0.8804,-0.8804,-0.8804,-0.8804,-0.9159,-0.9865,-1.0813,-1.0813,0.0,-1.2295,-1.1625,-1.1316,-1.1216,-1.0218,-0.9814,-0.971,-0.9061,-0.8804,-0.8804,-0.8804,-0.8804,-0.8804,-0.8804,-0.8804,-0.8857,-0.9159,-1.0012,-1.0864,-1.1166,-1.2039,-1.2881,-1.2881,-1.2881,-1.2881,-1.2881,-1.2881,-1.2881,-1.2881,-1.2881,-1.2881,-1.2881,-1.2881,-1.2881,-1.2881,-1.2304,-1.1683,-1.1316,-1.0415,-0.9666,-0.9309,-0.9263,-0.9263,-0.9263,-0.9008,-0.8804,-0.8804,-0.8804,-0.8804,-0.8804,-0.8804,-0.8804,-0.8804,-0.8804,-0.8804,-0.8804,-0.8804,-0.8804,-0.8804,-0.8804,-0.8804,-0.8811,-0.9113,-0.9263,1.336,1.1644,0.8555,0.3355,0.0213,-0.2332,-0.4946,-0.3842,-0.1181,0.263,0.6245,0.8947,0.985,0.9525,0.8477,0.0,0.5408,0.4109,0.1731,0.145,0.106,0.014,0.0137,0.0,-0.1152,-0.1658,0.0,0.0,0.0,0.0,-0.5094,-0.6184,-0.7182,-0.7937,-0.848,-0.8804,-0.8804,-0.8804,-0.8804,-0.8804,-0.8804,-0.8804,-0.8804,-0.9361,-1.0012,-1.0813,-1.1366,0.0,0.0,-1.2295,-1.203,-1.1873,-1.0517,-1.0012,-0.9917,-0.9113,-0.8804,-0.8804,-0.8804,-0.8804,-0.8804,-0.8804,-0.8804,-0.8804,-0.8956,-0.9865,-1.0813,-1.0973,-1.19,-1.2881,-1.2881,-1.2881,-1.2881,-1.2881,-1.2881,-1.2881,-1.2881,-1.2881,-1.2881,-1.2881,-1.2881,-1.2881,-1.2881,-1.1841,-1.0965,-1.0813,-0.9762,-0.8956,-0.8804,-0.8804,-0.8804,-0.8804,-0.8804,-0.8804,-0.8804,-0.8804,-0.8804,-0.8804,-0.8804,-0.8804,-0.8804,-0.8804,-0.8804,-0.8804,-0.8804,-0.8804,-0.8804,-0.8804,-0.8804,-0.8804,-0.8804,-0.8804,1.4265,1.2813,0.9888,0.253,-0.1052,-0.3403,-0.5826,-0.5138,-0.2429,0.3047,0.6591,0.9096,1.0458,1.0143,0.9187,0.7871,0.0,0.4822,0.2657,0.2474,0.1891,0.021,0.0,0.0,-0.0994,-0.0557,0.0,0.0,0.0,0.0,-0.6341,-0.7192,-0.7943,-0.8699,-0.8752,-0.8804,-0.8804,-0.8804,-0.8804,-0.8804,-0.8804,-0.8804,-0.8804,-0.8857,-0.9614,-1.0813,0.0,0.0,0.0,-1.2832,-1.2774,-1.2666,-1.1283,-1.072,-1.0559,-0.9256,-0.8804,-0.8804,-0.8804,-0.8804,-0.8804,-0.8804,-0.8804,-0.891,-0.951,-1.0218,-1.0922,-1.1543,-1.2264,-1.2881,-1.2881,-1.2881,-1.2881,-1.2881,-1.2881,-1.2881,-1.2881,-1.2881,-1.2881,-1.2881,-1.2881,-1.2881,-1.2881,-1.2246,-1.1516,-1.0914,-1.0167,-0.9465,-0.8857,-0.8804,-0.8804,-0.8804,-0.8804,-0.8804,-0.8804,-0.8804,-0.8804,-0.8804,-0.8804,-0.8804,-0.8804,-0.8804,-0.8804,-0.8804,-0.8804,-0.8804,-0.8804,-0.8804,-0.8804,-0.8804,-0.8804,-0.8804,1.6012,1.4399,1.0552,0.1457,-0.1634,-0.346,-0.7405,-0.5783,-0.171,0.4347,0.7893,1.0383,1.1738,1.1431,1.0543,0.9166,0.7732,0.6165,0.4115,0.3584,0.292,0.1739,0.1523,0.0,0.0,0.0,0.0,0.0,0.0,0.0,-0.5873,-0.6637,-0.7396,-0.8103,-0.8586,-0.8804,-0.8804,-0.8804,-0.9008,-0.9413,-0.9413,-0.9614,-1.0012,-1.0431,-1.088,-1.1416,0.0,0.0,0.0,-1.2881,-1.2881,-1.2774,-1.1325,-1.0813,-1.0669,-0.9309,-0.8804,-0.8804,-0.8804,-0.8804,-0.8804,-0.8804,-0.9061,-0.9458,-0.971,-1.0269,-1.0922,-1.1625,-1.2353,-1.2881,-1.2881,-1.2881,-1.2881,-1.2881,-1.2881,-1.2881,-1.2881,-1.2881,-1.2881,-1.2881,-1.2559,-1.2236,-1.2236,-1.1325,-1.0517,-1.0269,-0.9614,-0.9113,-0.8857,-0.8427,-0.8156,-0.8156,-0.8533,-0.8804,-0.8804,-0.8804,-0.8804,-0.8804,-0.8804,-0.8804,-0.8804,-0.8804,-0.8804,-0.8804,-0.8804,-0.8804,-0.8804,-0.8804,-0.8804,-0.8804,-0.8804,-0.8804,1.7764,1.6052,1.189,0.2297,-0.0545,-0.2169,-0.6631,-0.4985,-0.075,0.5466,0.8738,1.1032,1.2773,1.2735,1.1859,0.0,0.8995,0.7459,0.5098,0.4505,0.3964,0.291,0.0,0.217,0.0,0.0,0.0,0.0,0.0,0.0,0.0,-0.576,-0.6691,-0.767,-0.8209,-0.8586,-0.8804,-0.8804,-0.9159,-0.9814,-0.9814,-1.0167,-1.0813,-1.1283,-1.1633,-1.1814,0.0,0.0,0.0,-1.2881,-1.2774,-1.2461,-1.1275,-1.0661,-1.0364,-0.9211,-0.8804,-0.8804,-0.8804,-0.8804,-0.8804,-0.8804,-0.9106,-0.9562,-0.9762,-1.0415,-1.1216,-1.1931,-1.251,-1.2881,-1.2881,-1.2881,-1.2881,-1.2881,-1.2881,-1.2881,-1.2881,-1.2881,-1.2881,-1.2881,-1.2295,-1.1814,-1.1814,-1.0669,-0.971,-0.9488,-0.8883,-0.8374,-0.8156,-0.7723,-0.7396,-0.7396,-0.8049,-0.848,-0.848,-0.8699,-0.8804,-0.8804,-0.8804,-0.8804,-0.8804,-0.8804,-0.8804,-0.8804,-0.8804,-0.8804,-0.8804,-0.8804,-0.8804,-0.8804,-0.8804,-0.8804,1.9334,1.769,1.4243,0.5748,0.2639,0.0788,-0.2611,-0.2449,0.0101,0.6256,0.8676,1.0537,1.3311,1.3768,1.31,1.1038,1.0264,0.8814,0.538,0.5267,0.4983,0.0,0.0,0.3755,0.2772,0.0,0.0,0.0,0.0,0.0,0.0,-0.4772,-0.6195,-0.767,-0.7723,-0.8049,-0.8804,-0.8804,-0.9159,-0.9814,-0.9814,-1.0167,-1.0813,-1.0813,-1.1166,0.0,0.0,0.0,0.0,-1.2881,-1.2452,-1.1765,-1.1065,-1.0415,-0.9718,-0.9061,-0.8804,-0.8804,-0.8804,-0.8804,-0.8804,-0.8804,-0.8811,-0.8956,-0.9614,-1.0712,-1.1922,-1.2666,-1.2881,-1.2881,-1.2881,-1.2881,-1.2881,-1.2881,-1.2881,-1.2881,-1.2881,-1.2881,-1.2881,-1.2881,-1.2295,-1.1814,-1.1814,-1.0669,-0.9547,-0.8842,-0.8125,-0.7456,-0.6696,-0.6588,-0.6588,-0.6588,-0.7289,-0.7723,-0.7723,-0.8374,-0.8804,-0.8804,-0.8804,-0.8804,-0.8804,-0.8804,-0.8804,-0.8804,-0.8804,-0.8804,-0.8804,-0.8804,-0.8804,-0.8804,-0.8804,-0.8804,2.0822,1.9299,1.5894,0.793,0.5052,0.3135,-0.0895,-0.07,0.1673,0.6576,0.8325,0.9834,1.2609,1.2735,1.2565,1.2922,1.1513,0.0,0.0,0.0,0.0,0.6794,0.5691,0.4338,0.0,0.0,0.0,0.0,0.0,0.0,0.0,-0.3785,-0.4878,-0.6912,-0.745,-0.8049,-0.8804,-0.8804,-0.9159,-0.9814,-1.0261,-1.0813,-1.1516,-1.1999,0.0,0.0,0.0,0.0,0.0,-1.2881,-1.2452,-1.1715,-1.1065,-1.0415,-0.9658,-0.8461,-0.8049,-0.8049,-0.8049,-0.8049,-0.8156,-0.8646,-0.9113,-0.951,-0.971,-1.0415,-1.1375,-1.2569,-1.2881,-1.2881,-1.2881,-1.2881,-1.2881,-1.2881,-1.2881,-1.2881,-1.2881,-1.2881,-1.2881,-1.2881,-1.2295,-1.1665,-1.1216,-1.0364,-0.9392,-0.8184,-0.7824,-0.745,-0.6696,-0.6145,-0.5873,-0.5873,-0.6529,-0.7128,-0.767,-0.8374,-0.9008,-0.9465,-0.9465,-0.9465,-0.9465,-0.9465,-0.9263,-0.8811,-0.8804,-0.8804,-0.8804,-0.8804,-0.8804,-0.8804,-0.8804,-0.8804,2.1509,1.9874,1.6778,1.0775,0.8103,0.6012,0.2569,0.2078,0.3393,0.6866,0.7764,0.8776,1.1613,1.1742,1.1861,1.3287,1.2071,0.0,0.0,0.0,0.0,0.848,0.0,0.0,0.0,0.0,0.0,0.0,0.0,0.0,0.0,-0.3176,-0.4333,-0.6534,-0.702,-0.7777,-0.8804,-0.8804,-0.9263,-1.0167,-1.0618,-1.1325,-1.2236,-1.2666,0.0,0.0,0.0,0.0,0.0,-1.2501,-1.194,-1.1015,-1.0568,-0.985,-0.8928,-0.8037,-0.7509,-0.7289,-0.7289,-0.745,-0.7777,-0.8209,-0.8844,-0.9465,-0.971,-1.0423,-1.1384,-1.2246,-1.2666,-1.2881,-1.2881,-1.2881,-1.2881,-1.2881,-1.2881,-1.2881,-1.2881,-1.2881,-1.2881,-1.2881,-1.2089,-1.1316,-1.0864,-0.9799,-0.8606,-0.745,-0.7069,-0.6632,-0.5878,-0.5386,-0.5109,-0.5109,-0.5987,-0.6804,-0.7235,-0.8461,-0.9361,-0.9762,-1.0064,-1.0167,-1.0167,-1.0167,-0.9865,-0.9211,-0.9413,-0.9316,-0.8804,-0.8804,-0.8804,-0.8804,-0.8804,-0.8804,0.0,1.9684,1.7124,1.4012,1.1525,0.928,0.7141,0.5595,0.0,0.7175,0.7143,0.7634,1.0508,1.0892,1.1182,1.2589,1.218,0.0,0.0,1.0948,0.0,0.0,0.7655,0.0,0.0,0.0,0.0,0.0,0.0,0.0,0.0,-0.2843,-0.4278,-0.6367,-0.6534,-0.7289,-0.8804,-0.8804,-0.9413,-1.0661,-1.0762,-1.1484,-1.2676,-1.2774,0.0,0.0,0.0,0.0,0.0,-1.1715,-1.0965,-0.9814,-0.9762,-0.8869,-0.767,-0.7563,-0.7128,-0.6529,-0.6529,-0.6966,-0.7557,-0.767,-0.8209,-0.891,-0.9562,-1.0635,-1.1651,-1.1724,-1.2246,-1.2774,-1.2822,-1.2822,-1.2822,-1.2881,-1.2881,-1.2881,-1.2881,-1.2881,-1.2881,-1.2881,-1.1841,-1.0922,-1.0813,-0.9162,-0.7551,-0.675,-0.5928,-0.516,-0.4515,-0.4405,-0.4408,-0.4408,-0.5714,-0.6588,-0.6588,-0.8547,-0.9814,-0.9865,-1.0517,-1.0864,-1.0864,-1.0864,-1.0568,-0.9865,-1.0466,-1.0167,-0.8857,-0.8857,-0.8857,-0.8804,-0.8804,-0.8752,2.1305,0.0,1.827,1.5838,1.352,1.1261,0.0,0.7488,0.702,0.754,0.7755,0.8404,1.0416,1.0751,1.1277,1.2967,0.0,1.2964,1.3036,0.0,0.0,1.0231,0.9549,0.0,0.0,0.0,0.0,0.0,0.0,0.0,0.0,-0.1782,-0.3224,-0.4867,-0.6032,-0.7289,-0.8804,-0.8804,-0.8956,-0.9263,-1.032,-1.072,-1.0576,-1.1575,0.0,0.0,0.0,0.0,-1.1065,-1.1065,-1.0568,-0.9762,-0.9162,-0.8435,-0.7557,-0.6411,-0.5923,-0.576,-0.576,-0.5869,-0.6195,-0.7337,-0.8209,-0.8804,-0.9008,-0.9614,-1.0372,-1.0864,-1.1174,-1.1425,-1.1931,-1.208,-1.2187,-1.2774,-1.2881,-1.2881,-1.2881,-1.2881,-1.2881,-1.2881,-1.2618,-1.2049,-1.0973,-0.9915,-0.8613,-0.6848,-0.5479,-0.4378,-0.3674,-0.3624,-0.368,-0.368,-0.5433,-0.6588,-0.6588,-0.8547,-1.0012,-1.0517,-1.1216,-1.1566,-1.1566,-1.1566,-1.1266,-1.0568,-1.0712,-1.0415,-0.9562,-0.9562,-0.9309,-0.8804,-0.8804,-0.848,2.143,2.0475,1.9159,1.7023,1.4961,1.2882,1.0622,0.9068,0.8047,0.7765,0.7817,0.8404,1.0002,1.0258,1.1033,1.3667,1.3727,0.0,0.0,0.0,1.3236,1.2011,0.0,0.0,0.0,0.0,0.0,0.0,0.0,0.0,0.0,-0.1393,-0.2892,-0.4371,-0.5806,-0.7128,-0.8262,-0.8646,-0.8956,-0.9263,-1.0012,-1.0312,-1.0261,-1.1015,0.0,0.0,0.0,0.0,-1.0364,-1.0364,-0.9747,-0.8823,-0.8389,-0.7587,-0.6573,-0.581,-0.5328,-0.5058,-0.5058,-0.5218,-0.5756,-0.723,-0.7996,-0.8374,-0.8699,-0.9061,-0.9465,-1.0167,-1.0762,-1.1366,-1.1715,-1.203,-1.2403,-1.2822,-1.2881,-1.2881,-1.2881,-1.2881,-1.2881,-1.2881,-1.2363,-1.1584,-1.0485,-0.9179,-0.7659,-0.5851,-0.4652,-0.3666,-0.2896,-0.3121,-0.3345,-0.34,-0.5324,-0.6588,-0.6588,-0.8849,-1.0415,-1.0762,-1.2003,-1.2696,-1.2696,-1.2976,-1.2822,-1.219,-1.1539,-1.1048,-1.0712,-1.0115,-0.9614,-0.9263,-0.858,-0.8103,2.1715,2.1055,1.9954,1.781,1.6015,1.4281,1.2319,1.0444,0.8999,0.8394,0.8205,0.8584,1.0179,1.0291,0.0,0.0,0.0,0.0,1.534,1.507,1.4444,1.3568,0.0,0.0,0.0,0.0,0.0,0.0,0.0,0.0,0.0,-0.128,-0.2775,-0.4014,-0.5575,-0.673,-0.734,-0.8296,-0.9061,-0.9666,-0.9658,-0.9953,-1.0517,-1.0348,-1.0399,0.0,0.0,0.0,-0.9666,-0.9503,-0.8771,-0.767,-0.745,-0.6573,-0.5483,-0.5265,-0.4835,-0.4349,-0.4294,-0.4838,-0.5701,-0.6956,-0.7503,-0.783,-0.8427,-0.8699,-0.891,-0.9465,-1.0466,-1.1366,-1.1466,-1.2039,-1.2618,-1.2715,-1.2822,-1.2881,-1.2881,-1.2881,-1.2881,-1.2881,-1.195,-1.0805,-0.9893,-0.8075,-0.623,-0.4645,-0.3611,-0.2788,-0.212,-0.2565,-0.301,-0.3178,-0.5152,-0.647,-0.6588,-0.92,-1.0813,-1.0813,-1.2686,-1.3815,-1.3909,-1.4422,-1.4422,-1.3815,-1.2609,-1.1975,-1.1814,-1.0568,-0.9917,-0.9762,-0.8461,-0.7723,2.1774,2.1665,2.1089,1.8394,1.6909,1.5492,1.3165,1.1908,1.12,1.093,1.0646,1.1027,1.3074,1.3216,1.3476,0.0,0.0,1.4612,0.0,0.0,1.3999,0.0,0.0,0.0,0.0,0.0,0.0,0.0,0.0,0.0,0.0,0.0,-0.2258,-0.2355,-0.4537,-0.5685,-0.5684,-0.7769,-0.8857,-0.8956,-0.8915,-0.8967,-0.9106,-0.8416,-0.8475,0.0,0.0,-0.8461,-0.8903,-0.8256,-0.7883,-0.7557,-0.6303,-0.5701,-0.5374,-0.4113,-0.3622,-0.3566,-0.3511,-0.4388,-0.5542,-0.576,-0.6686,-0.7723,-0.783,-0.8321,-0.8804,-0.891,-0.9113,-0.9413,-0.9961,-1.0618,-1.1275,-1.1823,-1.2452,-1.2881,-1.2881,-1.2881,-1.2881,-1.2881,-1.2725,-1.1981,-1.0046,-0.8423,-0.6675,-0.4689,-0.2722,-0.1396,-0.1284,-0.1341,-0.1675,-0.2341,-0.4365,-0.5896,-0.6529,-0.92,-1.0813,-1.0813,-1.2686,-1.405,-1.4514,-1.4652,-1.4422,-1.3815,-1.3569,-1.2928,-1.1814,-1.1015,-1.0364,-0.9762,-0.9001,-0.7943,2.1524,2.1579,2.1455,2.0008,1.8981,1.7696,1.5199,1.4108,1.3367,1.2582,1.2264,0.0,0.0,0.0,1.529,1.665,0.0,1.6765,0.0,0.0,0.0,0.0,0.0,0.0,0.0,0.0,0.0,0.0,0.0,0.0,0.0,0.0,-0.174,-0.2073,-0.3949,-0.5079,-0.5419,-0.6854,-0.7616,-0.7616,-0.7593,-0.7593,-0.7616,-0.7219,-0.7272,-0.7616,0.0,-0.767,-0.7616,-0.767,-0.723,-0.6465,-0.576,-0.4992,-0.4168,-0.3118,-0.273,-0.2732,-0.273,-0.3395,-0.4388,-0.4765,-0.5642,-0.6686,-0.745,-0.7943,-0.8262,-0.8699,-0.9061,-0.951,-1.0167,-1.0864,-1.1516,-1.2236,-1.2666,-1.2881,-1.2881,-1.2881,-1.2881,-1.2881,-1.2304,-1.1208,-0.946,-0.7641,-0.5681,-0.3545,-0.2006,-0.095,-0.056,-0.0838,-0.1396,-0.212,-0.4197,-0.5783,-0.6529,-0.92,-1.1399,-1.2802,-1.3784,-1.4698,-1.5656,-1.5656,-1.5377,-1.4767,-1.4457,-1.3805,-1.289,-1.1855,-1.1166,-1.0864,-0.9429,-0.8389,2.0992,2.1229,2.1456,2.1058,2.0427,1.9336,1.7177,1.6028,1.5153,1.4048,1.3669,0.0,0.0,1.6181,0.0,1.8259,1.8572,0.0,0.0,0.0,0.0,0.0,0.0,0.0,0.0,0.0,0.0,0.0,0.0,0.0,0.0,0.0,-0.119,-0.1874,-0.3187,-0.4131,-0.4659,-0.5288,-0.5932,-0.6588,-0.6421,-0.6396,-0.6567,-0.6239,-0.6288,-0.6567,-0.6993,-0.6961,-0.6642,-0.7015,-0.6519,-0.5483,-0.5324,-0.4333,-0.2954,-0.2232,-0.1952,-0.1952,-0.1952,-0.2397,-0.3176,-0.3883,-0.4652,-0.5534,-0.7009,-0.7563,-0.783,-0.8593,-0.9159,-0.9666,-1.0218,-1.0813,-1.1516,-1.2255,-1.251,-1.2666,-1.2871,-1.2881,-1.2881,-1.2881,-1.19,-1.0535,-0.8982,-0.6913,-0.4729,-0.2504,-0.1283,-0.0447,-0.0056,-0.0336,-0.1004,-0.2063,-0.403,-0.5878,-0.7475,-0.9857,-1.2229,-1.4549,-1.4835,-1.5377,-1.6479,-1.6522,-1.6238,-1.5632,-1.5141,-1.456,-1.3815,-1.2589,-1.1953,-1.1765,-0.982,-0.8842,2.0175,2.0701,2.1175,2.0531,1.9995,1.9362,1.8287,1.7066,1.6042,1.5765,1.5198,0.0,0.0,1.8338,1.9102,1.8877,1.8178,0.0,0.0,0.0,0.0,0.0,0.0,0.0,0.0,0.0,0.0,0.0,0.0,0.0,0.0,0.0,0.0,-0.0962,-0.1863,-0.232,-0.223,-0.2403,-0.3871,-0.6588,-0.5928,-0.5882,-0.6386,-0.5205,-0.5296,-0.6391,-0.5895,-0.6036,-0.6534,-0.5923,-0.5597,-0.5433,-0.4842,-0.3622,-0.2174,-0.1452,-0.1174,-0.1174,-0.1174,-0.1675,-0.2397,-0.3118,-0.3886,-0.4754,-0.6249,-0.7182,-0.783,-0.8593,-0.8857,-0.8857,-0.8903,-0.9465,-1.0115,-1.0762,-1.1416,-1.208,-1.2764,-1.2881,-1.2881,-1.2881,-1.2264,-1.1057,-0.9034,-0.6881,-0.4696,-0.2502,-0.039,0.0727,0.0056,0.0559,0.0112,-0.1952,-0.3589,-0.61,-1.0171,-1.1837,-1.3253,-1.4606,-1.5231,-1.582,-1.6466,-1.6522,-1.6238,-1.5632,-1.5543,-1.4949,-1.3815,-1.3072,-1.2385,-1.1765,-1.0356,-0.9377,1.9338,2.0496,2.1591,2.1082,2.0548,2.0076,1.9837,1.9059,1.8332,1.8295,1.7351,0.0,0.0,0.0,1.9531,1.9497,0.0,0.0,0.0,0.0,0.0,0.0,0.0,0.0,0.0,0.0,0.0,0.0,0.0,0.0,0.0,0.0,0.0,-0.0318,-0.1127,-0.1692,-0.2114,-0.2187,-0.2737,-0.3855,-0.3965,-0.4141,-0.4343,-0.4309,-0.4559,-0.5032,-0.5358,-0.5437,-0.5281,-0.5433,-0.5269,-0.4783,-0.3564,-0.2454,-0.1396,-0.0167,0.0,-0.0336,0.0112,-0.0502,-0.1619,-0.2397,-0.3116,-0.411,-0.6036,-0.6804,-0.7289,-0.848,-0.8804,-0.891,-0.9309,-0.9614,-0.9969,-1.0669,-1.1015,-1.1266,-1.1534,-1.194,-1.2089,-1.1692,-1.1384,-1.0485,-0.8377,-0.6216,-0.4171,-0.2449,-0.0335,0.0838,0.0112,0.0671,0.0279,-0.1952,-0.4732,-0.7763,-1.1056,-1.259,-1.3893,-1.5186,-1.5454,-1.5864,-1.6479,-1.6522,-1.6238,-1.5632,-1.5231,-1.4641,-1.3815,-1.317,-1.2745,-1.2452,-1.1475,-1.0897,1.8732,2.0033,2.1264,2.1126,2.0812,2.0682,2.1225,2.0374,1.9456,1.9434,1.8402,1.7748,1.8875,0.0,0.0,0.0,0.0,0.0,0.0,0.0,0.0,0.0,0.0,0.0,0.0,0.0,0.0,0.0,0.0,0.0,0.0,0.0,0.0,0.0,0.0,-0.0633,-0.1157,-0.139,-0.1528,-0.1506,-0.2134,-0.2635,-0.3066,-0.3592,-0.3942,-0.4114,-0.4779,-0.4819,-0.4453,-0.4984,-0.4783,-0.4015,-0.2732,-0.1618,-0.0614,0.0614,0.0951,0.0727,0.1006,0.0447,-0.0614,-0.1785,-0.2565,-0.345,-0.5869,-0.6588,-0.6912,-0.8374,-0.8804,-0.891,-0.9361,-0.9465,-0.9666,-1.0312,-1.0466,-1.0517,-1.0762,-1.1166,-1.1408,-1.1166,-1.0762,-0.9923,-0.8227,-0.5954,-0.3908,-0.2449,-0.0335,0.0895,0.0392,0.0783,0.0056,-0.2607,-0.5909,-0.8982,-1.1495,-1.3117,-1.4459,-1.5531,-1.5588,-1.5864,-1.6479,-1.6522,-1.6238,-1.5632,-1.5186,-1.4595,-1.3815,-1.3372,-1.3113,-1.2881,-1.2138,-1.1814,1.8421,1.9196,1.9891,2.0543,2.0722,2.1066,2.2409,2.0781,1.8995,1.8927,1.7934,1.7262,1.7784,1.8044,0.0,0.0,0.0,0.0,0.0,0.0,0.0,0.0,0.0,0.0,0.0,0.0,0.0,0.0,0.0,0.0,0.0,0.0,0.0,0.0,0.1506,0.0,0.1109,0.0403,0.0,0.0,-0.0583,-0.1599,-0.2895,-0.3011,-0.3346,-0.3809,-0.4066,-0.4197,-0.4207,-0.4402,-0.407,-0.3289,-0.2508,-0.128,0.0111,0.0837,0.1563,0.212,0.1341,0.1118,0.0726,-0.1449,-0.2174,-0.2728,-0.5701,-0.6588,-0.6912,-0.8374,-0.8804,-0.8804,-0.8804,-0.8804,-0.8956,-0.9614,-0.9814,-0.9961,-1.0669,-1.0762,-1.0965,-1.1665,-1.0712,-0.9577,-0.8781,-0.6313,-0.3911,-0.2449,-0.0335,0.1118,0.1118,0.1118,-0.0333,-0.4008,-0.7008,-0.9541,-1.1545,-1.3517,-1.4971,-1.5588,-1.5588,-1.5864,-1.6466,-1.6479,-1.6194,-1.5576,-1.5588,-1.4994,-1.3768,-1.3768,-1.3457,-1.2871,-1.2129,-1.1814,1.9012,1.997,2.0947,2.1537,2.175,2.1941,2.2401,2.1005,1.9396,0.0,1.7715,1.7314,1.7995,0.0,0.0,0.0,0.0,0.0,0.0,0.0,0.0,0.0,0.0,0.0,0.0,0.0,0.0,0.0,0.0,0.0,0.0,0.0,0.0,0.0,0.2199,0.0,0.1578,0.1382,0.1036,0.0627,0.0447,-0.0274,-0.152,-0.2496,-0.3018,-0.3219,-0.3901,-0.4197,-0.4207,-0.4402,-0.3735,-0.2508,-0.2286,-0.1003,0.0837,0.1618,0.2009,0.2174,0.1952,0.1507,0.0838,-0.0893,-0.1786,-0.2561,-0.4484,-0.5751,-0.6804,-0.7777,-0.8374,-0.8804,-0.8804,-0.8427,-0.8209,-0.8949,-0.9113,-0.9159,-0.9361,-0.9762,-1.0012,-0.9762,-0.9769,-0.9228,-0.7522,-0.6093,-0.4518,-0.2504,-0.0334,0.1279,0.1785,0.05,-0.1438,-0.4117,-0.7008,-0.9723,-1.2184,-1.3423,-1.4687,-1.6139,-1.5421,-1.5242,-1.582,-1.5466,-1.4971,-1.4365,-1.4318,-1.369,-1.2395,-1.2395,-1.2061,-1.1434,-1.1216,-1.1116,1.9549,2.0449,2.1308,2.1917,2.2112,2.2149,2.1968,0.0,0.0,0.0,1.779,1.7297,1.7781,1.7328,0.0,0.0,0.0,0.0,0.0,0.0,0.0,0.0,0.0,0.0,0.0,0.0,0.0,0.0,0.0,0.0,0.0,0.0,0.0,0.0,0.0,0.0,0.2242,0.1968,0.1489,0.0895,0.0895,0.0412,-0.0572,-0.1634,-0.2345,-0.2883,-0.3698,-0.4083,-0.4197,-0.4277,-0.3428,-0.2145,-0.2145,-0.0648,0.1587,0.2022,0.2589,0.301,0.2397,0.1898,0.1228,-0.0502,-0.1619,-0.245,-0.3932,-0.5202,-0.6367,-0.7396,-0.783,-0.7996,-0.8262,-0.783,-0.7509,-0.854,-0.8586,-0.8427,-0.8752,-0.9106,-0.9361,-0.9211,-0.9316,-0.8981,-0.7641,-0.6377,-0.4845,-0.2941,-0.05,0.1169,0.1284,-0.0111,-0.1934,-0.4175,-0.7008,-0.9679,-1.2097,-1.3233,-1.4365,-1.57,-1.488,-1.4411,-1.4459,-1.4641,-1.4272,-1.3416,-1.3416,-1.2735,-1.1416,-1.1416,-1.1216,-1.0813,-1.0813,-1.0813,2.0128,2.0715,2.1231,2.1987,2.2131,2.1965,2.1494,2.0684,1.981,1.9145,0.0,1.7316,1.7365,0.0,0.0,0.0,0.0,0.0,0.0,0.0,0.0,0.0,0.0,0.0,0.0,0.0,0.0,0.0,0.0,0.0,0.0,0.0,0.0,0.0,0.0,0.0,0.3064,0.2311,0.1669,0.0,0.1029,0.0686,0.0047,-0.0593,-0.1521,-0.2695,-0.3404,-0.3857,-0.4111,-0.3976,-0.3166,-0.2012,-0.1962,-0.0256,0.2162,0.2221,0.3187,0.4278,0.2728,0.2174,0.184,-0.0279,-0.1563,-0.245,-0.3767,-0.4816,-0.576,-0.7122,-0.7074,-0.675,-0.745,-0.7074,-0.6853,-0.8262,-0.8156,-0.7883,-0.854,-0.8752,-0.8956,-0.9614,-0.9211,-0.8738,-0.8639,-0.7009,-0.5171,-0.3534,-0.0832,0.0783,0.0112,-0.0668,-0.1934,-0.4066,-0.6903,-0.9387,-1.1338,-1.2754,-1.3805,-1.4503,-1.3841,-1.3158,-1.2609,-1.3784,-1.3878,-1.2628,-1.257,-1.1877,-1.0602,-1.0551,-1.0501,-1.0399,-1.0509,-1.0509,2.0974,2.1383,2.1793,2.3151,2.3228,2.2892,2.2815,2.1746,2.0408,1.9104,1.8017,1.731,1.7316,0.0,0.0,0.0,0.0,0.0,0.0,0.0,0.0,0.0,0.0,0.0,0.0,0.0,0.0,0.0,0.0,0.0,0.0,0.0,0.0,0.0,0.0,0.4215,0.4095,0.3523,0.2929,0.0,0.183,0.1302,0.0681,-0.0404,-0.1366,-0.2203,-0.2835,-0.3166,-0.3355,-0.3329,-0.2766,-0.1962,-0.1461,0.005,0.2041,0.2149,0.3088,0.4041,0.2707,0.2174,0.1952,0.028,-0.1118,-0.2286,-0.2561,-0.3993,-0.5538,-0.5864,-0.6253,-0.6642,-0.6804,-0.6308,-0.5977,-0.6853,-0.7396,-0.7723,-0.7883,-0.8374,-0.8857,-0.9008,-0.891,-0.8586,-0.8037,-0.7545,-0.6323,-0.3678,-0.1272,0.0167,0.0,-0.0667,-0.1716,-0.3366,-0.6124,-0.8463,-0.991,-1.0898,-1.1917,-1.3067,-1.1509,-1.0772,-1.1146,-1.1957,-1.2043,-1.1258,-1.0663,-0.9944,-0.9148,-0.8554,-0.8035,-0.7534,-0.8072,-0.8343,2.0508,2.1274,2.1873,2.3045,2.3257,2.3152,2.3007,2.2224,2.1256,2.034,1.9221,1.8324,0.0,0.0,0.0,0.0,0.0,0.0,0.0,0.0,0.0,0.0,0.0,0.0,0.0,0.0,0.0,0.0,0.0,0.0,0.0,0.8392,0.7461,0.0,0.5308,0.4696,0.4391,0.388,0.3306,0.2672,0.2095,0.134,0.0448,-0.0492,-0.1145,-0.1614,-0.2463,-0.2874,-0.298,-0.2923,-0.2519,-0.1856,-0.1239,0.0241,0.2012,0.21,0.2985,0.4046,0.2979,0.2422,0.2009,0.0895,-0.0447,-0.1675,-0.1675,-0.2947,-0.4494,-0.4875,-0.5265,-0.566,-0.5982,-0.5546,-0.5113,-0.55,-0.6145,-0.674,-0.7074,-0.7777,-0.8262,-0.8262,-0.854,-0.8699,-0.8321,-0.7652,-0.6328,-0.3756,-0.2323,-0.1442,-0.1113,-0.1724,-0.2607,-0.3707,-0.5824,-0.7535,-0.8553,-0.9357,-1.0066,-1.0714,-0.9789,-0.924,-0.9226,-0.9607,-0.979,-0.9769,-0.9068,-0.8554,-0.8231,-0.7475,-0.6945,-0.6588,-0.702,-0.7182,1.9431,2.0846,2.1931,2.2626,2.2996,0.0,2.2923,2.253,2.2124,2.1861,2.0669,0.0,0.0,0.0,0.0,0.0,0.0,0.0,0.0,0.0,0.0,0.0,0.0,0.0,0.0,0.0,0.0,0.0,0.0,0.0,0.9039,0.8797,0.8013,0.652,0.5739,0.5043,0.4561,0.3924,0.335,0.2854,0.2142,0.1163,0.0,-0.0538,-0.0821,-0.0988,-0.2084,-0.2592,-0.2714,-0.2578,-0.2228,-0.1741,-0.0894,0.0456,0.1975,0.2131,0.3027,0.4056,0.3337,0.2821,0.2287,0.1396,0.0167,-0.0949,-0.1062,-0.2063,-0.3284,-0.3993,-0.4278,-0.4457,-0.5164,-0.4897,-0.4519,-0.4519,-0.4948,-0.5546,-0.6426,-0.7182,-0.7723,-0.7883,-0.8374,-0.8804,-0.8804,-0.7694,-0.6166,-0.4385,-0.3767,-0.3267,-0.267,-0.3063,-0.3616,-0.4155,-0.5512,-0.6651,-0.718,-0.7787,-0.8136,-0.8136,-0.7921,-0.7506,-0.6892,-0.6732,-0.6999,-0.7753,-0.7441,-0.725,-0.7343,-0.6583,-0.6263,-0.6263,-0.6367,-0.6421,1.8208,2.0787,2.2669,2.3045,2.3165,2.3259,0.0,0.0,2.2617,0.0,0.0,0.0,0.0,0.0,0.0,0.0,0.0,0.0,0.0,0.0,0.0,0.0,0.0,0.0,0.0,0.0,0.0,0.0,0.0,0.0,1.0031,0.9182,0.8398,0.7704,0.6118,0.526,0.5173,0.4144,0.3578,0.3486,0.2322,0.1163,0.0,-0.009,-0.0135,-0.0226,-0.1389,-0.1925,-0.1934,-0.1923,-0.1873,-0.165,0.0,0.1121,0.1898,0.2528,0.3317,0.3915,0.3308,0.3145,0.301,0.1563,0.0558,-0.0278,-0.0894,-0.1675,-0.2508,-0.3284,-0.3508,-0.3622,-0.4401,-0.457,-0.4519,-0.4519,-0.457,-0.5007,-0.6317,-0.7182,-0.7883,-0.8533,-0.8752,-0.8804,-0.8804,-0.8096,-0.7444,-0.7171,-0.5462,-0.4204,-0.4097,-0.3669,-0.3342,-0.3508,-0.4824,-0.5701,-0.5751,-0.5887,-0.5923,-0.5923,-0.4725,-0.3966,-0.386,-0.3269,-0.3269,-0.402,-0.519,-0.581,-0.581,-0.5117,-0.4791,-0.4791,-0.5382,-0.5651,1.6788,2.0002,2.2071,2.271,2.3177,2.3522,2.3671,2.3459,2.3212,2.3021,0.0,0.0,0.0,0.0,0.0,0.0,0.0,0.0,0.0,0.0,0.0,0.0,0.0,0.0,0.0,0.0,0.0,0.0,0.0,1.1386,1.0263,0.9253,0.8439,0.7912,0.6556,0.5653,0.5303,0.4482,0.3741,0.3078,0.223,0.134,0.0493,0.0135,0.0,-0.0045,-0.1297,-0.1786,-0.1786,-0.1786,-0.1786,-0.1606,0.0179,0.1252,0.1878,0.2549,0.3242,0.3852,0.3572,0.3368,0.3148,0.2443,0.1483,0.0558,0.0223,-0.067,-0.1675,-0.2009,-0.2676,-0.3398,-0.3732,-0.4181,-0.4519,-0.4519,-0.4519,-0.4901,-0.6317,-0.6858,-0.7402,-0.8586,-0.8804,-0.8646,-0.8262,-0.8262,-0.8049,-0.7182,-0.6622,-0.5959,-0.5148,-0.4714,-0.4391,-0.4067,-0.4563,-0.478,-0.4333,-0.4323,-0.3981,-0.3087,-0.2432,-0.188,-0.1489,-0.1162,-0.1107,-0.1434,-0.2879,-0.388,-0.4258,-0.3159,-0.2779,-0.3231,-0.3104,-0.3267,1.511,1.8402,2.0586,2.1942,2.2867,2.3464,0.0,0.0,2.3628,0.0,0.0,0.0,0.0,0.0,0.0,0.0,0.0,0.0,0.0,0.0,0.0,0.0,0.0,0.0,0.0,0.0,0.0,0.0,0.0,1.1981,1.0695,0.964,0.8788,0.8118,0.7021,0.6124,0.5524,0.4783,0.3818,0.2672,0.2095,0.1474,0.0895,0.0269,0.0,-0.0045,-0.1297,-0.1873,-0.2008,-0.1873,-0.1786,-0.1606,0.0357,0.1385,0.1873,0.263,0.3297,0.3839,0.3976,0.3883,0.3603,0.339,0.2709,0.1838,0.1284,0.0335,-0.0614,-0.1006,-0.1898,-0.2788,-0.2954,-0.3622,-0.4184,-0.4239,-0.4349,-0.4901,-0.6317,-0.6912,-0.7509,-0.8593,-0.8804,-0.8646,-0.8049,-0.8427,-0.8427,-0.7343,-0.745,-0.723,-0.5923,-0.5597,-0.5218,-0.457,-0.4519,-0.4181,-0.3342,-0.3007,-0.2223,-0.0887,-0.0277,0.0166,0.0553,0.0718,0.0773,0.0553,-0.05,-0.1554,-0.2485,-0.1383,-0.1109,-0.1613,-0.1054,-0.1109,1.3043,1.5657,1.8062,2.0712,2.2021,2.2842,0.0,0.0,0.0,0.0,0.0,0.0,0.0,0.0,0.0,0.0,0.0,0.0,0.0,0.0,0.0,0.0,0.0,0.0,0.0,0.0,0.0,0.0,0.0,1.2281,1.1737,1.0685,0.9679,0.8675,0.7536,0.6706,0.6136,0.5,0.3818,0.2672,0.2095,0.1474,0.0895,0.0269,0.0,-0.0045,-0.1297,-0.214,-0.2627,-0.2051,-0.1786,-0.1561,0.0801,0.1784,0.1964,0.3129,0.367,0.3886,0.4443,0.4865,0.5064,0.4212,0.4094,0.3822,0.1728,0.1062,0.067,-0.0726,-0.1174,-0.1396,-0.2063,-0.2788,-0.3398,-0.3456,-0.4015,-0.4901,-0.6317,-0.7723,-0.8699,-0.8804,-0.8804,-0.8804,-0.8752,-0.8752,-0.8752,-0.8699,-0.8103,-0.7402,-0.6642,-0.5928,-0.5218,-0.457,-0.4519,-0.4181,-0.3342,-0.2,-0.0888,-0.0111,0.1937,0.2771,0.2117,0.2773,0.2826,0.2119,0.2007,0.1277,-0.0166,-0.011,-0.0055,-0.011,-0.0055,-0.0055,0.9556,1.2634,1.5691,1.7983,1.9862,2.1563,2.2982,2.3508,2.3774,0.0,0.0,0.0,0.0,0.0,0.0,0.0,0.0,0.0,0.0,0.0,0.0,0.0,0.0,0.0,0.0,0.0,0.0,0.0,0.0,0.0,1.2188,1.0918,0.9914,0.9239,0.8136,0.6965,0.5653,0.4826,0.4045,0.3258,0.2562,0.1957,0.1472,0.0783,0.0087,-0.0583,-0.1029,-0.1563,-0.2097,-0.1873,-0.1786,-0.1561,0.0846,0.1786,0.2006,0.3558,0.3913,0.3788,0.4763,0.5029,0.4872,0.4569,0.4296,0.3915,0.2752,0.1756,0.1006,0.0447,-0.0391,-0.1174,-0.1452,-0.2397,-0.3456,-0.3959,-0.5003,-0.5991,-0.648,-0.7777,-0.8804,-0.8804,-0.8804,-0.8804,-0.8804,-0.8804,-0.8804,-0.8804,-0.8156,-0.745,-0.6696,-0.5982,-0.5218,-0.457,-0.4015,-0.34,-0.2676,-0.1223,0.0333,0.1992,0.3317,0.4313,0.4984,0.4816,0.4597,0.4326,0.4326,0.3382,0.1388,0.2377,0.2591,0.2151,0.2593,0.2591,0.6632,0.9564,1.2671,0.0,1.7633,1.9734,2.1725,0.0,2.3613,0.0,0.0,0.0,0.0,0.0,0.0,0.0,0.0,0.0,0.0,0.0,0.0,0.0,0.0,0.0,0.0,0.0,0.0,0.0,0.0,0.0,1.2416,1.1162,1.0123,0.9271,0.8142,0.6929,0.5728,0.5144,0.4443,0.3679,0.3073,0.2401,0.1709,0.0997,0.0208,-0.0601,-0.0827,-0.1235,-0.1784,-0.1563,-0.1518,-0.1294,0.0936,0.1917,0.2268,0.3814,0.4308,0.4316,0.527,0.5499,0.5319,0.5268,0.5052,0.4573,0.3699,0.2659,0.1786,0.1563,0.0781,-0.0056,-0.0279,-0.1616,-0.3176,-0.4226,-0.5546,-0.6642,-0.6912,-0.7943,-0.8804,-0.8804,-0.8804,-0.8804,-0.8804,-0.8593,-0.8427,-0.8427,-0.7777,-0.7074,-0.6308,-0.5592,-0.4882,-0.4177,-0.34,-0.2506,-0.156,-0.0334,0.133,0.3539,0.4587,0.5584,0.6534,0.6362,0.614,0.5869,0.5869,0.5152,0.3663,0.4652,0.4863,0.4419,0.4918,0.459,0.0,0.0,0.0,0.0,0.0,0.0,1.9752,0.0,0.0,0.0,0.0,0.0,0.0,0.0,0.0,0.0,0.0,0.0,0.0,0.0,0.0,0.0,0.0,0.0,0.0,0.0,0.0,0.0,0.0,1.3435,1.2386,1.1531,1.0365,0.8865,0.7541,0.6707,0.6494,0.5967,0.5061,0.3821,0.3486,0.2714,0.1605,0.1014,0.0469,0.0,-0.0616,-0.12,-0.1693,-0.1117,-0.0895,-0.0716,0.1116,0.218,0.2882,0.3986,0.4783,0.5394,0.6007,0.6387,0.6549,0.6446,0.6304,0.5971,0.4514,0.3726,0.3231,0.2452,0.223,0.2063,0.1228,-0.0557,-0.2561,-0.4042,-0.5529,-0.6804,-0.7509,-0.8268,-0.8804,-0.8804,-0.8804,-0.8804,-0.8752,-0.8156,-0.767,-0.767,-0.702,-0.6258,-0.5542,-0.4816,-0.4045,-0.3342,-0.2619,-0.156,-0.0111,0.0722,0.2103,0.4313,0.5806,0.6642,0.6642,0.7343,0.7396,0.6691,0.6642,0.6642,0.6642,0.6642,0.6642,0.6642,0.6588,0.581,0.2701,0.0,0.0,0.0,0.0,0.0,0.0,0.0,0.0,0.0,0.0,0.0,0.0,0.0,0.0,0.0,0.0,0.0,0.0,0.0,0.0,0.0,0.0,0.0,0.0,0.0,0.0,0.0,1.5034,1.3982,1.2799,1.0993,0.962,0.8739,0.8123,0.726,0.6089,0.5908,0.5305,0.4228,0.3759,0.3193,0.2523,0.1578,0.0907,0.047,-0.004,-0.0329,-0.0514,-0.0796,-0.0626,-0.0134,0.1248,0.2401,0.3409,0.46,0.5173,0.5432,0.6422,0.6563,0.6284,0.6284,0.6436,0.6493,0.5705,0.5164,0.4747,0.3984,0.3382,0.2437,0.0111,-0.1335,-0.2563,-0.4119,-0.5546,-0.6642,-0.6858,-0.7883,-0.8804,-0.8804,-0.8804,-0.8646,-0.8103,-0.783,-0.7509,-0.6966,-0.5806,-0.4922,-0.4703,-0.3605,-0.2726,-0.2508,-0.1842,-0.1004,-0.0056,0.1168,0.2826,0.5066,0.6077,0.7074,0.8156,0.7883,0.7818,0.8106,0.7652,0.7652,0.8106,0.7652,0.7396,0.7402,0.6858,0.6091,0.2006,0.3842,0.5942,0.0,0.0,0.0,0.0,1.722,0.0,0.0,0.0,0.0,0.0,0.0,0.0,0.0,0.0,0.0,0.0,0.0,0.0,0.0,0.0,0.0,0.0,0.0,0.0,1.6528,1.561,1.4284,1.2489,1.0942,0.9698,0.8813,0.8266,0.7557,0.6715,0.6293,0.5625,0.4746,0.4186,0.3547,0.2805,0.1955,0.1252,0.07,0.0415,0.0194,0.0,-0.0127,0.0044,0.0491,0.1428,0.2664,0.3978,0.4947,0.5604,0.6118,0.6768,0.681,0.652,0.652,0.6576,0.6595,0.6374,0.6092,0.5734,0.5396,0.4587,0.3207,0.0887,-0.0722,-0.2112,-0.3666,-0.5101,-0.6204,-0.6534,-0.7289,-0.8049,-0.8699,-0.854,-0.8209,-0.7777,-0.7176,-0.6519,-0.5806,-0.471,-0.3883,-0.355,-0.2449,-0.173,-0.173,-0.0781,0.0112,0.0835,0.2279,0.4036,0.625,0.7084,0.8119,0.9555,0.9235,0.9065,0.9162,0.8764,0.8613,0.8764,0.8362,0.8156,0.8156,0.7074,0.6318,0.2006,0.3219,0.4559,0.6021,0.7375,0.0,1.1901,1.4893,1.7548,0.0,0.0,0.0,0.0,0.0,0.0,0.0,0.0,0.0,0.0,0.0,0.0,0.0,0.0,0.0,0.0,1.7508,1.7306,1.6892,1.6006,1.4457,1.2042,1.1214,1.0266,0.9094,0.8207,0.7761,0.7712,0.6844,0.6029,0.5331,0.475,0.3927,0.2893,0.2341,0.1611,0.0842,0.0743,0.0471,0.011,0.0683,0.094,0.1066,0.1736,0.3014,0.4587,0.5168,0.6081,0.6979,0.6979,0.6979,0.6979,0.6979,0.678,0.659,0.6813,0.669,0.6442,0.6577,0.5529,0.4042,0.2559,0.0611,-0.133,-0.2819,-0.4313,-0.5592,-0.6312,-0.6534,-0.6966,-0.8321,-0.8049,-0.7503,-0.7337,-0.6244,-0.5093,-0.4262,-0.35,-0.2785,-0.2062,-0.1228,-0.0726,-0.0726,0.0447,0.1507,0.2286,0.3605,0.5341,0.7441,0.8298,0.9356,1.0762,1.072,1.0415,0.9917,0.9814,0.9458,0.8804,0.8804,0.8804,0.8752,0.7343,0.6637,0.2006,0.3274,0.4535,0.4831,0.0,0.0,0.8666,1.1085,1.3444,0.0,0.0,0.0,0.0,0.0,0.0,0.0,0.0,0.0,0.0,0.0,0.0,0.0,0.0,0.0,0.0,1.875,1.8208,1.7256,1.5811,1.4509,1.3447,1.175,1.0563,1.003,0.8825,0.788,0.7236,0.7046,0.6698,0.6236,0.5424,0.4748,0.4183,0.3086,0.2272,0.1713,0.1019,0.063,0.0586,0.0814,0.1181,0.1743,0.2759,0.3982,0.5211,0.5782,0.6428,0.6979,0.6979,0.6979,0.6979,0.6979,0.7135,0.7289,0.7348,0.7637,0.7758,0.6849,0.5529,0.4039,0.2603,0.0998,-0.0611,-0.2047,-0.3539,-0.4816,-0.5538,-0.6204,-0.6696,-0.6966,-0.6912,-0.6411,-0.5249,-0.4809,-0.4155,-0.2837,-0.1502,-0.0612,-0.0445,0.0724,0.1561,0.1561,0.184,0.2286,0.301,0.3883,0.5341,0.7441,0.8298,0.9356,1.0762,1.0261,1.0167,1.0618,1.0064,0.9458,0.8804,0.8804,0.8804,0.8758,0.7889,0.7481,0.2119,0.3345,0.4519,0.4519,0.0,0.0,0.0,0.8892,1.088,1.2794,0.0,0.0,0.0,0.0,0.0,0.0,0.0,0.0,0.0,0.0,0.0,0.0,0.0,0.0,0.0,1.9564,1.8648,1.7394,1.6381,1.535,1.4338,1.2996,1.1856,1.1019,0.9857,0.8869,0.8119,0.7636,0.7207,0.6781,0.5906,0.5293,0.4859,0.4017,0.3184,0.2305,0.1636,0.1089,0.0739,0.1109,0.1626,0.2349,0.3156,0.4483,0.5973,0.6409,0.7133,0.7807,0.7523,0.7447,0.7405,0.7105,0.7121,0.7275,0.7466,0.7936,0.8171,0.6956,0.6086,0.5089,0.3272,0.1664,0.0278,-0.0832,-0.2494,-0.3941,-0.4388,-0.5054,-0.5441,-0.505,-0.4992,-0.4878,-0.4481,-0.3767,-0.2777,-0.1335,-0.0501,0.0278,0.1002,0.1728,0.2339,0.2722,0.3053,0.3605,0.4316,0.5412,0.6806,0.8534,0.9341,1.0238,1.1266,1.0965,1.0813,1.0813,0.9814,0.9465,0.9814,0.9113,0.8804,0.8804,0.8049,0.7653,0.0,0.0,0.0,0.0,0.0,0.519,0.0,0.0,0.0,1.047,0.0,0.0,0.0,0.0,0.0,0.0,0.0,0.0,0.0,0.0,0.0,0.0,0.0,0.0,0.0,2.0283,1.9132,1.8007,1.7353,1.6528,1.5457,1.4384,1.3253,1.201,1.102,1.0062,0.9206,0.8377,0.7764,0.7325,0.6455,0.5776,0.5293,0.4884,0.4023,0.2794,0.2323,0.17,0.1012,0.1599,0.2255,0.2962,0.367,0.5032,0.666,0.7148,0.7915,0.8635,0.8201,0.8036,0.7995,0.7482,0.7273,0.7208,0.7419,0.7896,0.8093,0.7045,0.6661,0.6145,0.4278,0.2666,0.1276,0.0444,-0.1278,-0.2783,-0.3121,-0.3624,-0.3901,-0.3289,-0.2952,-0.2892,-0.3487,-0.2554,-0.128,0.0223,0.0556,0.1057,0.2286,0.2674,0.3056,0.3652,0.4368,0.5132,0.5824,0.7143,0.8482,0.9834,1.0578,1.1266,1.1765,1.1566,1.1116,1.0415,0.9458,0.951,1.0618,0.9658,0.9106,0.8956,0.8262,0.785,0.0,0.0,0.0,0.0,0.4556,0.0,0.0,0.0,0.549,0.6206,0.0,0.0,0.0,0.0,0.0,0.0,0.0,0.0,0.0,0.0,0.0,0.0,0.0,0.0,0.0,0.0,2.0304,2.0148,1.8684,1.7706,1.7556,1.5448,1.3841,1.2964,1.2023,1.0898,0.9556,0.9152,0.8679,0.8166,0.7345,0.6515,0.5714,0.5324,0.4439,0.3225,0.2794,0.2335,0.1885,0.2507,0.3097,0.3716,0.5075,0.6159,0.7065,0.8113,0.8594,0.8675,0.8635,0.8602,0.8594,0.8513,0.8193,0.7763,0.7551,0.7709,0.7843,0.7363,0.6912,0.6367,0.5487,0.4165,0.2726,0.1332,0.0278,-0.0723,-0.2062,-0.2397,-0.2454,-0.2343,-0.128,-0.0389,-0.05,-0.0334,0.0278,0.1728,0.2506,0.3007,0.3231,0.433,0.5152,0.5261,0.5923,0.6617,0.7281,0.8088,0.9186,1.0588,1.1332,1.1715,1.1814,1.0661,0.971,0.9061,0.9465,0.9762,0.9917,1.0364,1.0269,0.9658,0.9008,0.8547,0.0,0.0,0.0,0.0,0.0,0.0,0.3781,0.0,0.4187,0.0,0.0,0.0,0.0,0.0,0.0,0.0,0.0,0.0,0.0,0.0,0.0,0.0,0.0,0.0,0.0,0.0,0.0,0.0,0.0,1.8573,1.7936,1.6535,1.5197,1.3932,1.294,1.1804,1.0424,0.9972,0.935,0.8578,0.806,0.7492,0.6883,0.6251,0.5387,0.4343,0.3436,0.2922,0.2765,0.2761,0.3445,0.4611,0.6026,0.7037,0.781,0.8793,0.9359,0.9597,0.9279,0.9159,0.9119,0.8797,0.8561,0.8379,0.841,0.8268,0.808,0.7852,0.74,0.6791,0.5783,0.471,0.3663,0.2611,0.1499,0.0444,-0.0167,-0.061,-0.0776,-0.0388,0.0222,0.0944,0.1835,0.1614,0.1615,0.2674,0.3121,0.3619,0.4498,0.5525,0.644,0.7298,0.7982,0.8711,0.9386,0.9761,1.0332,1.1332,1.1299,1.1216,1.1216,0.9909,0.9256,0.9361,0.9666,1.0167,1.0965,1.0864,1.0864,1.0965,1.0261,0.9688,0.34,0.0,0.0,0.0,0.0,0.0,0.0,0.0,0.0,0.0,0.0,0.0,0.0,0.0,0.0,0.0,0.0,0.0,0.0,0.0,0.0,0.0,0.0,0.0,0.0,0.0,0.0,0.0,0.0,0.0,1.8531,1.7404,1.6214,1.4987,1.3956,1.2729,1.1339,1.0708,0.9937,0.8953,0.8606,0.8184,0.7686,0.708,0.6228,0.5136,0.4237,0.3695,0.3473,0.3408,0.4113,0.5336,0.6858,0.7812,0.8476,0.9373,0.9961,1.0244,0.9843,0.9716,0.9637,0.9079,0.8918,0.8928,0.8981,0.8858,0.8618,0.8366,0.7967,0.7367,0.6152,0.5257,0.4488,0.3564,0.2502,0.1666,0.1444,0.0998,0.0775,0.1276,0.1554,0.2055,0.3176,0.2899,0.2732,0.3511,0.3785,0.4385,0.5638,0.6597,0.7659,0.8822,0.9592,1.0265,1.1007,1.1065,1.1366,1.208,1.1475,1.1065,1.1065,0.9969,0.9562,1.0064,1.0261,1.0813,1.1814,1.1525,1.1633,1.208,1.1216,1.0412,0.0,0.0,0.0,0.4519,0.0,0.0,0.0,0.0,0.3369,0.0,0.0,0.0,0.0,0.0,0.0,0.0,0.0,0.0,0.0,0.0,0.0,0.0,0.0,0.0,0.0,0.0,0.0,0.0,0.0,0.0,1.9947,1.79,1.6496,1.6074,1.5015,1.371,1.2182,1.1362,1.0451,0.9381,0.8981,0.8389,0.7715,0.7686,0.6764,0.5206,0.5174,0.4706,0.4021,0.4801,0.5346,0.5841,0.7637,0.8532,0.8891,0.9925,1.0283,1.0283,1.0283,1.0283,1.0205,0.9646,0.9478,0.9359,0.8854,0.9136,0.9504,0.8842,0.8651,0.8357,0.695,0.6036,0.5101,0.3729,0.3287,0.301,0.2341,0.2119,0.2119,0.2174,0.273,0.3231,0.3287,0.3287,0.3511,0.4349,0.5003,0.5697,0.6489,0.777,0.8874,0.9578,1.0324,1.1065,1.1715,1.1765,1.208,1.2822,1.2187,1.1765,1.1765,1.1116,1.0771,1.0771,1.1416,1.1765,1.1814,1.251,1.2822,1.2832,1.1434,1.0393,0.0,0.0,0.4706,0.44,0.0,0.0,0.0,0.0,0.0,0.0,0.0,0.0,0.0,0.0,0.0,0.0,0.0,0.0,0.0,0.0,0.0,0.0,0.0,0.0,0.0,0.0,0.0,0.0,0.0,0.0,0.0,1.903,1.7738,1.6163,1.5501,1.4374,1.2754,1.1847,1.1011,1.0242,0.9536,0.9062,0.8805,0.8284,0.7723,0.7143,0.6353,0.5991,0.5975,0.5714,0.6005,0.6725,0.7649,0.84,0.905,0.9982,1.0283,1.0283,1.0283,1.0283,1.0283,1.0088,1.004,1.0,0.9795,0.9839,0.9874,0.9356,0.9189,0.8866,0.7664,0.7128,0.6573,0.5156,0.4772,0.4553,0.3898,0.4058,0.4381,0.4381,0.4988,0.5483,0.5483,0.5483,0.5433,0.5218,0.5378,0.5919,0.716,0.8508,0.9644,1.0332,1.1475,1.2255,1.2501,1.251,1.2618,1.2881,1.2187,1.1814,1.1814,1.1166,1.0813,1.0813,1.1466,1.1814,1.1814,1.2559,1.2881,1.2881,1.2412,1.1795,0.4872,0.4989,0.0,0.4844,0.4989,0.0,0.3715,0.0,0.0,0.0,0.0,0.0,0.0,0.0,0.0,0.0,0.0,0.0,0.0,0.0,0.0,0.0,0.0,0.0,0.0,0.0,2.1962,2.2529,0.0,0.0,0.0,0.0,1.813,1.651,1.5644,1.4577,1.326,1.2238,1.1535,1.1121,1.0197,0.9673,0.953,0.8892,0.8469,0.815,0.7386,0.7095,0.7172,0.6819,0.6925,0.7362,0.7957,0.8429,0.8887,0.9736,1.0146,1.0283,1.0283,1.0283,1.0283,1.0283,1.0283,1.0283,1.0283,1.0472,1.0456,0.9719,0.9668,0.9537,0.8094,0.7723,0.7396,0.6199,0.5873,0.5764,0.5332,0.5605,0.5873,0.5873,0.6258,0.6588,0.6588,0.6588,0.6421,0.5982,0.6086,0.6784,0.8218,0.9393,1.0477,1.1434,1.2363,1.2881,1.2881,1.3113,1.3238,1.3238,1.2764,1.2502,1.2502,1.1873,1.1534,1.1534,1.199,1.2276,1.2502,1.2977,1.3334,1.3525,1.3525,1.3304]}]]